GFSWCAN_prec_precacc_093.txt.gz
Total_Precipitation_Accumulation
1.50 1.04 0.74 0.63 0.64 0.82 0.74 0.81 0.79 0.83 0.78 0.62 0.48 0.47 0.61 0.66 0.85 1.37 1.60 1.21 1.47 1.64 0.46 0.27 0.20 0.15 0.09 0.10 0.16 0.09 0.27 0.21 0.36 0.43 0.25 0.09 0.05 0.02 0.04 0.05 0.14 0.40 0.60 0.47 0.36 0.43 0.12 0.01 0.08 0.26 0.33 0.15 0.10 0.08
1.36 1.11 0.79 0.63 0.72 0.77 0.74 0.81 0.74 0.72 0.68 0.55 0.49 0.51 0.53 0.57 0.73 1.27 1.47 1.14 1.10 1.91 1.01 0.46 0.21 0.11 0.13 0.02 0.10 0.16 0.11 0.05 0.18 0.19 0.12 0.08 0.05 0.04 0.01 0.02 0.01 0.03 0.09 0.20 0.31 0.20 0.05 0.01 0.04 0.04 0.06 0.14 0.10 0.09
1.59 1.10 0.91 0.78 0.82 0.80 0.77 0.81 0.65 0.63 0.65 0.54 0.49 0.52 0.58 0.59 0.76 1.14 1.23 1.05 1.51 2.31 1.37 0.59 0.26 0.07 0.14 0.08 0.13 0.37 0.11 0.05 0.12 0.19 0.43 0.31 0.22 0.07 0.07 0.05 0.02 0.05 0.04 0.04 0.05 0.01 0.02 0.05 0.05 0.03 0.06 0.09 0.14 0.22
1.52 1.36 1.03 0.80 1.00 1.27 1.07 1.01 0.66 0.62 0.67 0.58 0.51 0.53 0.60 0.77 0.88 1.09 1.11 1.24 1.71 2.41 1.49 0.69 0.39 0.24 0.12 0.15 0.05 0.22 0.18 0.24 0.39 0.50 0.74 0.58 0.41 0.19 0.08 0.03 0.05 0.09 0.11 0.08 0.06 0.02 0.03 0.04 0.08 0.15 0.21 0.32 0.29 0.20
1.44 1.19 1.02 0.96 1.28 1.12 0.87 0.72 0.70 0.74 0.78 0.60 0.56 0.62 0.86 1.09 1.20 1.33 1.15 1.08 1.43 1.84 1.23 0.50 0.40 0.30 0.27 0.24 0.16 0.24 0.45 0.57 0.77 0.65 0.56 0.31 0.13 0.16 0.13 0.11 0.13 0.06 0.03 0.06 0.10 0.07 0.23 0.22 0.33 0.42 0.38 0.27 0.15 0.09
1.08 1.04 0.98 1.02 1.02 0.91 0.70 0.64 0.71 0.80 0.78 0.70 0.69 0.84 1.30 1.58 1.77 2.96 3.40 1.65 1.14 1.43 2.11 1.08 0.47 0.38 0.48 0.44 0.37 0.18 0.26 0.73 1.07 0.91 0.41 0.15 0.09 0.32 0.39 0.15 0.02 0.00 0.02 0.12 0.17 0.14 0.22 0.32 0.34 0.22 0.21 0.15 0.05 0.02
1.05 0.93 0.84 0.85 0.86 0.80 0.73 0.71 0.88 0.90 0.75 0.71 0.85 1.24 1.52 1.82 2.57 3.13 2.14 1.28 0.88 1.41 2.58 1.77 0.78 0.46 0.68 0.55 0.40 0.32 0.29 0.48 0.77 1.18 0.89 0.34 0.16 0.48 0.51 0.20 0.01 0.01 0.02 0.05 0.06 0.11 0.21 0.20 0.21 0.15 0.07 0.03 0.03 0.03
1.10 0.91 0.78 0.68 0.67 0.64 0.68 0.76 0.84 0.92 0.84 0.90 1.12 1.41 1.75 2.90 3.10 1.99 1.41 1.30 0.88 1.40 2.01 2.01 1.11 0.87 1.13 0.71 0.47 0.31 0.34 0.49 0.57 0.75 0.65 0.52 0.35 0.47 0.41 0.04 0.00 0.00 0.00 0.00 0.01 0.03 0.11 0.07 0.03 0.04 0.03 0.02 0.03 0.05
1.09 0.83 0.62 0.47 0.48 0.61 0.56 0.66 0.83 0.97 1.09 1.39 1.88 2.77 3.66 3.32 2.57 1.63 1.90 2.05 1.67 1.86 1.93 1.33 1.29 1.36 1.63 1.08 0.59 0.64 0.53 0.74 0.57 0.46 0.36 0.54 0.50 0.37 0.14 0.02 0.01 0.01 0.02 0.02 0.01 0.01 0.02 0.04 0.04 0.04 0.03 0.05 0.07 0.07
0.67 0.59 0.54 0.47 0.47 0.57 0.52 0.59 0.91 1.37 1.85 2.31 3.02 3.75 4.25 2.72 1.73 1.59 2.49 2.86 2.57 2.08 1.58 0.86 0.85 1.45 1.61 1.61 0.94 1.19 1.02 0.66 0.51 0.21 0.28 0.35 0.24 0.13 0.09 0.14 0.03 0.01 0.01 0.01 0.01 0.02 0.04 0.05 0.07 0.08 0.06 0.04 0.02 0.01
0.74 0.73 0.76 0.66 0.59 0.69 0.66 0.70 1.00 1.85 2.84 3.02 2.86 2.87 2.55 2.19 1.78 2.04 2.40 2.01 1.38 0.83 0.57 0.28 0.31 0.95 1.42 1.66 1.32 1.27 1.43 0.78 0.35 0.14 0.28 0.27 0.07 0.14 0.20 0.18 0.09 0.03 0.02 0.01 0.01 0.02 0.06 0.11 0.06 0.01 0.00 0.01 0.02 0.04
0.92 0.83 0.75 0.72 0.71 0.79 0.72 0.69 1.01 1.51 2.17 2.17 1.80 1.79 2.20 2.08 1.78 1.65 1.60 1.22 0.46 0.16 0.09 0.16 0.18 0.50 1.41 1.65 1.52 1.36 0.97 1.08 0.45 0.19 0.21 0.15 0.10 0.03 0.05 0.06 0.09 0.11 0.07 0.07 0.10 0.09 0.05 0.02 0.02 0.02 0.03 0.04 0.08 0.12
1.05 0.97 0.92 0.87 0.74 0.78 0.75 0.68 0.72 1.19 1.68 1.95 1.79 2.13 2.14 2.22 1.72 1.18 0.65 0.39 0.19 0.09 0.10 0.14 0.28 0.38 0.92 1.40 1.65 1.42 1.07 0.83 0.60 0.54 0.21 0.07 0.07 0.08 0.05 0.03 0.04 0.08 0.15 0.07 0.04 0.04 0.04 0.05 0.06 0.07 0.10 0.17 0.22 0.30
1.01 0.90 0.80 0.89 0.86 0.75 0.71 0.87 1.02 1.08 1.38 1.90 2.21 2.22 1.91 1.55 1.02 0.61 0.24 0.13 0.11 0.10 0.10 0.11 0.30 0.57 0.78 0.94 1.16 1.30 1.35 0.80 0.89 0.49 0.22 0.22 0.17 0.15 0.12 0.09 0.04 0.04 0.14 0.41 0.25 0.10 0.10 0.13 0.16 0.25 0.34 0.37 0.32 0.41
0.73 0.62 0.66 0.78 0.70 0.62 0.73 0.81 0.71 0.71 0.82 1.20 0.99 1.14 1.10 0.78 0.57 0.47 0.26 0.17 0.18 0.17 0.16 0.32 0.58 0.77 0.97 1.15 1.02 0.86 1.12 1.04 0.62 0.47 0.51 0.50 0.26 0.16 0.15 0.17 0.20 0.22 0.23 0.35 0.57 0.59 0.46 0.43 0.43 0.51 0.53 0.50 0.36 0.38
0.36 0.43 0.60 0.63 0.58 0.58 0.61 0.62 0.68 0.65 0.65 0.60 0.65 0.76 0.60 0.52 0.64 0.52 0.40 0.40 0.40 0.41 0.47 0.75 1.07 1.11 1.16 0.93 0.85 0.69 0.59 0.48 0.55 0.40 0.40 0.33 0.34 0.32 0.32 0.34 0.42 0.49 0.57 0.66 0.75 0.80 0.83 0.72 0.61 0.68 0.72 0.58 0.52 0.39
0.24 0.32 0.39 0.36 0.39 0.38 0.41 0.61 0.61 0.75 0.77 0.58 0.63 0.54 0.41 0.48 0.65 0.57 0.50 0.50 0.51 0.52 0.60 0.67 0.79 0.91 0.79 0.58 0.55 0.43 0.47 0.40 0.32 0.35 0.42 0.40 0.40 0.46 0.51 0.52 0.61 0.57 0.57 0.65 0.73 0.61 0.62 0.65 0.54 0.36 0.39 0.46 0.35 0.28
0.39 0.24 0.20 0.21 0.22 0.26 0.35 0.42 0.47 0.45 0.47 0.63 0.66 0.72 0.46 0.52 0.55 0.47 0.40 0.41 0.42 0.37 0.28 0.31 0.36 0.42 0.56 0.50 0.55 0.51 0.47 0.52 0.54 0.52 0.57 0.62 0.57 0.65 0.61 0.57 0.66 0.59 0.54 0.59 0.55 0.47 0.41 0.38 0.36 0.34 0.23 0.19 0.15 0.16
0.55 0.31 0.24 0.23 0.24 0.32 0.43 0.37 0.24 0.23 0.47 0.69 0.86 0.76 0.58 0.63 0.71 0.67 0.51 0.38 0.41 0.46 0.43 0.45 0.49 0.51 0.60 0.70 0.67 0.64 0.61 0.56 0.65 0.86 1.02 1.10 0.95 0.80 0.76 0.62 0.55 0.53 0.48 0.47 0.42 0.41 0.40 0.31 0.24 0.19 0.16 0.15 0.16 0.16
0.88 0.81 0.64 0.52 0.46 0.60 0.38 0.32 0.18 0.21 0.47 0.60 0.74 0.68 0.57 0.78 0.70 0.56 0.41 0.33 0.26 0.34 0.54 0.66 0.90 1.05 1.03 1.04 0.83 0.70 0.73 0.77 0.59 0.67 1.02 1.13 1.08 0.82 0.82 0.60 0.56 0.46 0.37 0.35 0.33 0.29 0.24 0.22 0.20 0.17 0.16 0.16 0.16 0.13
0.94 1.08 0.94 0.63 0.46 0.41 0.48 0.47 0.38 0.31 0.36 0.48 0.67 0.46 0.62 0.46 0.41 0.34 0.28 0.17 0.25 0.56 0.82 1.05 1.11 1.41 1.35 1.09 0.91 0.67 0.76 0.58 0.68 0.51 0.57 0.77 0.94 0.57 0.62 0.56 0.41 0.36 0.29 0.29 0.25 0.30 0.23 0.19 0.17 0.11 0.11 0.14 0.14 0.13
0.65 0.56 0.54 0.44 0.31 0.12 0.24 0.34 0.28 0.33 0.30 0.51 0.52 0.35 0.43 0.44 0.39 0.34 0.15 0.22 0.63 0.93 1.11 1.05 0.96 0.97 0.81 0.89 0.91 0.74 0.77 0.53 0.54 0.54 0.56 0.41 0.47 0.44 0.45 0.48 0.32 0.32 0.30 0.30 0.22 0.22 0.17 0.11 0.10 0.09 0.09 0.07 0.07 0.08
0.41 0.35 0.33 0.35 0.25 0.19 0.37 0.32 0.26 0.42 0.39 0.48 0.36 0.29 0.36 0.35 0.36 0.13 0.23 0.48 0.73 0.98 1.03 0.84 0.85 0.81 0.70 0.86 0.53 0.62 0.74 0.38 0.41 0.47 0.48 0.42 0.39 0.36 0.27 0.33 0.32 0.26 0.24 0.21 0.15 0.13 0.11 0.09 0.08 0.08 0.06 0.05 0.06 0.08
0.34 0.38 0.39 0.31 0.23 0.24 0.13 0.14 0.20 0.24 0.23 0.24 0.22 0.30 0.38 0.36 0.18 0.12 0.29 0.49 0.81 0.70 0.62 0.69 0.62 0.57 0.48 0.38 0.41 0.50 0.72 0.49 0.32 0.36 0.42 0.27 0.19 0.29 0.23 0.23 0.21 0.19 0.15 0.10 0.08 0.07 0.08 0.08 0.08 0.08 0.10 0.16 0.18 0.17
0.69 0.57 0.31 0.19 0.08 0.07 0.04 0.06 0.09 0.10 0.17 0.15 0.14 0.25 0.31 0.20 0.13 0.20 0.30 0.51 0.47 0.52 0.62 0.64 0.53 0.51 0.46 0.50 0.50 0.50 0.53 0.43 0.28 0.21 0.35 0.31 0.28 0.24 0.18 0.14 0.12 0.10 0.08 0.08 0.13 0.17 0.13 0.14 0.18 0.20 0.17 0.15 0.13 0.10
0.55 0.27 0.13 0.08 0.08 0.05 0.04 0.05 0.07 0.09 0.09 0.10 0.15 0.19 0.15 0.09 0.08 0.16 0.27 0.43 0.39 0.45 0.51 0.54 0.55 0.44 0.44 0.46 0.42 0.40 0.43 0.35 0.27 0.22 0.28 0.24 0.22 0.22 0.22 0.18 0.13 0.09 0.07 0.11 0.17 0.18 0.14 0.11 0.10 0.10 0.09 0.07 0.10 0.14
0.29 0.14 0.05 0.04 0.09 0.11 0.07 0.06 0.05 0.07 0.09 0.13 0.14 0.14 0.16 0.13 0.12 0.26 0.27 0.29 0.30 0.41 0.39 0.38 0.34 0.32 0.36 0.39 0.36 0.35 0.25 0.20 0.21 0.17 0.10 0.06 0.06 0.08 0.15 0.23 0.26 0.21 0.12 0.12 0.16 0.19 0.19 0.15 0.12 0.10 0.12 0.11 0.14 0.20
0.09 0.03 0.05 0.08 0.10 0.11 0.11 0.11 0.11 0.14 0.15 0.15 0.14 0.12 0.18 0.14 0.23 0.32 0.35 0.40 0.31 0.27 0.25 0.27 0.25 0.22 0.21 0.21 0.21 0.19 0.18 0.15 0.10 0.04 0.02 0.06 0.07 0.09 0.09 0.13 0.15 0.13 0.11 0.13 0.16 0.15 0.17 0.19 0.19 0.18 0.20 0.21 0.20 0.18
0.08 0.06 0.05 0.06 0.14 0.19 0.21 0.20 0.22 0.23 0.21 0.22 0.17 0.18 0.21 0.31 0.52 0.43 0.46 0.38 0.31 0.21 0.21 0.22 0.26 0.18 0.15 0.12 0.12 0.13 0.11 0.09 0.10 0.11 0.10 0.12 0.19 0.16 0.10 0.10 0.10 0.11 0.10 0.10 0.12 0.19 0.21 0.23 0.20 0.22 0.26 0.24 0.23 0.26
0.11 0.16 0.18 0.11 0.17 0.27 0.35 0.28 0.29 0.26 0.19 0.16 0.14 0.16 0.17 0.34 0.55 0.42 0.29 0.24 0.20 0.22 0.24 0.21 0.21 0.14 0.14 0.12 0.11 0.10 0.13 0.11 0.16 0.21 0.19 0.14 0.16 0.15 0.13 0.15 0.16 0.16 0.17 0.20 0.19 0.15 0.16 0.17 0.20 0.29 0.28 0.27 0.30 0.32
0.15 0.17 0.16 0.15 0.21 0.23 0.20 0.18 0.16 0.11 0.09 0.08 0.07 0.12 0.19 0.26 0.29 0.23 0.24 0.29 0.20 0.17 0.14 0.13 0.14 0.17 0.15 0.13 0.14 0.13 0.15 0.18 0.13 0.14 0.16 0.17 0.20 0.21 0.21 0.20 0.20 0.20 0.19 0.19 0.17 0.19 0.20 0.22 0.27 0.28 0.23 0.20 0.21 0.20
0.08 0.09 0.11 0.13 0.17 0.18 0.19 0.27 0.19 0.14 0.12 0.08 0.11 0.09 0.13 0.11 0.16 0.23 0.21 0.22 0.12 0.12 0.16 0.15 0.14 0.16 0.18 0.18 0.21 0.19 0.19 0.18 0.15 0.16 0.19 0.21 0.21 0.20 0.17 0.16 0.16 0.16 0.14 0.13 0.13 0.14 0.13 0.14 0.16 0.13 0.13 0.11 0.12 0.10
0.09 0.10 0.11 0.12 0.12 0.12 0.13 0.16 0.12 0.10 0.08 0.09 0.12 0.12 0.13 0.14 0.26 0.31 0.20 0.17 0.20 0.19 0.20 0.22 0.22 0.25 0.26 0.23 0.22 0.20 0.17 0.16 0.15 0.13 0.15 0.15 0.13 0.11 0.10 0.11 0.12 0.11 0.10 0.10 0.11 0.11 0.09 0.09 0.10 0.12 0.11 0.11 0.10 0.08

GFSWCAN_prec_precacc_096.txt.gz
Total_Precipitation_Accumulation
1.52 1.05 0.76 0.65 0.66 0.83 0.75 0.83 0.81 0.84 0.80 0.63 0.50 0.49 0.64 0.69 0.88 1.43 1.65 1.24 1.49 1.67 0.48 0.28 0.20 0.18 0.13 0.15 0.22 0.14 0.33 0.25 0.40 0.51 0.30 0.10 0.06 0.02 0.04 0.05 0.15 0.41 0.61 0.49 0.37 0.46 0.13 0.03 0.16 0.33 0.36 0.17 0.15 0.10
1.36 1.12 0.81 0.65 0.74 0.79 0.76 0.84 0.76 0.75 0.71 0.58 0.53 0.55 0.57 0.62 0.79 1.35 1.63 1.21 1.14 1.96 1.08 0.47 0.21 0.11 0.13 0.03 0.12 0.18 0.14 0.08 0.21 0.22 0.14 0.09 0.06 0.04 0.01 0.02 0.01 0.03 0.09 0.20 0.35 0.25 0.06 0.03 0.07 0.07 0.07 0.16 0.17 0.16
1.60 1.12 0.93 0.79 0.84 0.82 0.79 0.84 0.67 0.65 0.67 0.55 0.52 0.57 0.66 0.67 0.85 1.29 1.43 1.15 1.61 2.54 1.56 0.63 0.27 0.07 0.14 0.08 0.14 0.39 0.12 0.05 0.13 0.23 0.47 0.34 0.24 0.08 0.08 0.05 0.02 0.05 0.04 0.04 0.05 0.01 0.03 0.09 0.09 0.04 0.07 0.09 0.16 0.22
1.53 1.37 1.06 0.84 1.03 1.30 1.09 1.02 0.67 0.63 0.68 0.60 0.53 0.55 0.62 0.85 0.98 1.24 1.32 1.41 1.82 2.62 1.61 0.73 0.39 0.24 0.12 0.15 0.06 0.22 0.18 0.24 0.41 0.54 0.82 0.65 0.46 0.21 0.09 0.04 0.05 0.09 0.11 0.08 0.06 0.02 0.03 0.04 0.08 0.15 0.21 0.32 0.30 0.21
1.47 1.25 1.08 1.02 1.33 1.16 0.89 0.73 0.71 0.75 0.79 0.61 0.57 0.63 0.88 1.12 1.28 1.48 1.36 1.21 1.49 1.89 1.29 0.52 0.40 0.30 0.27 0.24 0.16 0.24 0.46 0.59 0.81 0.72 0.66 0.34 0.15 0.17 0.14 0.13 0.14 0.06 0.03 0.06 0.10 0.07 0.23 0.22 0.33 0.42 0.38 0.27 0.16 0.11
1.15 1.10 1.03 1.06 1.04 0.93 0.71 0.66 0.73 0.81 0.79 0.71 0.72 0.86 1.32 1.59 1.84 3.20 3.79 1.88 1.21 1.50 2.23 1.10 0.47 0.38 0.48 0.44 0.37 0.18 0.27 0.76 1.14 1.04 0.49 0.19 0.11 0.34 0.41 0.16 0.02 0.00 0.02 0.12 0.17 0.14 0.22 0.32 0.34 0.22 0.21 0.15 0.06 0.04
1.11 0.97 0.86 0.86 0.87 0.80 0.74 0.72 0.89 0.93 0.77 0.72 0.86 1.28 1.56 1.87 2.63 3.30 2.23 1.35 0.98 1.52 2.72 1.84 0.78 0.46 0.68 0.55 0.40 0.32 0.30 0.52 0.84 1.30 0.95 0.36 0.17 0.52 0.53 0.20 0.01 0.01 0.02 0.05 0.06 0.11 0.21 0.20 0.21 0.15 0.07 0.03 0.04 0.04
1.11 0.92 0.78 0.68 0.67 0.64 0.68 0.77 0.85 0.93 0.86 0.92 1.14 1.45 1.87 3.08 3.19 2.10 1.42 1.31 0.90 1.45 2.06 2.03 1.11 0.87 1.13 0.71 0.47 0.31 0.35 0.52 0.61 0.80 0.68 0.55 0.38 0.52 0.46 0.04 0.00 0.00 0.00 0.00 0.01 0.03 0.11 0.07 0.03 0.04 0.03 0.03 0.04 0.06
1.09 0.84 0.63 0.47 0.48 0.61 0.56 0.66 0.83 0.99 1.11 1.42 1.93 2.97 4.09 3.81 2.78 1.73 1.93 2.09 1.68 1.88 1.95 1.34 1.30 1.36 1.63 1.09 0.59 0.65 0.54 0.76 0.59 0.49 0.37 0.56 0.52 0.39 0.14 0.02 0.01 0.01 0.02 0.02 0.01 0.01 0.02 0.04 0.04 0.04 0.03 0.05 0.08 0.08
0.75 0.68 0.57 0.47 0.49 0.57 0.52 0.60 0.92 1.39 1.89 2.37 3.39 4.49 4.81 2.97 1.76 1.70 2.75 3.01 2.66 2.11 1.59 0.86 0.85 1.46 1.62 1.63 0.97 1.24 1.06 0.67 0.53 0.21 0.29 0.38 0.25 0.13 0.09 0.14 0.03 0.01 0.01 0.01 0.01 0.02 0.04 0.05 0.07 0.08 0.06 0.04 0.02 0.03
0.77 0.76 0.77 0.69 0.64 0.71 0.72 0.85 1.16 1.92 2.91 3.22 3.35 3.08 2.65 2.23 1.85 2.18 2.56 2.09 1.44 0.86 0.58 0.28 0.31 0.95 1.43 1.67 1.33 1.33 1.63 0.83 0.38 0.16 0.30 0.29 0.07 0.14 0.20 0.18 0.09 0.03 0.02 0.01 0.01 0.02 0.06 0.11 0.06 0.01 0.00 0.01 0.02 0.04
0.97 0.84 0.76 0.73 0.74 0.84 0.86 0.93 1.15 1.55 2.22 2.32 1.90 1.86 2.27 2.20 1.89 1.71 1.62 1.23 0.46 0.16 0.09 0.16 0.19 0.50 1.41 1.65 1.54 1.37 1.03 1.20 0.52 0.20 0.24 0.16 0.11 0.03 0.05 0.06 0.09 0.11 0.07 0.07 0.10 0.09 0.05 0.02 0.02 0.02 0.03 0.04 0.08 0.12
1.14 0.99 0.93 0.90 0.81 0.86 0.86 0.78 0.75 1.20 1.68 1.95 1.80 2.18 2.19 2.24 1.73 1.19 0.65 0.40 0.19 0.09 0.10 0.14 0.29 0.38 0.92 1.40 1.67 1.50 1.09 0.85 0.61 0.58 0.23 0.07 0.07 0.08 0.05 0.03 0.04 0.08 0.15 0.07 0.04 0.04 0.04 0.05 0.06 0.07 0.11 0.17 0.22 0.31
1.05 0.91 0.80 0.90 0.89 0.82 0.82 0.94 1.04 1.10 1.39 1.90 2.21 2.22 1.91 1.55 1.02 0.62 0.25 0.13 0.11 0.11 0.11 0.12 0.31 0.60 0.80 0.95 1.19 1.42 1.45 0.85 0.94 0.52 0.23 0.23 0.17 0.16 0.12 0.09 0.04 0.04 0.15 0.41 0.26 0.10 0.10 0.13 0.16 0.25 0.34 0.37 0.33 0.42
0.73 0.62 0.66 0.78 0.70 0.62 0.74 0.81 0.71 0.71 0.82 1.20 0.99 1.14 1.10 0.78 0.58 0.47 0.26 0.18 0.19 0.18 0.17 0.35 0.61 0.89 1.07 1.23 1.04 0.87 1.14 1.06 0.63 0.47 0.51 0.51 0.26 0.16 0.16 0.17 0.21 0.22 0.24 0.36 0.58 0.60 0.47 0.44 0.44 0.53 0.56 0.52 0.38 0.40
0.37 0.44 0.60 0.63 0.58 0.58 0.61 0.62 0.68 0.65 0.65 0.60 0.65 0.77 0.61 0.53 0.65 0.52 0.41 0.41 0.41 0.44 0.49 0.78 1.10 1.13 1.20 0.95 0.86 0.69 0.60 0.48 0.55 0.40 0.40 0.33 0.34 0.32 0.32 0.34 0.43 0.50 0.58 0.68 0.78 0.82 0.86 0.75 0.65 0.73 0.78 0.64 0.59 0.46
0.24 0.32 0.39 0.36 0.39 0.38 0.41 0.61 0.61 0.75 0.77 0.58 0.64 0.54 0.42 0.49 0.66 0.58 0.51 0.52 0.53 0.57 0.64 0.69 0.80 0.91 0.80 0.59 0.55 0.43 0.47 0.41 0.32 0.35 0.43 0.41 0.40 0.46 0.52 0.53 0.62 0.59 0.59 0.67 0.76 0.68 0.72 0.72 0.61 0.45 0.49 0.58 0.47 0.39
0.39 0.24 0.20 0.21 0.22 0.26 0.35 0.42 0.47 0.45 0.48 0.64 0.67 0.74 0.47 0.53 0.56 0.48 0.42 0.43 0.44 0.39 0.30 0.32 0.37 0.42 0.57 0.51 0.56 0.52 0.48 0.53 0.55 0.53 0.59 0.63 0.58 0.66 0.62 0.58 0.68 0.61 0.56 0.63 0.60 0.53 0.48 0.47 0.45 0.47 0.36 0.31 0.26 0.27
0.55 0.31 0.24 0.23 0.24 0.32 0.43 0.37 0.24 0.23 0.48 0.69 0.87 0.77 0.59 0.64 0.73 0.69 0.53 0.41 0.45 0.48 0.44 0.47 0.52 0.53 0.62 0.73 0.69 0.66 0.62 0.57 0.66 0.88 1.04 1.12 0.98 0.82 0.79 0.65 0.59 0.59 0.55 0.56 0.56 0.56 0.50 0.43 0.41 0.36 0.29 0.27 0.26 0.26
0.88 0.81 0.64 0.52 0.46 0.60 0.38 0.32 0.18 0.21 0.47 0.60 0.75 0.69 0.57 0.80 0.72 0.58 0.42 0.34 0.28 0.36 0.57 0.69 0.93 1.08 1.05 1.07 0.87 0.72 0.74 0.78 0.60 0.68 1.04 1.16 1.11 0.85 0.87 0.67 0.63 0.54 0.45 0.43 0.45 0.43 0.32 0.31 0.32 0.29 0.28 0.26 0.22 0.18
0.94 1.08 0.94 0.63 0.46 0.41 0.48 0.48 0.38 0.31 0.36 0.48 0.67 0.46 0.63 0.47 0.43 0.36 0.30 0.18 0.25 0.58 0.84 1.08 1.14 1.45 1.41 1.14 0.95 0.69 0.78 0.59 0.69 0.52 0.59 0.79 0.97 0.60 0.67 0.62 0.47 0.42 0.36 0.34 0.31 0.39 0.31 0.25 0.24 0.17 0.16 0.17 0.15 0.13
0.65 0.56 0.54 0.44 0.31 0.12 0.24 0.34 0.28 0.33 0.30 0.51 0.53 0.36 0.45 0.47 0.42 0.38 0.18 0.24 0.67 0.98 1.16 1.09 1.02 1.03 0.86 0.92 0.93 0.76 0.79 0.55 0.56 0.56 0.58 0.43 0.50 0.47 0.50 0.53 0.36 0.37 0.36 0.36 0.27 0.27 0.22 0.15 0.12 0.10 0.09 0.07 0.07 0.08
0.41 0.35 0.33 0.35 0.25 0.19 0.39 0.34 0.27 0.44 0.40 0.49 0.36 0.30 0.37 0.37 0.37 0.14 0.26 0.52 0.78 1.03 1.08 0.89 0.90 0.85 0.72 0.88 0.55 0.64 0.76 0.40 0.43 0.50 0.52 0.46 0.43 0.41 0.32 0.39 0.39 0.30 0.27 0.27 0.20 0.16 0.13 0.09 0.08 0.08 0.06 0.05 0.06 0.08
0.34 0.38 0.39 0.31 0.23 0.24 0.14 0.14 0.20 0.25 0.23 0.25 0.22 0.31 0.39 0.37 0.19 0.12 0.30 0.52 0.84 0.73 0.64 0.72 0.65 0.60 0.49 0.39 0.42 0.52 0.76 0.53 0.35 0.39 0.47 0.31 0.22 0.34 0.28 0.27 0.27 0.24 0.17 0.12 0.09 0.07 0.08 0.08 0.08 0.08 0.10 0.16 0.18 0.17
0.69 0.57 0.31 0.19 0.08 0.07 0.04 0.06 0.09 0.10 0.17 0.15 0.14 0.25 0.32 0.21 0.13 0.20 0.31 0.52 0.48 0.54 0.64 0.66 0.55 0.53 0.48 0.52 0.53 0.53 0.57 0.47 0.32 0.23 0.40 0.37 0.32 0.28 0.22 0.16 0.13 0.10 0.08 0.08 0.13 0.17 0.13 0.14 0.18 0.20 0.17 0.15 0.13 0.10
0.55 0.27 0.13 0.09 0.08 0.05 0.04 0.05 0.07 0.09 0.09 0.10 0.15 0.19 0.15 0.09 0.09 0.17 0.28 0.43 0.41 0.46 0.53 0.57 0.58 0.47 0.46 0.48 0.45 0.43 0.46 0.39 0.31 0.24 0.31 0.28 0.26 0.25 0.23 0.18 0.13 0.09 0.07 0.11 0.17 0.18 0.14 0.11 0.10 0.10 0.09 0.07 0.10 0.14
0.29 0.14 0.05 0.04 0.10 0.11 0.07 0.06 0.05 0.07 0.10 0.13 0.14 0.14 0.16 0.13 0.13 0.27 0.28 0.30 0.31 0.42 0.41 0.40 0.36 0.34 0.39 0.42 0.39 0.38 0.28 0.24 0.24 0.19 0.11 0.06 0.06 0.08 0.15 0.23 0.26 0.21 0.12 0.12 0.16 0.19 0.19 0.15 0.12 0.10 0.12 0.11 0.14 0.20
0.09 0.03 0.05 0.08 0.10 0.11 0.11 0.11 0.11 0.14 0.15 0.15 0.14 0.12 0.18 0.14 0.24 0.33 0.36 0.41 0.33 0.28 0.26 0.28 0.26 0.23 0.23 0.23 0.23 0.22 0.21 0.18 0.13 0.06 0.02 0.06 0.07 0.09 0.09 0.13 0.15 0.13 0.11 0.13 0.16 0.15 0.17 0.19 0.19 0.18 0.20 0.21 0.20 0.18
0.08 0.06 0.05 0.06 0.14 0.19 0.22 0.20 0.23 0.24 0.22 0.22 0.17 0.18 0.22 0.32 0.53 0.44 0.47 0.39 0.32 0.22 0.22 0.23 0.27 0.19 0.16 0.14 0.13 0.14 0.12 0.10 0.12 0.13 0.11 0.13 0.19 0.16 0.10 0.10 0.10 0.11 0.10 0.10 0.12 0.19 0.21 0.23 0.20 0.22 0.26 0.24 0.23 0.26
0.11 0.16 0.18 0.11 0.17 0.27 0.36 0.28 0.29 0.27 0.20 0.16 0.14 0.16 0.17 0.35 0.57 0.44 0.31 0.25 0.21 0.23 0.25 0.22 0.22 0.15 0.15 0.13 0.12 0.11 0.13 0.12 0.16 0.22 0.19 0.14 0.16 0.15 0.13 0.15 0.16 0.16 0.17 0.20 0.19 0.15 0.16 0.17 0.20 0.29 0.28 0.27 0.30 0.32
0.15 0.17 0.16 0.15 0.21 0.23 0.20 0.18 0.16 0.11 0.09 0.08 0.07 0.12 0.19 0.27 0.30 0.24 0.25 0.30 0.21 0.18 0.14 0.14 0.15 0.17 0.15 0.13 0.15 0.13 0.16 0.18 0.13 0.14 0.16 0.17 0.20 0.21 0.21 0.20 0.20 0.20 0.19 0.19 0.17 0.19 0.20 0.22 0.27 0.28 0.23 0.20 0.21 0.20
0.08 0.09 0.11 0.13 0.17 0.18 0.19 0.27 0.19 0.14 0.12 0.08 0.11 0.09 0.13 0.11 0.16 0.23 0.22 0.22 0.13 0.12 0.16 0.15 0.14 0.16 0.18 0.18 0.21 0.19 0.19 0.18 0.15 0.16 0.19 0.21 0.21 0.20 0.17 0.16 0.16 0.16 0.14 0.13 0.13 0.14 0.13 0.14 0.16 0.13 0.13 0.11 0.12 0.10
0.09 0.10 0.11 0.12 0.12 0.12 0.13 0.16 0.12 0.10 0.08 0.09 0.12 0.12 0.13 0.14 0.26 0.31 0.20 0.17 0.20 0.19 0.20 0.22 0.23 0.25 0.26 0.23 0.22 0.20 0.17 0.16 0.15 0.13 0.15 0.15 0.13 0.11 0.10 0.11 0.12 0.11 0.10 0.10 0.11 0.12 0.09 0.09 0.10 0.12 0.11 0.11 0.10 0.08

GFSWCAN_prec_precacc_099.txt.gz
Total_Precipitation_Accumulation
1.53 1.06 0.76 0.65 0.67 0.85 0.76 0.84 0.82 0.86 0.81 0.65 0.52 0.51 0.65 0.71 0.89 1.47 1.67 1.26 1.53 1.68 0.48 0.28 0.20 0.20 0.19 0.23 0.29 0.23 0.44 0.30 0.46 0.55 0.33 0.14 0.08 0.03 0.04 0.06 0.20 0.45 0.65 0.52 0.40 0.51 0.15 0.03 0.18 0.35 0.39 0.18 0.15 0.10
1.37 1.13 0.81 0.66 0.76 0.81 0.79 0.87 0.79 0.77 0.73 0.59 0.53 0.56 0.58 0.63 0.81 1.40 1.68 1.24 1.18 2.01 1.09 0.48 0.21 0.11 0.13 0.05 0.16 0.23 0.19 0.14 0.32 0.29 0.24 0.17 0.09 0.06 0.02 0.03 0.01 0.05 0.11 0.23 0.37 0.26 0.06 0.03 0.11 0.13 0.14 0.17 0.17 0.16
1.61 1.12 0.93 0.81 0.85 0.84 0.81 0.86 0.70 0.67 0.69 0.57 0.54 0.58 0.67 0.68 0.86 1.34 1.47 1.19 1.68 2.62 1.64 0.64 0.27 0.07 0.14 0.08 0.15 0.43 0.13 0.06 0.16 0.30 0.58 0.42 0.28 0.09 0.10 0.05 0.03 0.05 0.04 0.04 0.06 0.01 0.03 0.10 0.11 0.08 0.13 0.10 0.16 0.23
1.54 1.38 1.07 0.86 1.05 1.31 1.11 1.04 0.68 0.65 0.71 0.62 0.55 0.57 0.65 0.89 1.03 1.30 1.42 1.50 1.87 2.74 1.70 0.75 0.39 0.24 0.12 0.15 0.06 0.23 0.19 0.25 0.43 0.59 0.92 0.69 0.48 0.23 0.11 0.05 0.06 0.09 0.12 0.08 0.06 0.02 0.03 0.04 0.08 0.16 0.21 0.32 0.30 0.23
1.47 1.25 1.10 1.05 1.36 1.19 0.92 0.76 0.74 0.76 0.80 0.62 0.59 0.65 0.90 1.15 1.35 1.61 1.50 1.40 1.53 1.95 1.36 0.55 0.41 0.30 0.27 0.24 0.16 0.25 0.49 0.62 0.86 0.82 0.75 0.38 0.17 0.19 0.15 0.13 0.14 0.06 0.03 0.07 0.10 0.07 0.23 0.22 0.33 0.42 0.38 0.27 0.16 0.12
1.17 1.13 1.07 1.09 1.06 0.94 0.73 0.67 0.75 0.82 0.79 0.71 0.73 0.87 1.34 1.61 1.90 3.46 4.18 2.19 1.29 1.52 2.38 1.15 0.50 0.39 0.48 0.44 0.37 0.18 0.29 0.80 1.22 1.16 0.54 0.22 0.12 0.39 0.45 0.17 0.02 0.00 0.02 0.12 0.17 0.14 0.22 0.32 0.34 0.22 0.21 0.15 0.06 0.04
1.12 0.98 0.88 0.88 0.88 0.81 0.75 0.73 0.90 0.94 0.77 0.73 0.87 1.29 1.58 1.89 2.71 3.53 2.35 1.42 1.03 1.60 2.91 1.92 0.79 0.47 0.68 0.55 0.41 0.33 0.31 0.56 0.92 1.44 1.00 0.38 0.19 0.58 0.60 0.22 0.01 0.01 0.02 0.05 0.06 0.11 0.21 0.20 0.21 0.15 0.07 0.03 0.04 0.04
1.15 0.94 0.79 0.68 0.67 0.65 0.69 0.77 0.86 0.94 0.91 0.94 1.17 1.48 1.93 3.16 3.35 2.23 1.44 1.32 0.91 1.54 2.19 2.12 1.14 0.89 1.13 0.71 0.49 0.32 0.35 0.54 0.65 0.84 0.71 0.57 0.40 0.56 0.50 0.05 0.00 0.00 0.00 0.00 0.01 0.03 0.11 0.07 0.03 0.04 0.03 0.03 0.04 0.06
1.10 0.85 0.63 0.47 0.48 0.61 0.56 0.66 0.84 1.00 1.13 1.46 2.02 3.14 4.43 4.20 2.95 1.83 1.96 2.11 1.70 1.94 2.03 1.37 1.32 1.39 1.64 1.10 0.62 0.66 0.55 0.78 0.62 0.51 0.38 0.57 0.54 0.41 0.15 0.02 0.01 0.01 0.02 0.02 0.01 0.01 0.02 0.04 0.04 0.04 0.03 0.05 0.08 0.08
0.77 0.68 0.57 0.47 0.49 0.58 0.52 0.61 0.92 1.40 1.91 2.53 3.84 5.11 5.27 3.17 1.78 1.83 2.96 3.14 2.75 2.16 1.63 0.88 0.86 1.49 1.63 1.64 1.00 1.27 1.09 0.69 0.55 0.22 0.30 0.41 0.27 0.13 0.09 0.14 0.03 0.01 0.01 0.01 0.01 0.02 0.04 0.05 0.07 0.08 0.06 0.04 0.02 0.03
0.77 0.76 0.77 0.71 0.67 0.75 0.73 0.86 1.17 1.94 2.97 3.59 3.71 3.24 2.71 2.26 1.92 2.31 2.69 2.17 1.49 0.90 0.59 0.28 0.32 0.98 1.43 1.69 1.37 1.37 1.70 0.86 0.40 0.16 0.31 0.29 0.08 0.14 0.20 0.18 0.09 0.03 0.02 0.01 0.01 0.02 0.06 0.11 0.06 0.01 0.00 0.01 0.02 0.04
0.98 0.85 0.78 0.76 0.79 0.93 0.94 0.97 1.18 1.56 2.30 2.47 1.99 1.93 2.33 2.32 2.04 1.79 1.68 1.25 0.47 0.17 0.09 0.16 0.19 0.54 1.43 1.69 1.59 1.40 1.05 1.27 0.57 0.25 0.27 0.17 0.11 0.03 0.05 0.06 0.09 0.11 0.07 0.07 0.10 0.09 0.05 0.02 0.02 0.02 0.03 0.04 0.08 0.12
1.15 1.02 0.97 1.00 0.95 1.05 1.03 0.87 0.78 1.20 1.69 1.96 1.81 2.25 2.25 2.31 1.77 1.21 0.67 0.40 0.19 0.10 0.11 0.15 0.30 0.40 0.93 1.40 1.68 1.52 1.12 0.88 0.64 0.61 0.26 0.08 0.07 0.08 0.05 0.03 0.04 0.08 0.15 0.07 0.04 0.04 0.04 0.05 0.06 0.07 0.11 0.18 0.22 0.31
1.06 0.95 0.85 0.99 1.02 0.92 0.88 0.96 1.05 1.11 1.41 1.92 2.24 2.25 1.92 1.55 1.03 0.63 0.25 0.14 0.11 0.11 0.11 0.13 0.32 0.62 0.82 0.95 1.20 1.44 1.48 0.89 0.96 0.54 0.24 0.24 0.18 0.16 0.12 0.09 0.04 0.04 0.15 0.41 0.26 0.10 0.11 0.13 0.16 0.26 0.35 0.39 0.35 0.44
0.74 0.64 0.70 0.81 0.74 0.67 0.78 0.85 0.72 0.71 0.82 1.20 0.99 1.15 1.11 0.79 0.58 0.48 0.27 0.18 0.19 0.18 0.18 0.36 0.63 0.92 1.10 1.25 1.05 0.90 1.17 1.10 0.67 0.49 0.52 0.51 0.27 0.16 0.16 0.18 0.21 0.23 0.24 0.37 0.59 0.61 0.48 0.45 0.45 0.54 0.58 0.55 0.41 0.44
0.37 0.44 0.60 0.63 0.58 0.59 0.62 0.62 0.68 0.65 0.65 0.60 0.65 0.78 0.62 0.54 0.67 0.54 0.42 0.41 0.41 0.44 0.50 0.81 1.17 1.20 1.30 1.02 0.92 0.72 0.62 0.51 0.57 0.41 0.41 0.33 0.35 0.32 0.32 0.35 0.43 0.51 0.59 0.68 0.78 0.83 0.87 0.76 0.66 0.75 0.80 0.68 0.67 0.54
0.24 0.32 0.39 0.36 0.39 0.38 0.41 0.61 0.61 0.75 0.77 0.58 0.65 0.55 0.43 0.50 0.67 0.60 0.52 0.53 0.54 0.60 0.68 0.73 0.87 0.94 0.82 0.62 0.57 0.44 0.48 0.42 0.33 0.35 0.43 0.41 0.41 0.47 0.52 0.54 0.63 0.59 0.60 0.68 0.77 0.69 0.73 0.74 0.63 0.46 0.53 0.65 0.55 0.50
0.39 0.24 0.20 0.21 0.22 0.26 0.35 0.42 0.47 0.45 0.48 0.65 0.68 0.76 0.47 0.54 0.57 0.49 0.43 0.44 0.46 0.42 0.31 0.34 0.38 0.43 0.58 0.52 0.58 0.54 0.49 0.53 0.55 0.53 0.59 0.64 0.60 0.68 0.63 0.59 0.68 0.62 0.57 0.64 0.62 0.55 0.50 0.50 0.48 0.51 0.42 0.39 0.34 0.37
0.55 0.31 0.24 0.23 0.24 0.32 0.43 0.37 0.24 0.23 0.48 0.70 0.88 0.78 0.60 0.65 0.74 0.71 0.54 0.43 0.46 0.50 0.45 0.48 0.53 0.54 0.64 0.74 0.71 0.68 0.63 0.58 0.67 0.88 1.05 1.13 1.00 0.84 0.80 0.66 0.60 0.60 0.56 0.58 0.58 0.58 0.53 0.46 0.46 0.41 0.36 0.35 0.35 0.39
0.88 0.81 0.64 0.52 0.46 0.60 0.38 0.32 0.18 0.21 0.48 0.60 0.75 0.69 0.58 0.82 0.73 0.59 0.44 0.36 0.29 0.38 0.59 0.71 0.96 1.10 1.08 1.10 0.89 0.77 0.77 0.80 0.61 0.69 1.05 1.17 1.12 0.87 0.89 0.68 0.65 0.56 0.47 0.46 0.49 0.47 0.36 0.35 0.38 0.38 0.37 0.36 0.29 0.26
0.94 1.08 0.94 0.63 0.46 0.41 0.48 0.48 0.38 0.31 0.36 0.48 0.68 0.47 0.64 0.48 0.44 0.37 0.31 0.18 0.26 0.61 0.87 1.11 1.18 1.49 1.44 1.18 0.99 0.73 0.80 0.61 0.70 0.53 0.60 0.80 0.99 0.62 0.70 0.66 0.51 0.46 0.39 0.39 0.35 0.46 0.38 0.30 0.31 0.26 0.24 0.25 0.20 0.16
0.65 0.56 0.54 0.44 0.31 0.12 0.24 0.34 0.28 0.33 0.30 0.52 0.53 0.37 0.46 0.48 0.43 0.41 0.19 0.26 0.71 1.02 1.20 1.14 1.06 1.07 0.90 0.94 0.94 0.77 0.80 0.56 0.57 0.57 0.60 0.45 0.53 0.50 0.53 0.58 0.41 0.41 0.41 0.41 0.32 0.32 0.29 0.20 0.17 0.15 0.12 0.09 0.08 0.09
0.41 0.35 0.33 0.35 0.25 0.19 0.40 0.35 0.29 0.45 0.41 0.51 0.37 0.31 0.39 0.39 0.40 0.16 0.28 0.56 0.81 1.06 1.10 0.91 0.92 0.88 0.75 0.90 0.56 0.65 0.77 0.41 0.44 0.51 0.54 0.48 0.46 0.44 0.35 0.42 0.43 0.33 0.30 0.31 0.24 0.19 0.16 0.12 0.09 0.09 0.06 0.05 0.06 0.08
0.34 0.38 0.39 0.31 0.23 0.25 0.14 0.14 0.20 0.25 0.24 0.25 0.22 0.32 0.41 0.39 0.19 0.13 0.31 0.54 0.86 0.74 0.66 0.73 0.65 0.61 0.50 0.40 0.43 0.53 0.78 0.55 0.36 0.41 0.49 0.34 0.24 0.37 0.31 0.31 0.32 0.29 0.21 0.15 0.11 0.08 0.08 0.08 0.08 0.08 0.10 0.16 0.18 0.17
0.69 0.57 0.31 0.19 0.08 0.07 0.04 0.06 0.09 0.10 0.17 0.16 0.15 0.26 0.33 0.21 0.14 0.20 0.31 0.53 0.49 0.56 0.65 0.67 0.56 0.54 0.49 0.54 0.54 0.54 0.59 0.50 0.36 0.25 0.43 0.41 0.34 0.30 0.25 0.19 0.16 0.13 0.10 0.09 0.14 0.17 0.13 0.14 0.18 0.20 0.17 0.15 0.13 0.10
0.55 0.27 0.13 0.09 0.08 0.05 0.04 0.05 0.07 0.09 0.09 0.10 0.15 0.19 0.15 0.09 0.09 0.17 0.28 0.44 0.42 0.47 0.54 0.58 0.59 0.47 0.47 0.49 0.46 0.44 0.48 0.41 0.33 0.27 0.34 0.31 0.31 0.29 0.26 0.19 0.13 0.09 0.07 0.11 0.17 0.18 0.14 0.11 0.10 0.10 0.09 0.07 0.10 0.14
0.29 0.14 0.05 0.04 0.10 0.11 0.07 0.06 0.05 0.07 0.10 0.14 0.14 0.14 0.16 0.13 0.13 0.27 0.29 0.31 0.32 0.43 0.42 0.41 0.37 0.35 0.40 0.43 0.41 0.40 0.30 0.25 0.26 0.22 0.13 0.08 0.07 0.09 0.16 0.23 0.26 0.21 0.12 0.12 0.16 0.19 0.19 0.15 0.12 0.10 0.12 0.11 0.14 0.20
0.09 0.03 0.05 0.08 0.10 0.11 0.11 0.11 0.11 0.14 0.15 0.15 0.14 0.12 0.18 0.14 0.25 0.34 0.38 0.42 0.34 0.29 0.27 0.28 0.26 0.23 0.24 0.25 0.25 0.24 0.24 0.21 0.16 0.08 0.04 0.08 0.08 0.09 0.09 0.13 0.15 0.13 0.11 0.13 0.16 0.15 0.17 0.19 0.19 0.18 0.20 0.21 0.20 0.18
0.08 0.06 0.05 0.06 0.14 0.19 0.22 0.21 0.23 0.24 0.22 0.22 0.17 0.19 0.22 0.32 0.54 0.46 0.48 0.40 0.32 0.23 0.23 0.24 0.28 0.20 0.17 0.15 0.14 0.16 0.14 0.13 0.15 0.16 0.13 0.15 0.20 0.17 0.10 0.10 0.10 0.11 0.10 0.10 0.12 0.19 0.21 0.23 0.20 0.22 0.26 0.24 0.23 0.26
0.11 0.16 0.18 0.11 0.17 0.27 0.37 0.29 0.30 0.27 0.20 0.16 0.15 0.16 0.18 0.36 0.59 0.45 0.31 0.26 0.22 0.24 0.26 0.23 0.23 0.16 0.16 0.14 0.14 0.12 0.15 0.13 0.17 0.23 0.20 0.15 0.17 0.15 0.13 0.15 0.16 0.16 0.17 0.20 0.19 0.15 0.16 0.17 0.20 0.29 0.28 0.27 0.30 0.32
0.15 0.17 0.16 0.15 0.22 0.24 0.20 0.19 0.16 0.12 0.09 0.08 0.07 0.12 0.19 0.28 0.31 0.24 0.25 0.31 0.22 0.19 0.15 0.14 0.15 0.18 0.16 0.13 0.16 0.14 0.16 0.18 0.13 0.14 0.16 0.18 0.20 0.21 0.21 0.20 0.20 0.20 0.19 0.19 0.17 0.19 0.20 0.22 0.27 0.28 0.23 0.20 0.21 0.20
0.08 0.09 0.11 0.13 0.17 0.18 0.20 0.28 0.20 0.14 0.12 0.09 0.11 0.09 0.13 0.12 0.17 0.24 0.22 0.23 0.13 0.12 0.16 0.15 0.14 0.16 0.18 0.18 0.21 0.20 0.19 0.19 0.15 0.16 0.19 0.21 0.21 0.20 0.17 0.16 0.17 0.16 0.14 0.13 0.13 0.14 0.13 0.14 0.16 0.13 0.13 0.11 0.12 0.10
0.09 0.10 0.11 0.12 0.13 0.12 0.13 0.16 0.12 0.10 0.09 0.09 0.12 0.13 0.13 0.14 0.26 0.31 0.21 0.18 0.20 0.19 0.20 0.22 0.23 0.25 0.26 0.23 0.22 0.20 0.17 0.16 0.15 0.13 0.15 0.15 0.13 0.11 0.10 0.11 0.12 0.11 0.10 0.10 0.11 0.12 0.09 0.09 0.10 0.12 0.11 0.11 0.10 0.08

GFSWCAN_prec_precacc_105.txt.gz
Total_Precipitation_Accumulation
1.55 1.08 0.78 0.66 0.68 0.85 0.77 0.85 0.83 0.86 0.81 0.65 0.53 0.53 0.68 0.77 0.94 1.54 1.70 1.33 1.64 1.73 0.49 0.28 0.21 0.23 0.22 0.28 0.39 0.38 0.61 0.52 0.59 0.61 0.37 0.17 0.12 0.09 0.07 0.11 0.53 0.61 0.74 0.58 0.44 0.57 0.17 0.05 0.19 0.39 0.43 0.18 0.16 0.10
1.39 1.15 0.83 0.67 0.76 0.81 0.80 0.88 0.80 0.79 0.75 0.60 0.54 0.57 0.59 0.67 0.86 1.48 1.71 1.26 1.29 2.10 1.10 0.48 0.21 0.11 0.13 0.07 0.20 0.30 0.40 0.44 0.66 0.71 0.52 0.35 0.20 0.16 0.09 0.11 0.31 0.32 0.16 0.31 0.39 0.27 0.08 0.08 0.18 0.19 0.14 0.17 0.17 0.16
1.62 1.13 0.94 0.81 0.86 0.84 0.82 0.87 0.72 0.70 0.72 0.60 0.56 0.59 0.68 0.69 0.89 1.41 1.49 1.22 1.80 2.71 1.66 0.64 0.28 0.07 0.14 0.08 0.15 0.44 0.14 0.07 0.23 0.53 0.88 0.63 0.45 0.25 0.26 0.19 0.30 0.33 0.17 0.28 0.22 0.07 0.10 0.15 0.13 0.09 0.13 0.10 0.16 0.23
1.55 1.39 1.07 0.86 1.05 1.32 1.12 1.07 0.72 0.69 0.75 0.65 0.58 0.60 0.66 0.90 1.05 1.35 1.51 1.56 1.97 2.81 1.72 0.75 0.39 0.24 0.12 0.15 0.06 0.23 0.19 0.25 0.44 0.64 1.11 0.86 0.54 0.25 0.14 0.14 0.12 0.25 0.32 0.28 0.20 0.14 0.08 0.08 0.10 0.16 0.22 0.32 0.30 0.23
1.48 1.26 1.10 1.05 1.37 1.21 0.94 0.80 0.81 0.85 0.86 0.67 0.63 0.68 0.92 1.17 1.37 1.70 1.59 1.47 1.60 1.98 1.41 0.64 0.45 0.30 0.27 0.24 0.16 0.25 0.49 0.63 0.90 0.91 0.87 0.45 0.19 0.23 0.17 0.14 0.14 0.07 0.04 0.09 0.17 0.20 0.30 0.23 0.33 0.42 0.38 0.27 0.16 0.13
1.17 1.14 1.08 1.11 1.11 1.00 0.78 0.72 0.79 0.92 0.92 0.80 0.78 0.91 1.37 1.65 1.98 3.69 4.49 2.37 1.37 1.56 2.55 1.20 0.52 0.40 0.49 0.44 0.37 0.19 0.30 0.82 1.28 1.27 0.60 0.25 0.13 0.45 0.50 0.18 0.02 0.00 0.02 0.12 0.17 0.15 0.22 0.32 0.34 0.22 0.21 0.15 0.06 0.04
1.13 0.99 0.89 0.89 0.90 0.84 0.76 0.76 0.94 1.02 0.92 0.86 0.94 1.31 1.62 1.95 2.90 3.80 2.56 1.50 1.05 1.68 3.37 2.08 0.81 0.47 0.68 0.58 0.44 0.36 0.34 0.61 1.01 1.58 1.06 0.39 0.20 0.65 0.69 0.24 0.01 0.01 0.02 0.05 0.06 0.11 0.21 0.20 0.21 0.16 0.07 0.03 0.04 0.04
1.18 0.97 0.84 0.73 0.71 0.67 0.70 0.78 0.88 0.96 0.97 1.09 1.25 1.51 1.98 3.27 3.63 2.42 1.48 1.36 0.94 1.73 2.45 2.28 1.17 0.93 1.14 0.74 0.52 0.34 0.39 0.61 0.78 0.92 0.74 0.59 0.41 0.60 0.55 0.05 0.00 0.00 0.00 0.00 0.01 0.03 0.12 0.07 0.03 0.05 0.03 0.03 0.04 0.06
1.26 0.96 0.68 0.49 0.50 0.62 0.57 0.67 0.86 1.04 1.23 1.66 2.15 3.27 4.81 4.75 3.40 1.97 2.02 2.20 1.79 2.09 2.18 1.43 1.33 1.43 1.66 1.16 0.70 0.71 0.59 0.83 0.67 0.55 0.39 0.58 0.55 0.43 0.16 0.02 0.01 0.01 0.02 0.02 0.01 0.01 0.02 0.04 0.04 0.05 0.04 0.05 0.08 0.08
0.85 0.72 0.58 0.48 0.50 0.58 0.53 0.61 0.94 1.51 2.17 3.02 4.42 5.80 5.88 3.42 1.81 2.03 3.52 3.62 3.20 2.44 1.78 0.90 0.87 1.55 1.68 1.70 1.16 1.43 1.16 0.73 0.58 0.23 0.31 0.43 0.27 0.13 0.09 0.14 0.03 0.01 0.01 0.01 0.01 0.02 0.04 0.05 0.08 0.08 0.07 0.04 0.02 0.03
0.78 0.76 0.78 0.71 0.67 0.76 0.73 0.86 1.21 2.14 3.55 4.26 4.19 3.46 2.83 2.31 2.01 2.60 3.01 2.41 1.69 1.01 0.61 0.29 0.32 1.03 1.48 1.73 1.41 1.42 1.72 0.90 0.43 0.17 0.34 0.31 0.11 0.16 0.20 0.18 0.09 0.03 0.02 0.01 0.01 0.02 0.06 0.11 0.06 0.01 0.00 0.01 0.02 0.04
0.99 0.87 0.79 0.77 0.79 0.94 0.95 0.99 1.25 1.70 2.58 2.60 2.07 2.06 2.43 2.44 2.24 1.96 1.80 1.29 0.50 0.17 0.10 0.16 0.21 0.59 1.49 1.76 1.66 1.44 1.07 1.28 0.59 0.33 0.35 0.20 0.13 0.03 0.05 0.06 0.09 0.11 0.07 0.07 0.10 0.09 0.05 0.02 0.02 0.02 0.03 0.04 0.08 0.12
1.19 1.05 1.00 1.05 0.98 1.09 1.11 1.02 0.82 1.24 1.74 1.99 1.85 2.32 2.33 2.41 1.84 1.26 0.72 0.42 0.20 0.11 0.11 0.16 0.33 0.41 0.94 1.43 1.71 1.54 1.16 0.90 0.68 0.67 0.34 0.12 0.08 0.08 0.05 0.03 0.04 0.08 0.15 0.07 0.04 0.04 0.04 0.05 0.06 0.07 0.11 0.18 0.23 0.32
1.16 1.01 0.90 1.09 1.17 1.13 1.16 1.11 1.16 1.51 1.70 2.10 2.39 2.35 1.98 1.57 1.07 0.65 0.26 0.14 0.12 0.12 0.11 0.14 0.34 0.67 0.87 0.96 1.20 1.44 1.49 0.92 0.98 0.55 0.28 0.27 0.19 0.16 0.13 0.09 0.04 0.04 0.15 0.41 0.26 0.10 0.11 0.13 0.18 0.28 0.37 0.41 0.36 0.46
0.79 0.71 0.87 1.10 1.10 1.04 1.05 0.95 1.01 0.90 0.87 1.23 0.99 1.15 1.11 0.80 0.59 0.49 0.27 0.18 0.19 0.18 0.19 0.38 0.65 0.95 1.12 1.26 1.06 0.91 1.20 1.13 0.72 0.53 0.56 0.54 0.27 0.17 0.16 0.18 0.21 0.23 0.25 0.37 0.59 0.61 0.49 0.46 0.47 0.57 0.61 0.59 0.43 0.47
0.40 0.50 0.85 0.94 0.85 0.76 0.72 0.74 0.72 0.65 0.65 0.60 0.67 0.79 0.64 0.56 0.69 0.55 0.43 0.43 0.42 0.44 0.51 0.82 1.19 1.21 1.32 1.04 0.97 0.75 0.66 0.56 0.62 0.45 0.44 0.33 0.35 0.33 0.33 0.35 0.43 0.51 0.59 0.69 0.79 0.84 0.88 0.77 0.68 0.78 0.84 0.71 0.71 0.58
0.26 0.43 0.55 0.47 0.46 0.41 0.45 0.61 0.62 0.75 0.77 0.59 0.66 0.58 0.47 0.53 0.70 0.62 0.54 0.55 0.55 0.62 0.70 0.77 0.98 1.00 0.87 0.67 0.63 0.47 0.53 0.46 0.35 0.37 0.44 0.42 0.42 0.48 0.53 0.54 0.63 0.60 0.60 0.68 0.77 0.69 0.75 0.77 0.65 0.48 0.57 0.71 0.61 0.56
0.43 0.27 0.24 0.25 0.23 0.26 0.35 0.42 0.47 0.45 0.49 0.67 0.70 0.78 0.48 0.56 0.60 0.51 0.45 0.46 0.50 0.47 0.35 0.37 0.41 0.47 0.63 0.59 0.63 0.61 0.53 0.57 0.58 0.54 0.60 0.65 0.60 0.69 0.64 0.60 0.70 0.63 0.58 0.65 0.62 0.57 0.52 0.52 0.49 0.54 0.47 0.45 0.41 0.46
0.55 0.32 0.24 0.25 0.25 0.32 0.43 0.37 0.24 0.24 0.50 0.72 0.91 0.81 0.62 0.67 0.76 0.73 0.56 0.45 0.48 0.50 0.46 0.49 0.54 0.56 0.67 0.77 0.74 0.70 0.66 0.60 0.69 0.90 1.06 1.14 1.00 0.85 0.82 0.68 0.61 0.62 0.59 0.61 0.61 0.60 0.56 0.48 0.48 0.45 0.41 0.40 0.41 0.47
0.91 0.87 0.65 0.55 0.47 0.60 0.38 0.32 0.18 0.21 0.49 0.61 0.77 0.71 0.59 0.84 0.76 0.61 0.45 0.37 0.30 0.39 0.62 0.74 1.00 1.14 1.11 1.12 0.92 0.80 0.83 0.83 0.66 0.76 1.15 1.20 1.13 0.87 0.91 0.70 0.66 0.57 0.48 0.47 0.50 0.48 0.38 0.39 0.42 0.42 0.41 0.41 0.34 0.34
0.94 1.09 0.94 0.63 0.46 0.41 0.48 0.48 0.39 0.32 0.38 0.50 0.70 0.47 0.66 0.49 0.44 0.38 0.31 0.19 0.27 0.63 0.91 1.15 1.22 1.53 1.48 1.22 1.03 0.77 0.83 0.63 0.74 0.56 0.65 0.86 1.00 0.62 0.71 0.68 0.54 0.49 0.42 0.42 0.39 0.50 0.41 0.34 0.36 0.31 0.29 0.32 0.28 0.22
0.65 0.56 0.54 0.44 0.31 0.12 0.24 0.34 0.28 0.34 0.31 0.54 0.55 0.38 0.48 0.50 0.44 0.43 0.20 0.27 0.75 1.08 1.26 1.21 1.12 1.13 0.96 0.98 0.98 0.79 0.82 0.59 0.59 0.59 0.62 0.48 0.60 0.55 0.57 0.61 0.44 0.46 0.46 0.46 0.35 0.36 0.34 0.26 0.22 0.21 0.18 0.16 0.14 0.13
0.41 0.35 0.33 0.35 0.25 0.19 0.42 0.40 0.32 0.49 0.43 0.53 0.38 0.31 0.40 0.41 0.43 0.18 0.32 0.62 0.89 1.14 1.18 0.98 0.98 0.93 0.79 0.94 0.58 0.66 0.78 0.43 0.46 0.54 0.56 0.50 0.49 0.48 0.40 0.49 0.48 0.39 0.37 0.39 0.31 0.26 0.23 0.19 0.16 0.14 0.12 0.09 0.09 0.11
0.34 0.38 0.39 0.31 0.23 0.25 0.14 0.14 0.21 0.27 0.26 0.27 0.24 0.34 0.44 0.42 0.22 0.15 0.36 0.61 0.94 0.78 0.68 0.78 0.67 0.69 0.55 0.42 0.45 0.54 0.80 0.58 0.38 0.44 0.53 0.36 0.27 0.42 0.36 0.37 0.38 0.36 0.28 0.22 0.19 0.16 0.14 0.13 0.11 0.10 0.12 0.17 0.19 0.17
0.69 0.57 0.31 0.19 0.08 0.07 0.05 0.06 0.10 0.11 0.20 0.16 0.15 0.28 0.35 0.24 0.15 0.23 0.34 0.59 0.53 0.59 0.68 0.70 0.60 0.55 0.51 0.56 0.56 0.55 0.61 0.52 0.37 0.27 0.49 0.46 0.38 0.34 0.30 0.25 0.22 0.21 0.16 0.15 0.19 0.21 0.17 0.15 0.18 0.20 0.17 0.15 0.13 0.10
0.55 0.27 0.13 0.09 0.09 0.06 0.04 0.06 0.08 0.09 0.09 0.11 0.16 0.20 0.15 0.09 0.09 0.19 0.30 0.47 0.44 0.49 0.57 0.61 0.62 0.50 0.49 0.51 0.48 0.47 0.50 0.44 0.34 0.29 0.38 0.36 0.38 0.34 0.31 0.24 0.16 0.12 0.10 0.12 0.18 0.18 0.14 0.11 0.10 0.10 0.09 0.07 0.10 0.14
0.29 0.14 0.05 0.04 0.10 0.11 0.07 0.06 0.05 0.07 0.10 0.14 0.15 0.15 0.16 0.13 0.14 0.30 0.31 0.32 0.34 0.45 0.43 0.42 0.38 0.37 0.42 0.46 0.44 0.44 0.32 0.27 0.28 0.25 0.18 0.12 0.10 0.12 0.19 0.28 0.31 0.26 0.13 0.12 0.16 0.19 0.19 0.15 0.12 0.10 0.12 0.11 0.14 0.20
0.09 0.03 0.05 0.08 0.10 0.11 0.11 0.11 0.11 0.15 0.16 0.16 0.14 0.12 0.19 0.15 0.28 0.36 0.40 0.44 0.37 0.33 0.29 0.30 0.28 0.24 0.25 0.27 0.28 0.27 0.28 0.25 0.18 0.11 0.06 0.10 0.11 0.11 0.11 0.15 0.16 0.14 0.12 0.14 0.16 0.15 0.17 0.19 0.19 0.18 0.20 0.21 0.20 0.18
0.08 0.06 0.05 0.06 0.14 0.19 0.22 0.21 0.24 0.25 0.22 0.23 0.18 0.20 0.23 0.35 0.59 0.49 0.51 0.42 0.33 0.24 0.24 0.25 0.32 0.24 0.18 0.16 0.16 0.18 0.16 0.16 0.20 0.19 0.16 0.18 0.23 0.21 0.14 0.13 0.11 0.11 0.10 0.10 0.12 0.19 0.21 0.23 0.20 0.22 0.26 0.24 0.23 0.26
0.11 0.16 0.18 0.11 0.18 0.28 0.40 0.31 0.32 0.29 0.20 0.16 0.15 0.17 0.19 0.38 0.61 0.46 0.33 0.28 0.24 0.26 0.27 0.24 0.25 0.17 0.18 0.16 0.15 0.13 0.16 0.15 0.19 0.27 0.23 0.19 0.21 0.19 0.15 0.16 0.17 0.17 0.17 0.20 0.19 0.15 0.16 0.17 0.20 0.29 0.28 0.27 0.31 0.32
0.15 0.17 0.16 0.15 0.23 0.26 0.22 0.20 0.18 0.13 0.10 0.09 0.07 0.12 0.20 0.29 0.32 0.25 0.27 0.33 0.23 0.21 0.16 0.15 0.16 0.19 0.16 0.14 0.17 0.15 0.18 0.20 0.14 0.15 0.18 0.19 0.21 0.21 0.22 0.21 0.21 0.20 0.20 0.20 0.17 0.19 0.20 0.22 0.28 0.28 0.23 0.20 0.21 0.20
0.08 0.09 0.11 0.14 0.19 0.19 0.23 0.32 0.21 0.16 0.14 0.09 0.12 0.10 0.15 0.13 0.18 0.25 0.22 0.26 0.14 0.13 0.17 0.16 0.14 0.16 0.19 0.19 0.21 0.20 0.20 0.19 0.15 0.16 0.19 0.21 0.22 0.20 0.18 0.16 0.17 0.16 0.14 0.13 0.13 0.14 0.13 0.14 0.16 0.13 0.13 0.11 0.12 0.10
0.09 0.10 0.11 0.12 0.13 0.13 0.14 0.17 0.13 0.11 0.09 0.10 0.13 0.14 0.14 0.15 0.27 0.33 0.22 0.18 0.21 0.20 0.20 0.22 0.23 0.25 0.27 0.23 0.22 0.20 0.17 0.16 0.15 0.13 0.15 0.15 0.13 0.11 0.11 0.11 0.12 0.11 0.10 0.11 0.11 0.12 0.09 0.09 0.10 0.12 0.11 0.11 0.10 0.08

GFSWCAN_prec_precacc_108.txt.gz
Total_Precipitation_Accumulation
1.55 1.09 0.78 0.67 0.69 0.86 0.77 0.85 0.83 0.86 0.82 0.66 0.54 0.56 0.70 0.80 0.99 1.56 1.70 1.33 1.66 1.76 0.49 0.28 0.21 0.23 0.22 0.28 0.39 0.39 0.62 0.59 0.65 0.63 0.39 0.18 0.13 0.10 0.07 0.11 0.57 0.77 0.84 0.59 0.44 0.58 0.17 0.05 0.22 0.45 0.46 0.19 0.16 0.10
1.40 1.16 0.84 0.68 0.77 0.82 0.80 0.89 0.81 0.79 0.75 0.60 0.54 0.57 0.60 0.67 0.88 1.53 1.71 1.26 1.31 2.14 1.12 0.48 0.21 0.11 0.13 0.07 0.20 0.30 0.42 0.50 0.84 0.93 0.74 0.47 0.25 0.20 0.12 0.18 0.54 0.64 0.21 0.32 0.39 0.27 0.08 0.09 0.24 0.30 0.15 0.17 0.17 0.16
1.62 1.14 0.95 0.81 0.87 0.85 0.83 0.88 0.73 0.71 0.73 0.60 0.56 0.60 0.68 0.69 0.89 1.45 1.49 1.22 1.81 2.73 1.67 0.64 0.28 0.07 0.14 0.08 0.15 0.44 0.14 0.08 0.23 0.53 0.89 0.64 0.49 0.30 0.27 0.25 0.43 0.55 0.33 0.37 0.28 0.08 0.11 0.16 0.14 0.14 0.14 0.10 0.16 0.23
1.56 1.39 1.08 0.87 1.06 1.32 1.12 1.07 0.72 0.69 0.75 0.65 0.58 0.61 0.67 0.91 1.06 1.39 1.52 1.56 1.97 2.84 1.75 0.75 0.39 0.24 0.12 0.15 0.06 0.23 0.19 0.25 0.44 0.64 1.11 0.86 0.54 0.26 0.14 0.14 0.16 0.38 0.48 0.53 0.54 0.65 0.33 0.16 0.14 0.16 0.22 0.32 0.30 0.24
1.49 1.27 1.11 1.06 1.37 1.21 0.94 0.80 0.81 0.85 0.87 0.68 0.64 0.69 0.94 1.19 1.40 1.73 1.61 1.48 1.60 1.99 1.42 0.64 0.45 0.30 0.27 0.24 0.16 0.25 0.49 0.63 0.90 0.92 0.89 0.46 0.19 0.23 0.17 0.14 0.15 0.10 0.13 0.22 0.43 0.32 0.40 0.26 0.33 0.42 0.38 0.27 0.17 0.14
1.18 1.15 1.08 1.12 1.11 1.00 0.78 0.72 0.79 0.93 0.92 0.81 0.80 0.93 1.40 1.68 2.03 3.73 4.53 2.38 1.38 1.57 2.60 1.22 0.52 0.40 0.49 0.44 0.37 0.19 0.30 0.82 1.28 1.28 0.62 0.25 0.14 0.46 0.54 0.19 0.02 0.01 0.02 0.12 0.18 0.15 0.23 0.33 0.34 0.22 0.21 0.15 0.07 0.04
1.14 0.99 0.89 0.89 0.91 0.84 0.77 0.76 0.94 1.04 0.95 0.92 1.01 1.37 1.67 2.01 2.93 3.82 2.58 1.50 1.05 1.69 3.44 2.10 0.81 0.47 0.69 0.58 0.44 0.36 0.34 0.61 1.01 1.59 1.07 0.39 0.20 0.66 0.70 0.24 0.02 0.01 0.02 0.05 0.06 0.11 0.21 0.21 0.21 0.16 0.07 0.03 0.04 0.04
1.18 0.97 0.84 0.74 0.72 0.68 0.70 0.78 0.88 0.97 1.03 1.23 1.39 1.60 2.03 3.34 3.67 2.43 1.49 1.38 0.94 1.73 2.46 2.29 1.17 0.93 1.14 0.74 0.52 0.34 0.40 0.65 0.82 0.94 0.75 0.59 0.41 0.61 0.55 0.05 0.00 0.00 0.00 0.00 0.01 0.04 0.12 0.07 0.03 0.06 0.05 0.03 0.04 0.06
1.27 0.98 0.72 0.53 0.52 0.64 0.59 0.69 0.87 1.06 1.26 1.80 2.37 3.41 4.98 4.97 3.51 1.97 2.03 2.28 1.84 2.11 2.18 1.43 1.33 1.43 1.66 1.17 0.71 0.75 0.61 0.88 0.69 0.56 0.39 0.58 0.56 0.45 0.16 0.02 0.01 0.01 0.02 0.02 0.01 0.01 0.02 0.04 0.04 0.05 0.04 0.05 0.08 0.08
0.89 0.79 0.67 0.55 0.57 0.62 0.56 0.63 0.95 1.54 2.28 3.32 4.75 6.05 6.05 3.49 1.82 2.03 3.56 3.71 3.37 2.64 1.84 0.91 0.87 1.55 1.68 1.71 1.21 1.61 1.21 0.73 0.59 0.23 0.31 0.44 0.28 0.14 0.10 0.14 0.03 0.01 0.01 0.01 0.01 0.02 0.04 0.05 0.08 0.08 0.07 0.04 0.02 0.03
0.86 0.85 0.88 0.77 0.74 0.79 0.75 0.87 1.25 2.35 3.89 4.52 4.32 3.50 2.84 2.32 2.02 2.67 3.14 2.48 1.72 1.07 0.62 0.29 0.32 1.03 1.48 1.73 1.43 1.45 1.73 0.91 0.43 0.17 0.34 0.32 0.14 0.18 0.20 0.18 0.09 0.03 0.02 0.01 0.01 0.02 0.06 0.11 0.06 0.01 0.00 0.01 0.02 0.04
1.04 0.90 0.81 0.78 0.80 0.94 0.96 1.02 1.32 1.88 2.69 2.62 2.08 2.10 2.45 2.46 2.29 2.05 1.89 1.32 0.51 0.17 0.10 0.16 0.21 0.59 1.50 1.77 1.66 1.45 1.07 1.28 0.59 0.34 0.37 0.22 0.15 0.04 0.05 0.06 0.09 0.11 0.07 0.07 0.10 0.09 0.05 0.02 0.02 0.02 0.03 0.04 0.08 0.13
1.20 1.06 1.01 1.06 0.99 1.11 1.14 1.04 0.84 1.27 1.75 2.01 1.90 2.34 2.34 2.43 1.89 1.30 0.77 0.43 0.20 0.11 0.11 0.16 0.33 0.41 0.94 1.43 1.72 1.55 1.16 0.90 0.68 0.67 0.35 0.14 0.09 0.08 0.05 0.03 0.04 0.08 0.15 0.07 0.04 0.04 0.04 0.05 0.06 0.07 0.11 0.19 0.24 0.33
1.17 1.01 0.90 1.10 1.19 1.17 1.20 1.13 1.23 1.66 1.75 2.18 2.49 2.39 1.99 1.57 1.08 0.65 0.26 0.14 0.12 0.12 0.11 0.14 0.34 0.67 0.87 0.96 1.20 1.44 1.49 0.93 0.99 0.56 0.28 0.28 0.19 0.16 0.13 0.09 0.04 0.04 0.15 0.42 0.26 0.10 0.11 0.14 0.18 0.28 0.37 0.42 0.37 0.47
0.80 0.74 0.91 1.15 1.16 1.15 1.13 1.02 1.17 0.98 0.91 1.31 1.01 1.15 1.12 0.80 0.59 0.49 0.27 0.18 0.19 0.18 0.19 0.38 0.65 0.95 1.12 1.26 1.06 0.91 1.20 1.14 0.73 0.54 0.57 0.54 0.27 0.17 0.16 0.18 0.21 0.23 0.25 0.37 0.59 0.61 0.49 0.46 0.47 0.57 0.62 0.60 0.44 0.48
0.44 0.68 1.01 1.12 1.06 0.99 0.86 0.82 0.78 0.66 0.66 0.60 0.67 0.80 0.65 0.56 0.70 0.56 0.43 0.43 0.42 0.44 0.51 0.82 1.19 1.21 1.32 1.04 0.97 0.75 0.67 0.57 0.63 0.46 0.44 0.33 0.35 0.33 0.33 0.35 0.44 0.51 0.59 0.69 0.79 0.84 0.88 0.78 0.68 0.78 0.84 0.72 0.73 0.59
0.29 0.62 0.69 0.58 0.56 0.47 0.46 0.67 0.65 0.76 0.78 0.59 0.67 0.60 0.47 0.53 0.72 0.64 0.55 0.56 0.55 0.62 0.70 0.77 0.98 1.00 0.88 0.69 0.66 0.49 0.55 0.47 0.35 0.37 0.44 0.42 0.42 0.48 0.53 0.54 0.63 0.60 0.60 0.68 0.77 0.70 0.75 0.77 0.65 0.48 0.58 0.73 0.63 0.58
0.45 0.33 0.27 0.28 0.26 0.28 0.38 0.43 0.47 0.45 0.49 0.67 0.71 0.79 0.49 0.57 0.61 0.52 0.46 0.48 0.51 0.49 0.36 0.38 0.42 0.47 0.64 0.61 0.64 0.62 0.56 0.59 0.59 0.54 0.60 0.65 0.61 0.69 0.64 0.60 0.70 0.63 0.58 0.65 0.62 0.57 0.52 0.52 0.50 0.55 0.48 0.47 0.43 0.48
0.57 0.34 0.26 0.26 0.25 0.32 0.46 0.38 0.24 0.24 0.51 0.72 0.92 0.81 0.62 0.67 0.77 0.74 0.57 0.47 0.49 0.51 0.46 0.49 0.54 0.56 0.68 0.78 0.75 0.71 0.67 0.60 0.69 0.91 1.07 1.14 1.00 0.85 0.82 0.68 0.61 0.62 0.59 0.62 0.61 0.61 0.56 0.48 0.48 0.46 0.43 0.42 0.43 0.50
0.95 0.92 0.66 0.56 0.47 0.60 0.38 0.32 0.18 0.21 0.49 0.62 0.78 0.72 0.60 0.85 0.76 0.61 0.45 0.37 0.30 0.39 0.63 0.75 1.01 1.14 1.11 1.13 0.93 0.81 0.84 0.84 0.66 0.77 1.17 1.20 1.13 0.87 0.91 0.70 0.66 0.57 0.48 0.47 0.50 0.48 0.39 0.39 0.43 0.42 0.42 0.42 0.36 0.38
0.98 1.12 0.94 0.63 0.46 0.41 0.48 0.48 0.39 0.32 0.38 0.50 0.70 0.47 0.66 0.49 0.44 0.38 0.31 0.19 0.27 0.64 0.92 1.16 1.23 1.54 1.49 1.23 1.03 0.78 0.84 0.64 0.75 0.56 0.67 0.89 1.01 0.62 0.71 0.69 0.56 0.49 0.42 0.42 0.39 0.51 0.41 0.34 0.37 0.31 0.30 0.33 0.30 0.24
0.65 0.56 0.54 0.44 0.31 0.12 0.25 0.34 0.28 0.34 0.31 0.55 0.56 0.38 0.48 0.50 0.45 0.43 0.20 0.27 0.75 1.10 1.28 1.23 1.13 1.14 0.97 0.99 0.99 0.81 0.84 0.61 0.59 0.60 0.62 0.49 0.62 0.56 0.58 0.62 0.44 0.47 0.47 0.47 0.36 0.37 0.35 0.27 0.23 0.22 0.19 0.18 0.16 0.16
0.41 0.35 0.33 0.35 0.25 0.19 0.42 0.44 0.33 0.49 0.43 0.53 0.38 0.31 0.40 0.41 0.43 0.18 0.32 0.62 0.91 1.17 1.21 1.02 1.01 0.96 0.81 0.95 0.59 0.67 0.78 0.43 0.46 0.54 0.56 0.51 0.49 0.48 0.40 0.49 0.49 0.41 0.39 0.42 0.33 0.27 0.25 0.21 0.18 0.16 0.13 0.10 0.11 0.13
0.34 0.38 0.39 0.31 0.23 0.25 0.15 0.14 0.21 0.27 0.27 0.27 0.24 0.35 0.45 0.43 0.23 0.16 0.38 0.63 0.97 0.81 0.70 0.80 0.70 0.72 0.56 0.42 0.45 0.55 0.81 0.58 0.38 0.45 0.53 0.36 0.27 0.43 0.36 0.37 0.39 0.38 0.29 0.24 0.20 0.18 0.16 0.15 0.13 0.12 0.13 0.19 0.21 0.19
0.69 0.57 0.31 0.19 0.08 0.07 0.05 0.07 0.10 0.11 0.21 0.17 0.16 0.29 0.38 0.26 0.16 0.24 0.36 0.62 0.55 0.60 0.69 0.72 0.61 0.56 0.52 0.57 0.57 0.56 0.62 0.53 0.38 0.27 0.50 0.47 0.39 0.35 0.31 0.26 0.24 0.23 0.18 0.16 0.20 0.23 0.19 0.17 0.20 0.21 0.18 0.15 0.13 0.10
0.55 0.27 0.13 0.09 0.09 0.06 0.04 0.06 0.08 0.09 0.09 0.11 0.16 0.20 0.15 0.09 0.09 0.19 0.31 0.48 0.45 0.49 0.57 0.61 0.63 0.50 0.49 0.52 0.48 0.47 0.51 0.44 0.34 0.29 0.39 0.38 0.39 0.35 0.32 0.25 0.18 0.16 0.12 0.13 0.19 0.19 0.15 0.11 0.10 0.10 0.09 0.07 0.10 0.14
0.29 0.14 0.05 0.04 0.10 0.11 0.07 0.06 0.05 0.07 0.10 0.15 0.15 0.15 0.16 0.14 0.14 0.31 0.31 0.32 0.34 0.46 0.43 0.42 0.38 0.37 0.43 0.47 0.45 0.45 0.33 0.27 0.28 0.26 0.19 0.13 0.11 0.13 0.19 0.28 0.32 0.29 0.15 0.12 0.16 0.19 0.19 0.15 0.12 0.10 0.12 0.11 0.14 0.20
0.09 0.03 0.06 0.08 0.10 0.11 0.11 0.11 0.11 0.15 0.16 0.16 0.15 0.13 0.19 0.15 0.29 0.38 0.41 0.45 0.39 0.34 0.30 0.31 0.28 0.24 0.26 0.27 0.29 0.28 0.29 0.26 0.19 0.12 0.07 0.11 0.12 0.12 0.12 0.16 0.18 0.15 0.13 0.14 0.16 0.15 0.17 0.19 0.19 0.18 0.20 0.21 0.20 0.18
0.08 0.06 0.05 0.06 0.14 0.19 0.22 0.21 0.24 0.25 0.22 0.24 0.18 0.20 0.24 0.37 0.61 0.51 0.52 0.42 0.33 0.24 0.24 0.26 0.34 0.24 0.19 0.16 0.16 0.19 0.17 0.18 0.22 0.20 0.16 0.19 0.24 0.23 0.16 0.14 0.12 0.11 0.11 0.11 0.13 0.19 0.21 0.23 0.20 0.22 0.26 0.24 0.23 0.26
0.11 0.16 0.18 0.11 0.18 0.29 0.41 0.31 0.32 0.29 0.20 0.16 0.15 0.17 0.19 0.40 0.62 0.47 0.33 0.28 0.24 0.26 0.27 0.24 0.25 0.17 0.18 0.16 0.16 0.14 0.17 0.15 0.20 0.28 0.24 0.20 0.23 0.21 0.16 0.18 0.18 0.17 0.17 0.20 0.19 0.15 0.16 0.17 0.20 0.29 0.28 0.27 0.31 0.32
0.15 0.17 0.16 0.15 0.24 0.26 0.23 0.20 0.18 0.13 0.10 0.09 0.07 0.12 0.20 0.30 0.33 0.25 0.27 0.34 0.23 0.21 0.16 0.15 0.16 0.19 0.16 0.14 0.17 0.15 0.18 0.20 0.14 0.16 0.19 0.20 0.22 0.22 0.23 0.21 0.22 0.21 0.20 0.20 0.18 0.19 0.20 0.22 0.28 0.28 0.23 0.20 0.21 0.20
0.08 0.09 0.11 0.14 0.20 0.20 0.24 0.32 0.21 0.16 0.14 0.10 0.12 0.11 0.16 0.14 0.18 0.25 0.23 0.26 0.14 0.13 0.17 0.16 0.15 0.16 0.19 0.19 0.21 0.20 0.20 0.19 0.15 0.16 0.19 0.21 0.22 0.21 0.18 0.16 0.17 0.16 0.14 0.13 0.13 0.14 0.13 0.15 0.16 0.13 0.13 0.11 0.12 0.11
0.09 0.10 0.11 0.12 0.13 0.13 0.15 0.17 0.13 0.11 0.10 0.10 0.13 0.14 0.15 0.15 0.28 0.33 0.22 0.18 0.21 0.20 0.21 0.22 0.23 0.25 0.27 0.23 0.22 0.20 0.17 0.16 0.15 0.13 0.15 0.15 0.13 0.11 0.11 0.11 0.12 0.11 0.10 0.11 0.11 0.12 0.09 0.09 0.10 0.12 0.11 0.11 0.10 0.08

GFSWCAN_prec_precacc_111.txt.gz
Total_Precipitation_Accumulation
1.56 1.09 0.78 0.68 0.69 0.86 0.77 0.85 0.84 0.87 0.82 0.66 0.55 0.57 0.75 0.83 1.02 1.57 1.70 1.33 1.67 1.79 0.50 0.28 0.21 0.23 0.22 0.28 0.39 0.39 0.62 0.59 0.69 0.71 0.41 0.20 0.19 0.13 0.09 0.12 0.65 0.95 1.07 0.67 0.47 0.58 0.17 0.05 0.24 0.50 0.51 0.20 0.17 0.12
1.41 1.17 0.85 0.69 0.78 0.83 0.81 0.90 0.81 0.80 0.75 0.60 0.54 0.58 0.62 0.69 0.92 1.56 1.71 1.26 1.31 2.15 1.12 0.48 0.21 0.11 0.13 0.07 0.20 0.30 0.42 0.50 0.88 1.01 0.79 0.50 0.29 0.27 0.14 0.21 0.61 0.81 0.42 0.39 0.40 0.27 0.08 0.10 0.27 0.37 0.20 0.17 0.17 0.16
1.64 1.14 0.95 0.82 0.87 0.85 0.83 0.89 0.74 0.72 0.74 0.61 0.57 0.60 0.69 0.69 0.91 1.48 1.49 1.22 1.85 2.76 1.67 0.64 0.28 0.07 0.14 0.08 0.15 0.44 0.14 0.08 0.23 0.53 0.89 0.64 0.49 0.31 0.27 0.26 0.46 0.69 0.50 0.56 0.30 0.09 0.11 0.17 0.17 0.20 0.16 0.11 0.16 0.23
1.57 1.40 1.09 0.88 1.06 1.33 1.13 1.08 0.73 0.70 0.75 0.65 0.59 0.61 0.68 0.93 1.07 1.41 1.52 1.56 1.98 2.85 1.76 0.75 0.39 0.24 0.12 0.15 0.06 0.23 0.19 0.25 0.45 0.64 1.11 0.87 0.54 0.26 0.15 0.14 0.17 0.60 0.65 0.69 0.66 0.83 0.44 0.18 0.16 0.17 0.22 0.32 0.30 0.24
1.50 1.28 1.12 1.07 1.38 1.22 0.95 0.81 0.82 0.85 0.87 0.68 0.64 0.69 0.94 1.22 1.44 1.77 1.63 1.48 1.60 2.00 1.42 0.64 0.45 0.30 0.27 0.24 0.16 0.25 0.49 0.63 0.90 0.93 0.91 0.47 0.19 0.23 0.17 0.14 0.17 0.18 0.17 0.29 0.57 0.47 0.64 0.32 0.34 0.42 0.38 0.27 0.18 0.14
1.20 1.16 1.09 1.13 1.11 1.01 0.78 0.72 0.80 0.93 0.93 0.82 0.80 0.93 1.41 1.71 2.08 3.80 4.59 2.39 1.38 1.57 2.64 1.23 0.52 0.40 0.49 0.44 0.37 0.19 0.30 0.82 1.28 1.28 0.62 0.26 0.14 0.48 0.56 0.20 0.03 0.01 0.02 0.12 0.18 0.16 0.25 0.34 0.36 0.23 0.22 0.16 0.07 0.04
1.16 1.01 0.90 0.90 0.91 0.85 0.77 0.76 0.94 1.04 0.95 0.92 1.02 1.38 1.68 2.04 3.03 3.96 2.61 1.50 1.05 1.69 3.48 2.11 0.81 0.47 0.69 0.58 0.44 0.36 0.34 0.61 1.01 1.60 1.08 0.39 0.20 0.68 0.72 0.24 0.02 0.01 0.02 0.05 0.07 0.12 0.22 0.23 0.22 0.17 0.09 0.07 0.04 0.04
1.20 0.99 0.86 0.75 0.72 0.68 0.71 0.78 0.89 0.98 1.04 1.25 1.43 1.68 2.08 3.41 3.88 2.52 1.50 1.39 0.94 1.73 2.46 2.29 1.17 0.93 1.14 0.74 0.52 0.34 0.41 0.68 0.84 0.95 0.76 0.60 0.42 0.63 0.58 0.07 0.00 0.00 0.00 0.00 0.02 0.05 0.12 0.07 0.04 0.07 0.06 0.06 0.04 0.06
1.28 1.00 0.73 0.53 0.52 0.65 0.60 0.69 0.88 1.07 1.28 1.89 2.56 3.64 5.21 5.22 3.75 2.00 2.05 2.33 1.85 2.12 2.19 1.43 1.34 1.43 1.66 1.18 0.72 0.81 0.67 0.92 0.72 0.59 0.40 0.60 0.57 0.49 0.20 0.02 0.01 0.01 0.02 0.02 0.01 0.01 0.02 0.04 0.04 0.05 0.04 0.05 0.08 0.08
0.90 0.79 0.68 0.56 0.58 0.64 0.58 0.66 0.99 1.57 2.38 3.64 5.23 6.40 6.27 3.59 1.83 2.04 3.60 3.95 3.64 2.69 1.87 0.93 0.87 1.55 1.69 1.72 1.22 1.71 1.37 0.74 0.61 0.24 0.31 0.45 0.31 0.17 0.11 0.14 0.03 0.01 0.01 0.01 0.01 0.02 0.04 0.05 0.08 0.08 0.07 0.04 0.02 0.03
0.88 0.87 0.91 0.81 0.79 0.85 0.78 0.93 1.35 2.50 4.23 5.01 4.54 3.56 2.86 2.32 2.04 2.70 3.15 2.49 1.77 1.11 0.63 0.29 0.32 1.03 1.48 1.73 1.43 1.47 1.76 0.92 0.43 0.17 0.34 0.33 0.18 0.20 0.21 0.18 0.09 0.03 0.02 0.01 0.01 0.02 0.06 0.11 0.06 0.01 0.00 0.01 0.02 0.04
1.08 0.95 0.89 0.85 0.91 1.04 1.02 1.09 1.44 2.06 2.84 2.70 2.09 2.13 2.50 2.48 2.34 2.08 1.95 1.34 0.51 0.17 0.10 0.16 0.21 0.59 1.50 1.77 1.66 1.45 1.07 1.28 0.59 0.35 0.42 0.25 0.17 0.04 0.05 0.06 0.09 0.11 0.07 0.07 0.10 0.09 0.05 0.02 0.02 0.02 0.03 0.04 0.08 0.13
1.25 1.11 1.08 1.12 1.05 1.19 1.21 1.11 0.88 1.33 1.78 2.03 1.96 2.44 2.37 2.45 1.92 1.32 0.81 0.44 0.20 0.11 0.11 0.16 0.33 0.41 0.95 1.43 1.72 1.55 1.16 0.90 0.68 0.68 0.35 0.15 0.10 0.08 0.05 0.03 0.04 0.08 0.15 0.07 0.04 0.04 0.04 0.05 0.06 0.07 0.11 0.19 0.25 0.34
1.21 1.05 0.94 1.14 1.22 1.23 1.28 1.15 1.27 1.84 1.80 2.24 2.55 2.45 2.00 1.58 1.09 0.65 0.26 0.14 0.12 0.12 0.11 0.14 0.34 0.67 0.87 0.96 1.20 1.44 1.49 0.93 0.99 0.56 0.29 0.29 0.19 0.16 0.13 0.09 0.04 0.04 0.15 0.42 0.26 0.10 0.11 0.14 0.18 0.28 0.38 0.42 0.38 0.48
0.81 0.75 0.92 1.18 1.23 1.21 1.17 1.08 1.27 1.02 0.95 1.37 1.02 1.15 1.12 0.80 0.59 0.49 0.27 0.18 0.19 0.18 0.19 0.38 0.65 0.95 1.12 1.26 1.06 0.91 1.20 1.14 0.74 0.54 0.57 0.55 0.28 0.17 0.16 0.18 0.21 0.23 0.25 0.37 0.59 0.61 0.49 0.46 0.47 0.58 0.62 0.60 0.45 0.49
0.47 0.72 1.04 1.18 1.15 1.04 0.96 1.00 0.81 0.67 0.68 0.61 0.67 0.80 0.65 0.56 0.70 0.56 0.44 0.43 0.42 0.44 0.51 0.83 1.19 1.21 1.32 1.04 0.97 0.75 0.68 0.58 0.64 0.46 0.44 0.33 0.35 0.33 0.33 0.35 0.44 0.51 0.59 0.69 0.79 0.84 0.88 0.78 0.68 0.78 0.85 0.73 0.74 0.60
0.36 0.74 0.79 0.74 0.73 0.56 0.54 0.70 0.66 0.82 0.83 0.59 0.67 0.61 0.48 0.54 0.72 0.65 0.56 0.57 0.56 0.62 0.71 0.77 0.98 1.00 0.88 0.69 0.67 0.50 0.56 0.47 0.36 0.37 0.44 0.42 0.42 0.48 0.53 0.54 0.63 0.60 0.60 0.68 0.77 0.70 0.75 0.77 0.65 0.48 0.58 0.74 0.64 0.59
0.53 0.43 0.38 0.39 0.33 0.35 0.46 0.47 0.51 0.49 0.51 0.68 0.71 0.80 0.49 0.58 0.61 0.53 0.47 0.50 0.56 0.53 0.37 0.38 0.42 0.47 0.65 0.62 0.64 0.63 0.57 0.61 0.59 0.54 0.60 0.65 0.61 0.69 0.64 0.60 0.70 0.63 0.58 0.65 0.62 0.57 0.52 0.52 0.50 0.55 0.48 0.47 0.44 0.49
0.63 0.39 0.31 0.31 0.28 0.35 0.56 0.42 0.24 0.24 0.52 0.73 0.93 0.82 0.62 0.68 0.78 0.75 0.58 0.48 0.51 0.52 0.46 0.49 0.54 0.56 0.68 0.78 0.75 0.72 0.68 0.60 0.70 0.91 1.08 1.14 1.00 0.85 0.82 0.68 0.61 0.62 0.59 0.62 0.62 0.61 0.56 0.48 0.49 0.46 0.43 0.42 0.44 0.52
0.97 0.93 0.69 0.58 0.47 0.60 0.40 0.33 0.18 0.21 0.49 0.62 0.78 0.72 0.60 0.86 0.76 0.61 0.45 0.37 0.31 0.40 0.63 0.76 1.01 1.15 1.12 1.14 0.94 0.82 0.84 0.84 0.66 0.77 1.17 1.20 1.13 0.87 0.91 0.70 0.66 0.57 0.48 0.47 0.50 0.49 0.39 0.39 0.44 0.42 0.42 0.42 0.37 0.39
1.04 1.14 0.95 0.63 0.46 0.41 0.48 0.48 0.39 0.32 0.38 0.50 0.70 0.47 0.66 0.49 0.44 0.38 0.31 0.19 0.28 0.65 0.93 1.17 1.24 1.55 1.50 1.23 1.04 0.78 0.84 0.65 0.76 0.56 0.67 0.90 1.02 0.62 0.71 0.69 0.56 0.50 0.43 0.42 0.39 0.51 0.42 0.35 0.38 0.32 0.31 0.34 0.31 0.26
0.70 0.59 0.55 0.44 0.31 0.12 0.25 0.34 0.28 0.34 0.31 0.55 0.57 0.38 0.48 0.50 0.45 0.43 0.20 0.27 0.76 1.11 1.29 1.24 1.15 1.15 0.98 1.00 1.00 0.82 0.85 0.62 0.59 0.60 0.62 0.49 0.62 0.56 0.58 0.62 0.44 0.48 0.48 0.48 0.38 0.39 0.37 0.29 0.24 0.23 0.20 0.19 0.17 0.17
0.41 0.35 0.33 0.35 0.25 0.20 0.43 0.47 0.33 0.50 0.43 0.53 0.38 0.31 0.40 0.41 0.43 0.18 0.32 0.62 0.92 1.19 1.23 1.03 1.03 0.97 0.82 0.96 0.59 0.67 0.78 0.43 0.47 0.55 0.56 0.51 0.49 0.49 0.40 0.49 0.50 0.41 0.39 0.43 0.35 0.29 0.27 0.23 0.19 0.17 0.15 0.12 0.12 0.15
0.34 0.38 0.39 0.31 0.23 0.26 0.16 0.15 0.21 0.27 0.28 0.28 0.24 0.35 0.45 0.43 0.23 0.16 0.38 0.64 0.98 0.82 0.71 0.82 0.72 0.73 0.56 0.42 0.45 0.56 0.81 0.58 0.38 0.45 0.54 0.37 0.27 0.43 0.36 0.38 0.40 0.38 0.30 0.25 0.22 0.19 0.18 0.16 0.15 0.13 0.15 0.21 0.22 0.21
0.70 0.57 0.31 0.19 0.08 0.07 0.05 0.07 0.10 0.11 0.21 0.17 0.16 0.30 0.40 0.26 0.16 0.24 0.36 0.62 0.56 0.61 0.70 0.72 0.61 0.56 0.52 0.57 0.57 0.57 0.62 0.53 0.38 0.27 0.51 0.48 0.39 0.35 0.31 0.27 0.25 0.24 0.18 0.16 0.21 0.24 0.20 0.18 0.21 0.22 0.19 0.16 0.14 0.11
0.56 0.28 0.13 0.09 0.09 0.06 0.04 0.06 0.08 0.10 0.09 0.11 0.16 0.21 0.16 0.09 0.09 0.19 0.31 0.48 0.45 0.49 0.57 0.62 0.63 0.50 0.49 0.52 0.48 0.47 0.51 0.45 0.34 0.29 0.40 0.39 0.39 0.35 0.33 0.26 0.19 0.17 0.14 0.14 0.20 0.20 0.16 0.12 0.11 0.10 0.09 0.07 0.10 0.14
0.29 0.14 0.05 0.04 0.10 0.11 0.07 0.06 0.05 0.07 0.10 0.15 0.16 0.15 0.16 0.14 0.15 0.31 0.32 0.33 0.35 0.46 0.43 0.42 0.38 0.37 0.43 0.47 0.46 0.46 0.34 0.28 0.28 0.26 0.20 0.14 0.12 0.14 0.20 0.29 0.33 0.30 0.16 0.14 0.16 0.19 0.19 0.15 0.12 0.10 0.12 0.11 0.14 0.20
0.09 0.03 0.06 0.08 0.10 0.11 0.11 0.11 0.11 0.15 0.16 0.16 0.15 0.13 0.19 0.15 0.30 0.39 0.41 0.46 0.40 0.34 0.30 0.31 0.28 0.25 0.26 0.28 0.29 0.29 0.30 0.26 0.19 0.12 0.07 0.11 0.12 0.13 0.13 0.17 0.20 0.16 0.13 0.14 0.16 0.16 0.17 0.19 0.19 0.19 0.20 0.21 0.20 0.18
0.08 0.06 0.05 0.06 0.14 0.19 0.22 0.21 0.24 0.25 0.23 0.24 0.18 0.20 0.24 0.38 0.63 0.52 0.53 0.43 0.34 0.24 0.24 0.26 0.34 0.24 0.19 0.16 0.16 0.19 0.17 0.19 0.22 0.20 0.17 0.20 0.25 0.24 0.16 0.15 0.12 0.13 0.12 0.12 0.13 0.20 0.21 0.23 0.21 0.22 0.26 0.24 0.23 0.26
0.11 0.16 0.18 0.11 0.18 0.29 0.42 0.31 0.32 0.29 0.20 0.16 0.15 0.18 0.20 0.42 0.65 0.47 0.33 0.28 0.24 0.26 0.28 0.24 0.25 0.17 0.18 0.16 0.16 0.14 0.17 0.16 0.20 0.28 0.24 0.20 0.24 0.22 0.17 0.18 0.18 0.17 0.18 0.21 0.20 0.16 0.17 0.17 0.20 0.29 0.28 0.27 0.31 0.32
0.15 0.17 0.16 0.15 0.24 0.26 0.23 0.20 0.18 0.13 0.10 0.09 0.07 0.12 0.21 0.31 0.33 0.25 0.27 0.34 0.23 0.21 0.16 0.15 0.16 0.19 0.16 0.14 0.17 0.15 0.18 0.20 0.15 0.16 0.20 0.21 0.23 0.23 0.24 0.22 0.22 0.21 0.20 0.20 0.18 0.19 0.20 0.22 0.28 0.28 0.23 0.20 0.21 0.20
0.08 0.09 0.11 0.14 0.21 0.20 0.24 0.32 0.21 0.16 0.14 0.10 0.12 0.11 0.16 0.14 0.18 0.25 0.24 0.26 0.14 0.13 0.17 0.16 0.15 0.16 0.19 0.19 0.21 0.20 0.20 0.19 0.15 0.16 0.19 0.21 0.22 0.21 0.18 0.16 0.17 0.16 0.14 0.13 0.13 0.14 0.13 0.15 0.16 0.13 0.13 0.11 0.12 0.11
0.09 0.10 0.11 0.12 0.14 0.13 0.15 0.18 0.13 0.11 0.10 0.10 0.13 0.14 0.15 0.15 0.28 0.33 0.22 0.18 0.21 0.20 0.21 0.22 0.23 0.25 0.27 0.23 0.22 0.20 0.17 0.16 0.15 0.13 0.15 0.15 0.13 0.11 0.11 0.11 0.12 0.11 0.10 0.11 0.11 0.12 0.09 0.09 0.10 0.12 0.11 0.11 0.10 0.08

GFSWCAN_prec_precacc_114.txt.gz
Total_Precipitation_Accumulation
1.58 1.11 0.80 0.68 0.69 0.86 0.78 0.86 0.84 0.87 0.82 0.67 0.55 0.58 0.76 0.84 1.04 1.58 1.70 1.33 1.67 1.80 0.50 0.28 0.21 0.23 0.22 0.28 0.39 0.39 0.62 0.59 0.69 0.74 0.42 0.21 0.22 0.21 0.15 0.13 0.72 1.05 1.20 0.74 0.58 0.62 0.18 0.07 0.27 0.53 0.54 0.24 0.22 0.21
1.43 1.19 0.86 0.70 0.78 0.83 0.81 0.90 0.82 0.80 0.76 0.61 0.54 0.58 0.63 0.70 0.94 1.60 1.72 1.26 1.32 2.17 1.12 0.48 0.21 0.11 0.13 0.07 0.20 0.30 0.42 0.51 0.89 1.02 0.79 0.50 0.29 0.29 0.16 0.23 0.69 0.96 0.60 0.52 0.41 0.28 0.08 0.11 0.31 0.41 0.27 0.19 0.17 0.16
1.66 1.17 0.97 0.83 0.88 0.86 0.84 0.90 0.75 0.73 0.74 0.61 0.57 0.60 0.70 0.70 0.93 1.55 1.52 1.22 1.88 2.84 1.68 0.64 0.28 0.07 0.14 0.08 0.15 0.44 0.14 0.08 0.24 0.54 0.90 0.64 0.49 0.31 0.28 0.29 0.52 0.79 0.67 0.79 0.33 0.10 0.11 0.17 0.18 0.23 0.37 0.22 0.16 0.23
1.59 1.42 1.10 0.88 1.07 1.34 1.14 1.09 0.74 0.71 0.76 0.66 0.59 0.62 0.69 0.94 1.09 1.45 1.55 1.56 1.99 2.88 1.78 0.75 0.39 0.24 0.12 0.15 0.06 0.23 0.19 0.25 0.45 0.64 1.13 0.88 0.55 0.26 0.15 0.15 0.24 0.71 0.72 0.78 0.78 0.91 0.47 0.19 0.16 0.17 0.22 0.33 0.30 0.24
1.53 1.32 1.14 1.08 1.39 1.22 0.96 0.82 0.83 0.87 0.88 0.68 0.64 0.69 0.95 1.22 1.47 1.80 1.64 1.49 1.61 2.01 1.44 0.64 0.45 0.30 0.27 0.24 0.16 0.25 0.49 0.63 0.90 0.93 0.94 0.49 0.20 0.24 0.17 0.14 0.24 0.22 0.20 0.39 0.73 0.58 0.83 0.43 0.40 0.43 0.40 0.30 0.20 0.15
1.24 1.18 1.11 1.14 1.12 1.02 0.80 0.73 0.81 0.94 0.94 0.82 0.80 0.94 1.41 1.71 2.11 3.86 4.67 2.40 1.38 1.57 2.68 1.24 0.52 0.40 0.49 0.44 0.37 0.19 0.30 0.82 1.28 1.28 0.63 0.26 0.14 0.50 0.59 0.22 0.03 0.01 0.03 0.15 0.23 0.20 0.40 0.56 0.44 0.25 0.26 0.21 0.10 0.06
1.20 1.03 0.92 0.92 0.92 0.86 0.78 0.78 0.95 1.05 0.96 0.93 1.02 1.39 1.69 2.06 3.06 4.06 2.68 1.51 1.05 1.70 3.54 2.12 0.81 0.47 0.69 0.58 0.44 0.36 0.34 0.61 1.01 1.61 1.09 0.39 0.21 0.71 0.74 0.24 0.02 0.01 0.02 0.06 0.07 0.12 0.23 0.24 0.23 0.18 0.15 0.19 0.10 0.05
1.23 1.02 0.88 0.77 0.74 0.70 0.72 0.79 0.89 0.98 1.04 1.25 1.44 1.70 2.12 3.43 3.93 2.61 1.54 1.40 0.94 1.75 2.47 2.30 1.17 0.93 1.14 0.74 0.52 0.34 0.41 0.68 0.85 0.97 0.78 0.61 0.43 0.66 0.62 0.08 0.00 0.00 0.00 0.01 0.02 0.05 0.12 0.07 0.04 0.07 0.06 0.06 0.04 0.06
1.30 1.03 0.77 0.56 0.55 0.67 0.61 0.71 0.89 1.08 1.29 1.91 2.63 3.75 5.38 5.38 3.86 2.05 2.09 2.35 1.85 2.13 2.19 1.43 1.34 1.43 1.67 1.19 0.72 0.85 0.78 1.04 0.77 0.62 0.41 0.63 0.61 0.55 0.23 0.03 0.01 0.01 0.02 0.02 0.01 0.01 0.02 0.04 0.04 0.05 0.04 0.05 0.08 0.08
0.91 0.81 0.71 0.59 0.60 0.66 0.60 0.68 1.00 1.57 2.41 3.81 5.57 6.70 6.48 3.65 1.85 2.09 3.74 4.03 3.73 2.75 1.88 0.94 0.87 1.55 1.70 1.74 1.28 1.72 1.53 0.81 0.62 0.25 0.33 0.48 0.35 0.20 0.11 0.15 0.04 0.02 0.01 0.01 0.01 0.02 0.04 0.05 0.08 0.08 0.07 0.04 0.02 0.03
0.88 0.88 0.93 0.82 0.80 0.85 0.79 0.94 1.36 2.55 4.52 5.55 4.81 3.62 2.87 2.33 2.08 2.80 3.19 2.54 1.87 1.18 0.64 0.29 0.32 1.03 1.48 1.74 1.44 1.47 1.85 0.97 0.44 0.17 0.36 0.34 0.21 0.22 0.22 0.19 0.09 0.03 0.02 0.01 0.01 0.02 0.07 0.12 0.07 0.01 0.00 0.01 0.03 0.04
1.09 0.96 0.89 0.86 0.92 1.05 1.03 1.12 1.53 2.33 3.21 2.84 2.10 2.20 2.61 2.56 2.42 2.12 1.96 1.34 0.52 0.17 0.10 0.16 0.21 0.59 1.50 1.77 1.66 1.45 1.08 1.28 0.59 0.36 0.46 0.27 0.18 0.05 0.05 0.06 0.09 0.11 0.07 0.07 0.10 0.09 0.05 0.02 0.02 0.02 0.03 0.05 0.09 0.14
1.26 1.12 1.09 1.14 1.08 1.23 1.27 1.20 1.04 1.53 1.93 2.11 2.03 2.58 2.49 2.50 1.95 1.33 0.81 0.44 0.20 0.11 0.11 0.16 0.33 0.41 0.95 1.44 1.73 1.55 1.16 0.90 0.68 0.68 0.36 0.15 0.11 0.09 0.05 0.03 0.04 0.08 0.15 0.07 0.04 0.04 0.04 0.05 0.06 0.08 0.12 0.20 0.25 0.34
1.25 1.09 1.01 1.22 1.30 1.31 1.39 1.32 1.46 2.10 1.98 2.38 2.63 2.56 2.03 1.59 1.09 0.65 0.26 0.14 0.12 0.12 0.11 0.14 0.34 0.67 0.87 0.97 1.22 1.45 1.49 0.93 1.00 0.57 0.29 0.29 0.19 0.16 0.13 0.09 0.04 0.04 0.15 0.42 0.26 0.10 0.11 0.14 0.18 0.28 0.38 0.43 0.38 0.48
0.90 0.85 1.06 1.31 1.34 1.31 1.28 1.23 1.48 1.18 1.12 1.46 1.02 1.15 1.13 0.80 0.59 0.49 0.27 0.18 0.19 0.18 0.19 0.38 0.65 0.95 1.12 1.27 1.06 0.91 1.20 1.14 0.74 0.54 0.57 0.55 0.28 0.17 0.16 0.18 0.21 0.23 0.25 0.37 0.59 0.61 0.50 0.46 0.47 0.58 0.63 0.60 0.45 0.49
0.58 0.87 1.24 1.31 1.24 1.13 1.12 1.24 0.91 0.73 0.73 0.62 0.67 0.80 0.66 0.56 0.70 0.56 0.44 0.43 0.42 0.45 0.52 0.85 1.20 1.21 1.33 1.04 0.97 0.75 0.68 0.58 0.64 0.46 0.44 0.33 0.35 0.33 0.33 0.35 0.44 0.51 0.59 0.69 0.79 0.84 0.88 0.78 0.68 0.78 0.85 0.73 0.74 0.60
0.44 0.81 0.88 0.88 0.90 0.82 0.78 0.75 0.73 0.91 0.87 0.59 0.68 0.62 0.48 0.54 0.73 0.65 0.56 0.57 0.57 0.63 0.72 0.78 0.98 1.00 0.89 0.70 0.67 0.50 0.56 0.48 0.37 0.37 0.44 0.42 0.42 0.48 0.53 0.54 0.63 0.60 0.60 0.68 0.77 0.70 0.75 0.77 0.65 0.48 0.58 0.74 0.64 0.59
0.55 0.46 0.52 0.59 0.49 0.47 0.52 0.52 0.57 0.55 0.52 0.69 0.72 0.82 0.49 0.58 0.62 0.53 0.48 0.52 0.60 0.57 0.38 0.38 0.42 0.47 0.65 0.62 0.65 0.63 0.58 0.62 0.60 0.54 0.60 0.65 0.61 0.69 0.64 0.60 0.70 0.63 0.58 0.65 0.62 0.57 0.52 0.52 0.50 0.55 0.48 0.47 0.44 0.50
0.67 0.43 0.35 0.32 0.28 0.37 0.62 0.45 0.24 0.24 0.53 0.73 0.94 0.83 0.62 0.69 0.78 0.76 0.59 0.51 0.54 0.54 0.47 0.50 0.55 0.56 0.68 0.78 0.76 0.72 0.68 0.61 0.70 0.91 1.08 1.14 1.00 0.85 0.82 0.68 0.61 0.62 0.60 0.62 0.62 0.61 0.56 0.48 0.49 0.46 0.43 0.42 0.44 0.52
1.06 1.04 0.75 0.59 0.47 0.60 0.40 0.33 0.18 0.21 0.50 0.62 0.78 0.72 0.60 0.87 0.77 0.61 0.45 0.38 0.31 0.42 0.66 0.77 1.02 1.15 1.12 1.14 0.94 0.82 0.85 0.85 0.67 0.77 1.17 1.20 1.13 0.87 0.91 0.70 0.66 0.57 0.49 0.47 0.51 0.49 0.39 0.39 0.44 0.43 0.42 0.43 0.37 0.40
1.08 1.19 0.95 0.63 0.46 0.41 0.48 0.48 0.39 0.32 0.38 0.50 0.70 0.47 0.66 0.49 0.45 0.38 0.31 0.19 0.28 0.66 0.94 1.18 1.25 1.56 1.51 1.24 1.04 0.78 0.85 0.66 0.76 0.57 0.67 0.90 1.03 0.63 0.71 0.69 0.57 0.50 0.43 0.43 0.40 0.52 0.42 0.35 0.38 0.33 0.31 0.35 0.32 0.27
0.73 0.60 0.55 0.44 0.31 0.12 0.25 0.34 0.28 0.34 0.31 0.55 0.57 0.38 0.48 0.50 0.45 0.43 0.20 0.27 0.77 1.12 1.30 1.25 1.15 1.16 0.98 1.00 1.00 0.83 0.85 0.62 0.60 0.60 0.62 0.49 0.63 0.57 0.58 0.62 0.45 0.48 0.49 0.49 0.38 0.39 0.38 0.30 0.26 0.25 0.22 0.20 0.18 0.18
0.42 0.36 0.35 0.35 0.25 0.20 0.43 0.48 0.34 0.50 0.44 0.54 0.38 0.31 0.40 0.41 0.43 0.18 0.32 0.63 0.92 1.19 1.24 1.04 1.04 0.98 0.82 0.96 0.60 0.67 0.78 0.43 0.47 0.55 0.56 0.51 0.50 0.49 0.41 0.49 0.50 0.42 0.40 0.44 0.35 0.30 0.28 0.25 0.21 0.19 0.16 0.13 0.13 0.16
0.35 0.39 0.42 0.32 0.23 0.27 0.17 0.15 0.21 0.27 0.28 0.28 0.24 0.35 0.45 0.43 0.23 0.16 0.38 0.64 0.98 0.83 0.72 0.83 0.74 0.73 0.56 0.42 0.46 0.56 0.82 0.58 0.39 0.45 0.54 0.37 0.27 0.44 0.36 0.38 0.40 0.39 0.30 0.25 0.22 0.20 0.19 0.18 0.16 0.14 0.16 0.22 0.24 0.22
0.70 0.57 0.31 0.19 0.08 0.07 0.05 0.07 0.10 0.11 0.21 0.17 0.16 0.31 0.40 0.26 0.16 0.24 0.36 0.63 0.56 0.62 0.71 0.73 0.61 0.56 0.52 0.57 0.57 0.57 0.62 0.53 0.38 0.27 0.51 0.48 0.40 0.36 0.31 0.27 0.25 0.24 0.19 0.16 0.22 0.25 0.21 0.19 0.22 0.23 0.20 0.17 0.15 0.12
0.56 0.28 0.13 0.09 0.09 0.06 0.04 0.06 0.08 0.10 0.09 0.11 0.16 0.21 0.16 0.09 0.09 0.20 0.31 0.48 0.45 0.50 0.58 0.62 0.63 0.50 0.50 0.53 0.49 0.48 0.52 0.45 0.34 0.29 0.40 0.39 0.39 0.36 0.33 0.26 0.19 0.18 0.15 0.15 0.20 0.21 0.16 0.12 0.11 0.10 0.09 0.07 0.10 0.14
0.29 0.14 0.05 0.04 0.10 0.11 0.07 0.06 0.05 0.07 0.10 0.15 0.16 0.15 0.16 0.14 0.15 0.32 0.33 0.33 0.35 0.46 0.44 0.43 0.38 0.37 0.43 0.48 0.46 0.47 0.34 0.28 0.29 0.27 0.21 0.15 0.13 0.14 0.21 0.30 0.34 0.31 0.18 0.15 0.17 0.20 0.20 0.15 0.12 0.10 0.12 0.11 0.14 0.20
0.09 0.03 0.06 0.08 0.10 0.11 0.11 0.11 0.11 0.15 0.16 0.16 0.15 0.13 0.20 0.16 0.30 0.39 0.42 0.47 0.40 0.34 0.30 0.31 0.28 0.25 0.26 0.28 0.30 0.29 0.30 0.27 0.19 0.12 0.07 0.11 0.13 0.13 0.14 0.18 0.21 0.17 0.14 0.15 0.17 0.16 0.17 0.19 0.20 0.19 0.20 0.21 0.20 0.18
0.08 0.06 0.05 0.06 0.14 0.19 0.23 0.21 0.24 0.25 0.23 0.24 0.18 0.20 0.24 0.39 0.64 0.53 0.54 0.43 0.34 0.24 0.24 0.26 0.34 0.25 0.19 0.16 0.16 0.20 0.18 0.19 0.22 0.20 0.17 0.20 0.25 0.24 0.17 0.15 0.13 0.13 0.13 0.12 0.14 0.21 0.21 0.23 0.21 0.22 0.26 0.24 0.23 0.26
0.11 0.16 0.18 0.11 0.18 0.29 0.42 0.31 0.32 0.29 0.20 0.16 0.15 0.18 0.20 0.43 0.66 0.48 0.33 0.28 0.24 0.26 0.28 0.24 0.25 0.17 0.18 0.16 0.16 0.14 0.18 0.16 0.20 0.28 0.24 0.20 0.24 0.23 0.17 0.19 0.18 0.17 0.18 0.21 0.20 0.17 0.18 0.18 0.20 0.30 0.28 0.27 0.31 0.32
0.15 0.17 0.16 0.15 0.25 0.27 0.23 0.20 0.18 0.13 0.10 0.09 0.07 0.12 0.21 0.31 0.34 0.26 0.27 0.34 0.23 0.21 0.16 0.15 0.16 0.19 0.16 0.14 0.17 0.16 0.18 0.20 0.15 0.16 0.20 0.21 0.23 0.23 0.24 0.22 0.23 0.21 0.20 0.20 0.18 0.19 0.20 0.22 0.28 0.28 0.23 0.20 0.21 0.20
0.08 0.09 0.11 0.15 0.21 0.20 0.24 0.32 0.21 0.16 0.14 0.10 0.13 0.11 0.16 0.14 0.18 0.26 0.24 0.26 0.14 0.13 0.17 0.16 0.15 0.16 0.19 0.19 0.21 0.20 0.20 0.19 0.15 0.16 0.19 0.21 0.22 0.21 0.18 0.16 0.17 0.16 0.14 0.13 0.13 0.14 0.13 0.15 0.16 0.13 0.13 0.11 0.12 0.11
0.09 0.10 0.11 0.12 0.14 0.14 0.15 0.18 0.13 0.11 0.10 0.10 0.14 0.14 0.15 0.15 0.28 0.34 0.23 0.19 0.21 0.20 0.21 0.22 0.23 0.25 0.27 0.23 0.22 0.20 0.17 0.16 0.15 0.13 0.15 0.15 0.13 0.11 0.11 0.11 0.12 0.11 0.10 0.11 0.11 0.12 0.09 0.09 0.10 0.12 0.11 0.11 0.10 0.08

GFSWCAN_prec_precacc_117.txt.gz
Total_Precipitation_Accumulation
1.59 1.11 0.80 0.69 0.71 0.88 0.79 0.87 0.85 0.87 0.82 0.67 0.56 0.58 0.76 0.85 1.05 1.58 1.70 1.33 1.68 1.80 0.50 0.28 0.21 0.23 0.22 0.28 0.39 0.39 0.62 0.59 0.69 0.74 0.43 0.21 0.23 0.23 0.24 0.17 0.83 1.17 1.28 0.81 0.65 0.68 0.18 0.07 0.31 0.56 0.56 0.31 0.36 0.47
1.44 1.20 0.87 0.70 0.79 0.84 0.82 0.91 0.83 0.81 0.76 0.61 0.55 0.58 0.63 0.71 0.95 1.60 1.72 1.26 1.32 2.19 1.12 0.48 0.21 0.11 0.13 0.07 0.20 0.30 0.42 0.51 0.89 1.02 0.79 0.50 0.29 0.29 0.18 0.27 0.79 1.09 0.81 0.66 0.44 0.28 0.08 0.11 0.31 0.43 0.28 0.29 0.23 0.16
1.68 1.18 0.99 0.85 0.89 0.86 0.84 0.90 0.75 0.73 0.75 0.62 0.58 0.61 0.70 0.70 0.95 1.57 1.54 1.23 1.90 2.89 1.69 0.64 0.28 0.07 0.14 0.08 0.15 0.44 0.14 0.08 0.24 0.56 0.95 0.66 0.50 0.31 0.29 0.30 0.55 0.83 0.76 0.98 0.40 0.12 0.12 0.17 0.19 0.24 0.39 0.33 0.18 0.23
1.62 1.45 1.12 0.90 1.08 1.34 1.14 1.09 0.75 0.71 0.76 0.67 0.60 0.63 0.70 0.95 1.10 1.46 1.57 1.57 2.00 2.91 1.79 0.75 0.39 0.24 0.12 0.15 0.06 0.23 0.19 0.25 0.45 0.66 1.14 0.88 0.55 0.26 0.15 0.15 0.28 0.76 0.75 0.84 0.92 1.04 0.62 0.26 0.21 0.17 0.23 0.33 0.31 0.24
1.56 1.34 1.16 1.09 1.40 1.23 0.97 0.83 0.84 0.88 0.89 0.70 0.66 0.70 0.96 1.23 1.49 1.83 1.65 1.50 1.61 2.02 1.45 0.64 0.45 0.30 0.27 0.24 0.16 0.25 0.49 0.63 0.90 0.94 0.94 0.50 0.20 0.25 0.17 0.15 0.29 0.24 0.25 0.55 0.91 0.89 1.19 0.77 0.82 0.59 0.45 0.31 0.24 0.15
1.28 1.21 1.14 1.16 1.14 1.03 0.80 0.74 0.82 0.96 0.96 0.84 0.82 0.95 1.41 1.72 2.14 3.87 4.69 2.40 1.38 1.58 2.71 1.25 0.52 0.40 0.49 0.44 0.37 0.19 0.30 0.82 1.28 1.28 0.63 0.26 0.14 0.52 0.62 0.23 0.03 0.01 0.07 0.33 0.38 0.49 0.68 0.94 0.69 0.33 0.33 0.38 0.19 0.08
1.24 1.07 0.94 0.94 0.94 0.87 0.79 0.78 0.96 1.06 0.98 0.95 1.03 1.39 1.69 2.07 3.08 4.07 2.69 1.51 1.05 1.71 3.60 2.13 0.81 0.47 0.69 0.58 0.44 0.36 0.34 0.61 1.01 1.61 1.09 0.39 0.21 0.75 0.76 0.24 0.02 0.01 0.02 0.09 0.09 0.13 0.24 0.24 0.24 0.18 0.15 0.21 0.13 0.05
1.26 1.06 0.92 0.79 0.75 0.71 0.73 0.81 0.91 1.00 1.06 1.26 1.45 1.71 2.14 3.47 3.96 2.63 1.54 1.42 0.97 1.77 2.49 2.30 1.17 0.93 1.14 0.74 0.52 0.34 0.42 0.71 0.89 0.99 0.79 0.61 0.45 0.69 0.65 0.09 0.00 0.00 0.00 0.01 0.02 0.05 0.13 0.08 0.04 0.07 0.06 0.06 0.04 0.06
1.34 1.07 0.80 0.59 0.56 0.67 0.62 0.72 0.91 1.10 1.31 1.92 2.64 3.78 5.45 5.45 3.90 2.06 2.09 2.41 1.95 2.15 2.20 1.44 1.34 1.43 1.67 1.22 0.74 0.89 0.88 1.11 0.80 0.66 0.42 0.67 0.63 0.59 0.25 0.04 0.01 0.02 0.02 0.02 0.01 0.01 0.02 0.04 0.04 0.05 0.04 0.05 0.08 0.08
0.94 0.84 0.75 0.62 0.62 0.68 0.61 0.70 1.02 1.61 2.44 3.84 5.65 6.82 6.59 3.69 1.85 2.10 3.86 4.20 3.89 2.82 1.89 0.94 0.87 1.55 1.70 1.76 1.36 1.76 1.57 0.91 0.67 0.27 0.36 0.52 0.38 0.21 0.12 0.16 0.04 0.02 0.01 0.01 0.01 0.02 0.04 0.05 0.08 0.08 0.07 0.05 0.03 0.03
0.90 0.90 0.95 0.87 0.84 0.88 0.82 0.97 1.38 2.57 4.56 5.64 4.98 3.67 2.87 2.35 2.10 2.87 3.33 2.61 1.89 1.21 0.64 0.29 0.32 1.03 1.48 1.74 1.44 1.48 1.90 1.06 0.46 0.18 0.41 0.37 0.23 0.23 0.23 0.20 0.09 0.03 0.02 0.01 0.01 0.02 0.07 0.12 0.07 0.01 0.01 0.01 0.03 0.05
1.09 0.96 0.92 0.90 0.95 1.07 1.05 1.13 1.54 2.35 3.25 2.89 2.15 2.22 2.72 2.67 2.49 2.19 1.98 1.35 0.52 0.17 0.10 0.16 0.21 0.59 1.50 1.77 1.67 1.46 1.11 1.31 0.59 0.36 0.48 0.28 0.19 0.06 0.06 0.07 0.09 0.11 0.07 0.07 0.10 0.09 0.05 0.02 0.03 0.03 0.03 0.05 0.09 0.14
1.26 1.13 1.10 1.16 1.10 1.24 1.28 1.21 1.06 1.55 2.01 2.30 2.18 2.72 2.66 2.58 1.99 1.34 0.82 0.45 0.20 0.11 0.11 0.16 0.33 0.41 0.95 1.44 1.73 1.56 1.17 0.90 0.68 0.68 0.37 0.16 0.11 0.09 0.05 0.03 0.04 0.08 0.15 0.07 0.04 0.04 0.04 0.05 0.06 0.08 0.12 0.20 0.26 0.35
1.25 1.10 1.02 1.23 1.31 1.33 1.40 1.33 1.51 2.21 2.28 2.69 2.75 2.65 2.06 1.60 1.09 0.65 0.26 0.14 0.12 0.12 0.11 0.14 0.34 0.67 0.89 0.98 1.23 1.47 1.50 0.93 1.00 0.57 0.30 0.30 0.20 0.16 0.13 0.09 0.04 0.04 0.15 0.42 0.26 0.10 0.11 0.14 0.18 0.28 0.38 0.43 0.38 0.49
0.91 0.85 1.07 1.32 1.35 1.33 1.31 1.28 1.60 1.45 1.43 1.73 1.04 1.16 1.13 0.80 0.59 0.49 0.27 0.18 0.19 0.18 0.19 0.38 0.65 0.96 1.13 1.29 1.08 0.91 1.20 1.14 0.74 0.54 0.58 0.55 0.28 0.17 0.16 0.18 0.21 0.23 0.25 0.37 0.59 0.61 0.50 0.46 0.47 0.58 0.63 0.61 0.46 0.50
0.62 0.97 1.31 1.33 1.26 1.18 1.24 1.50 1.24 1.03 0.97 0.72 0.67 0.80 0.66 0.56 0.70 0.56 0.44 0.43 0.42 0.45 0.52 0.86 1.22 1.22 1.34 1.05 0.98 0.75 0.68 0.58 0.64 0.47 0.44 0.33 0.35 0.33 0.33 0.35 0.44 0.51 0.59 0.69 0.79 0.84 0.88 0.78 0.68 0.78 0.85 0.73 0.74 0.61
0.66 1.02 0.95 0.92 0.97 1.01 1.09 1.08 0.97 1.13 0.98 0.61 0.68 0.62 0.49 0.54 0.73 0.65 0.57 0.57 0.57 0.63 0.73 0.79 0.99 1.01 0.89 0.71 0.67 0.50 0.57 0.48 0.38 0.38 0.44 0.42 0.42 0.48 0.53 0.54 0.63 0.60 0.60 0.68 0.77 0.70 0.75 0.77 0.65 0.48 0.58 0.75 0.64 0.60
0.74 0.58 0.66 0.72 0.71 0.74 0.75 0.72 0.73 0.67 0.55 0.69 0.72 0.82 0.50 0.59 0.62 0.54 0.48 0.52 0.60 0.58 0.39 0.38 0.42 0.47 0.65 0.62 0.65 0.63 0.58 0.62 0.60 0.54 0.60 0.65 0.61 0.69 0.64 0.60 0.70 0.63 0.58 0.65 0.62 0.57 0.52 0.52 0.50 0.55 0.48 0.48 0.44 0.50
0.77 0.50 0.39 0.34 0.32 0.42 0.74 0.56 0.27 0.25 0.53 0.73 0.94 0.83 0.62 0.69 0.79 0.76 0.59 0.52 0.56 0.56 0.48 0.51 0.56 0.56 0.68 0.79 0.76 0.72 0.68 0.61 0.70 0.91 1.08 1.15 1.01 0.86 0.82 0.68 0.61 0.62 0.60 0.62 0.62 0.61 0.56 0.48 0.49 0.46 0.43 0.42 0.45 0.52
1.16 1.14 0.80 0.61 0.48 0.60 0.42 0.34 0.18 0.21 0.50 0.62 0.78 0.73 0.60 0.88 0.78 0.62 0.46 0.39 0.33 0.45 0.70 0.80 1.04 1.15 1.12 1.14 0.94 0.83 0.85 0.85 0.67 0.77 1.17 1.20 1.13 0.88 0.92 0.70 0.66 0.57 0.49 0.47 0.51 0.49 0.39 0.40 0.44 0.43 0.43 0.43 0.38 0.41
1.21 1.30 0.98 0.64 0.47 0.41 0.48 0.48 0.39 0.32 0.38 0.50 0.70 0.47 0.66 0.49 0.45 0.40 0.32 0.19 0.28 0.66 0.95 1.18 1.26 1.57 1.52 1.25 1.05 0.79 0.86 0.66 0.77 0.57 0.68 0.90 1.03 0.63 0.71 0.69 0.57 0.50 0.43 0.43 0.40 0.52 0.42 0.36 0.39 0.33 0.32 0.36 0.33 0.28
0.77 0.61 0.55 0.44 0.31 0.12 0.25 0.34 0.28 0.34 0.31 0.56 0.57 0.38 0.48 0.50 0.45 0.43 0.20 0.27 0.77 1.13 1.31 1.25 1.16 1.17 0.99 1.01 1.01 0.83 0.86 0.62 0.60 0.60 0.62 0.49 0.63 0.57 0.58 0.62 0.45 0.48 0.49 0.49 0.38 0.40 0.38 0.30 0.26 0.25 0.23 0.22 0.19 0.20
0.42 0.36 0.35 0.35 0.25 0.20 0.43 0.49 0.34 0.50 0.44 0.54 0.38 0.31 0.40 0.41 0.43 0.18 0.32 0.63 0.93 1.20 1.25 1.05 1.05 0.98 0.82 0.97 0.60 0.67 0.79 0.43 0.47 0.55 0.56 0.51 0.50 0.49 0.41 0.50 0.50 0.42 0.40 0.44 0.35 0.30 0.28 0.25 0.22 0.20 0.17 0.15 0.15 0.17
0.35 0.41 0.44 0.33 0.23 0.28 0.17 0.16 0.21 0.27 0.28 0.28 0.24 0.35 0.45 0.43 0.23 0.16 0.38 0.64 0.99 0.84 0.73 0.84 0.75 0.74 0.56 0.43 0.46 0.56 0.82 0.59 0.39 0.45 0.54 0.37 0.27 0.44 0.36 0.38 0.40 0.39 0.31 0.25 0.22 0.20 0.19 0.18 0.16 0.15 0.17 0.22 0.24 0.23
0.72 0.59 0.32 0.19 0.08 0.07 0.05 0.07 0.10 0.11 0.21 0.17 0.16 0.31 0.41 0.26 0.16 0.24 0.36 0.63 0.57 0.62 0.72 0.74 0.62 0.57 0.53 0.59 0.58 0.58 0.63 0.53 0.38 0.27 0.51 0.48 0.40 0.36 0.31 0.28 0.26 0.25 0.19 0.16 0.22 0.25 0.21 0.19 0.22 0.23 0.20 0.17 0.15 0.13
0.56 0.28 0.13 0.09 0.09 0.06 0.04 0.06 0.08 0.10 0.09 0.11 0.17 0.21 0.16 0.09 0.09 0.20 0.31 0.49 0.46 0.51 0.59 0.62 0.63 0.50 0.50 0.53 0.49 0.48 0.52 0.45 0.35 0.30 0.41 0.40 0.40 0.36 0.33 0.26 0.20 0.18 0.16 0.15 0.20 0.21 0.16 0.12 0.11 0.10 0.09 0.08 0.11 0.15
0.29 0.14 0.05 0.04 0.10 0.11 0.07 0.06 0.05 0.07 0.10 0.15 0.16 0.15 0.16 0.14 0.15 0.32 0.33 0.33 0.35 0.47 0.44 0.43 0.38 0.37 0.43 0.48 0.47 0.47 0.35 0.28 0.29 0.27 0.22 0.16 0.13 0.15 0.21 0.30 0.34 0.32 0.18 0.16 0.18 0.20 0.20 0.15 0.12 0.10 0.12 0.11 0.14 0.20
0.09 0.03 0.06 0.08 0.10 0.11 0.11 0.11 0.11 0.15 0.16 0.16 0.15 0.13 0.20 0.16 0.30 0.40 0.42 0.47 0.41 0.34 0.30 0.31 0.28 0.25 0.26 0.28 0.30 0.29 0.31 0.27 0.20 0.12 0.07 0.12 0.13 0.14 0.14 0.19 0.22 0.17 0.14 0.16 0.18 0.17 0.18 0.20 0.20 0.19 0.20 0.22 0.20 0.18
0.08 0.06 0.05 0.06 0.14 0.19 0.23 0.21 0.24 0.26 0.23 0.24 0.18 0.20 0.25 0.39 0.64 0.53 0.55 0.44 0.34 0.24 0.24 0.26 0.34 0.25 0.19 0.16 0.17 0.20 0.18 0.19 0.22 0.20 0.17 0.20 0.25 0.24 0.17 0.15 0.13 0.13 0.13 0.13 0.15 0.21 0.22 0.24 0.22 0.23 0.26 0.24 0.24 0.26
0.11 0.16 0.18 0.11 0.18 0.30 0.43 0.32 0.33 0.29 0.20 0.16 0.15 0.18 0.20 0.44 0.67 0.48 0.34 0.28 0.24 0.26 0.28 0.24 0.25 0.17 0.18 0.16 0.16 0.14 0.18 0.16 0.20 0.28 0.24 0.20 0.24 0.23 0.17 0.19 0.18 0.17 0.18 0.21 0.21 0.17 0.18 0.18 0.21 0.30 0.29 0.28 0.31 0.32
0.15 0.17 0.16 0.15 0.25 0.27 0.23 0.20 0.18 0.13 0.10 0.09 0.07 0.12 0.21 0.32 0.35 0.26 0.27 0.34 0.23 0.21 0.16 0.15 0.16 0.19 0.16 0.14 0.17 0.16 0.18 0.20 0.15 0.16 0.20 0.21 0.23 0.23 0.24 0.22 0.23 0.21 0.20 0.20 0.18 0.19 0.20 0.22 0.28 0.28 0.23 0.20 0.21 0.20
0.08 0.09 0.11 0.15 0.21 0.20 0.24 0.32 0.21 0.16 0.14 0.10 0.13 0.11 0.16 0.14 0.18 0.26 0.24 0.26 0.14 0.13 0.17 0.16 0.15 0.16 0.19 0.19 0.21 0.20 0.20 0.19 0.15 0.16 0.19 0.21 0.22 0.21 0.18 0.16 0.17 0.16 0.14 0.13 0.13 0.14 0.13 0.15 0.16 0.13 0.13 0.11 0.12 0.11
0.09 0.10 0.11 0.12 0.14 0.14 0.16 0.18 0.13 0.11 0.10 0.10 0.14 0.14 0.15 0.15 0.28 0.34 0.23 0.19 0.21 0.20 0.21 0.22 0.23 0.25 0.27 0.23 0.22 0.20 0.17 0.16 0.15 0.13 0.15 0.15 0.13 0.11 0.11 0.11 0.12 0.11 0.10 0.11 0.11 0.12 0.10 0.09 0.10 0.12 0.11 0.11 0.10 0.08

GFSWCAN_prec_precacc_120.txt.gz
Total_Precipitation_Accumulation
1.66 1.15 0.82 0.70 0.72 0.89 0.82 0.89 0.85 0.89 0.85 0.67 0.56 0.58 0.76 0.86 1.06 1.58 1.70 1.33 1.68 1.81 0.50 0.28 0.21 0.23 0.22 0.28 0.39 0.39 0.62 0.59 0.69 0.74 0.43 0.21 0.24 0.23 0.27 0.24 0.94 1.29 1.35 0.91 0.73 0.76 0.22 0.08 0.35 0.60 0.59 0.34 0.44 0.82
1.46 1.21 0.88 0.71 0.79 0.84 0.83 0.92 0.85 0.82 0.77 0.62 0.55 0.59 0.63 0.71 0.96 1.60 1.72 1.26 1.33 2.19 1.13 0.48 0.21 0.11 0.13 0.07 0.20 0.30 0.42 0.51 0.89 1.03 0.80 0.53 0.30 0.30 0.21 0.31 0.82 1.16 0.94 0.83 0.51 0.31 0.10 0.12 0.32 0.44 0.32 0.34 0.40 0.22
1.70 1.20 0.99 0.85 0.89 0.86 0.85 0.91 0.76 0.74 0.75 0.62 0.59 0.62 0.71 0.70 0.97 1.57 1.54 1.23 1.92 2.91 1.69 0.64 0.28 0.07 0.14 0.08 0.15 0.44 0.14 0.08 0.24 0.59 1.00 0.70 0.51 0.32 0.31 0.32 0.57 0.84 0.81 1.16 0.57 0.25 0.21 0.22 0.21 0.26 0.40 0.35 0.20 0.24
1.65 1.47 1.14 0.91 1.09 1.35 1.15 1.10 0.75 0.71 0.76 0.67 0.61 0.64 0.70 0.96 1.15 1.47 1.57 1.58 2.01 2.93 1.79 0.75 0.39 0.24 0.12 0.15 0.06 0.23 0.19 0.25 0.45 0.67 1.16 0.90 0.56 0.27 0.15 0.16 0.29 0.84 0.79 0.89 1.13 1.30 0.77 0.40 0.37 0.30 0.29 0.38 0.41 0.26
1.58 1.37 1.19 1.12 1.42 1.24 0.98 0.84 0.84 0.88 0.89 0.70 0.67 0.72 0.97 1.24 1.53 1.86 1.66 1.50 1.61 2.03 1.46 0.64 0.45 0.30 0.27 0.24 0.16 0.25 0.49 0.63 0.90 0.94 0.96 0.51 0.21 0.26 0.18 0.15 0.33 0.27 0.31 0.64 1.07 1.12 1.39 1.01 1.19 0.90 0.64 0.37 0.28 0.16
1.29 1.24 1.17 1.19 1.17 1.05 0.82 0.74 0.82 0.96 0.96 0.85 0.84 0.97 1.42 1.73 2.16 3.89 4.70 2.40 1.38 1.59 2.73 1.25 0.52 0.40 0.49 0.44 0.37 0.19 0.30 0.82 1.29 1.29 0.64 0.27 0.14 0.54 0.63 0.24 0.04 0.01 0.12 0.42 0.43 0.57 0.80 1.02 0.74 0.36 0.34 0.39 0.20 0.08
1.25 1.10 0.97 0.97 0.97 0.90 0.81 0.79 0.96 1.06 0.99 0.97 1.06 1.41 1.71 2.09 3.09 4.07 2.69 1.52 1.06 1.73 3.62 2.13 0.81 0.47 0.69 0.58 0.44 0.36 0.34 0.61 1.01 1.62 1.10 0.40 0.21 0.78 0.78 0.24 0.02 0.01 0.04 0.09 0.09 0.13 0.25 0.24 0.25 0.18 0.15 0.21 0.13 0.05
1.28 1.08 0.95 0.82 0.78 0.73 0.75 0.81 0.92 1.01 1.07 1.29 1.48 1.72 2.16 3.49 3.98 2.63 1.55 1.43 0.98 1.79 2.50 2.30 1.17 0.93 1.14 0.74 0.53 0.34 0.42 0.71 0.90 1.00 0.81 0.62 0.47 0.72 0.67 0.09 0.00 0.00 0.01 0.01 0.02 0.05 0.14 0.08 0.05 0.08 0.06 0.06 0.04 0.06
1.38 1.10 0.83 0.63 0.59 0.69 0.63 0.73 0.92 1.11 1.32 1.93 2.65 3.81 5.49 5.49 3.92 2.06 2.09 2.41 2.00 2.19 2.21 1.44 1.34 1.43 1.67 1.23 0.77 0.94 0.94 1.14 0.82 0.68 0.43 0.69 0.65 0.62 0.26 0.04 0.02 0.02 0.02 0.02 0.01 0.01 0.02 0.04 0.04 0.05 0.04 0.05 0.08 0.08
0.99 0.89 0.78 0.66 0.65 0.69 0.62 0.71 1.03 1.62 2.46 3.86 5.68 6.84 6.62 3.70 1.85 2.12 3.89 4.22 3.96 2.90 1.94 0.95 0.87 1.55 1.70 1.77 1.39 1.79 1.63 0.95 0.72 0.29 0.38 0.54 0.40 0.22 0.13 0.16 0.04 0.02 0.01 0.01 0.01 0.03 0.04 0.05 0.08 0.08 0.07 0.05 0.03 0.03
0.94 0.93 0.98 0.91 0.88 0.90 0.84 0.98 1.39 2.58 4.60 5.67 4.99 3.69 2.88 2.36 2.14 2.89 3.36 2.66 1.91 1.23 0.65 0.29 0.32 1.03 1.48 1.74 1.44 1.49 1.92 1.12 0.51 0.20 0.46 0.41 0.25 0.24 0.23 0.20 0.09 0.03 0.02 0.01 0.01 0.02 0.07 0.12 0.07 0.01 0.01 0.01 0.03 0.05
1.13 1.00 0.94 0.93 0.99 1.10 1.07 1.15 1.56 2.41 3.28 2.90 2.19 2.25 2.83 2.74 2.55 2.21 2.00 1.37 0.53 0.18 0.10 0.16 0.21 0.59 1.50 1.77 1.67 1.47 1.14 1.35 0.62 0.38 0.52 0.30 0.20 0.06 0.06 0.07 0.10 0.11 0.07 0.07 0.10 0.09 0.05 0.02 0.03 0.03 0.03 0.05 0.09 0.14
1.30 1.16 1.13 1.20 1.14 1.27 1.30 1.22 1.09 1.57 2.02 2.36 2.35 2.76 2.80 2.65 2.02 1.35 0.82 0.45 0.20 0.11 0.11 0.16 0.34 0.42 0.96 1.44 1.74 1.57 1.18 0.90 0.68 0.68 0.37 0.16 0.12 0.09 0.05 0.03 0.04 0.08 0.15 0.07 0.04 0.04 0.04 0.05 0.06 0.08 0.12 0.20 0.26 0.35
1.27 1.12 1.04 1.25 1.35 1.35 1.41 1.35 1.53 2.22 2.31 2.82 2.92 2.74 2.10 1.62 1.09 0.65 0.26 0.14 0.12 0.12 0.11 0.14 0.34 0.67 0.89 0.99 1.23 1.48 1.51 0.93 1.01 0.57 0.30 0.30 0.20 0.16 0.13 0.09 0.04 0.04 0.15 0.42 0.26 0.10 0.11 0.14 0.18 0.28 0.38 0.43 0.39 0.49
0.92 0.87 1.10 1.35 1.39 1.35 1.33 1.31 1.63 1.48 1.48 1.95 1.18 1.19 1.13 0.80 0.59 0.49 0.27 0.18 0.19 0.18 0.19 0.38 0.66 0.96 1.14 1.32 1.09 0.92 1.21 1.14 0.74 0.54 0.58 0.56 0.28 0.17 0.16 0.18 0.21 0.23 0.25 0.37 0.59 0.61 0.50 0.46 0.47 0.58 0.63 0.61 0.46 0.50
0.63 1.01 1.34 1.35 1.28 1.20 1.27 1.55 1.31 1.12 1.10 0.88 0.76 0.81 0.66 0.56 0.71 0.57 0.44 0.43 0.42 0.45 0.52 0.87 1.22 1.23 1.36 1.05 0.99 0.76 0.68 0.58 0.64 0.47 0.45 0.33 0.35 0.33 0.33 0.35 0.44 0.51 0.59 0.69 0.79 0.84 0.88 0.78 0.68 0.79 0.85 0.73 0.74 0.61
0.69 1.04 0.96 0.93 0.99 1.05 1.15 1.19 1.07 1.27 1.13 0.69 0.71 0.62 0.49 0.54 0.73 0.66 0.57 0.58 0.57 0.64 0.74 0.79 0.99 1.01 0.90 0.71 0.67 0.50 0.57 0.49 0.38 0.38 0.44 0.42 0.43 0.48 0.53 0.54 0.63 0.60 0.60 0.68 0.77 0.70 0.75 0.77 0.65 0.48 0.58 0.75 0.64 0.60
0.77 0.59 0.66 0.73 0.75 0.87 0.92 0.88 0.79 0.73 0.61 0.71 0.73 0.83 0.50 0.59 0.62 0.54 0.49 0.53 0.61 0.59 0.40 0.39 0.42 0.47 0.65 0.62 0.65 0.64 0.58 0.63 0.60 0.55 0.60 0.65 0.61 0.69 0.65 0.61 0.70 0.63 0.58 0.65 0.62 0.57 0.52 0.52 0.50 0.55 0.48 0.48 0.44 0.50
0.83 0.52 0.41 0.38 0.38 0.50 0.87 0.69 0.32 0.28 0.56 0.75 0.95 0.84 0.63 0.70 0.80 0.77 0.60 0.53 0.57 0.57 0.50 0.52 0.57 0.57 0.69 0.79 0.76 0.72 0.69 0.61 0.70 0.91 1.08 1.15 1.01 0.86 0.83 0.68 0.62 0.63 0.60 0.62 0.62 0.61 0.56 0.48 0.49 0.46 0.43 0.43 0.45 0.53
1.28 1.20 0.86 0.65 0.49 0.62 0.46 0.40 0.18 0.22 0.51 0.63 0.79 0.73 0.61 0.88 0.79 0.63 0.47 0.40 0.35 0.47 0.73 0.82 1.05 1.16 1.12 1.15 0.95 0.83 0.86 0.85 0.67 0.78 1.17 1.21 1.13 0.88 0.92 0.70 0.66 0.57 0.49 0.48 0.51 0.49 0.39 0.40 0.44 0.43 0.43 0.43 0.38 0.42
1.45 1.49 1.10 0.71 0.51 0.43 0.49 0.50 0.39 0.32 0.38 0.50 0.71 0.47 0.67 0.50 0.46 0.42 0.34 0.20 0.29 0.67 0.96 1.19 1.26 1.57 1.53 1.25 1.06 0.79 0.86 0.67 0.77 0.57 0.68 0.90 1.03 0.63 0.72 0.69 0.57 0.50 0.44 0.43 0.40 0.52 0.43 0.36 0.39 0.34 0.32 0.37 0.34 0.29
0.89 0.69 0.61 0.46 0.32 0.12 0.25 0.34 0.28 0.34 0.31 0.56 0.57 0.38 0.48 0.50 0.45 0.43 0.21 0.28 0.78 1.13 1.31 1.26 1.17 1.17 0.99 1.01 1.01 0.84 0.86 0.62 0.60 0.60 0.62 0.49 0.63 0.57 0.58 0.62 0.45 0.48 0.49 0.49 0.38 0.40 0.38 0.30 0.26 0.26 0.23 0.22 0.20 0.21
0.44 0.37 0.36 0.36 0.25 0.20 0.43 0.49 0.34 0.50 0.44 0.54 0.38 0.31 0.40 0.41 0.43 0.18 0.32 0.63 0.93 1.21 1.25 1.06 1.06 0.99 0.83 0.97 0.61 0.68 0.79 0.43 0.47 0.55 0.56 0.51 0.50 0.49 0.41 0.50 0.50 0.42 0.40 0.44 0.35 0.30 0.28 0.25 0.22 0.20 0.18 0.15 0.16 0.18
0.36 0.41 0.44 0.33 0.23 0.28 0.18 0.16 0.21 0.27 0.28 0.28 0.24 0.36 0.45 0.43 0.23 0.16 0.38 0.64 0.99 0.84 0.74 0.85 0.75 0.74 0.57 0.43 0.47 0.57 0.83 0.59 0.39 0.45 0.54 0.37 0.28 0.44 0.37 0.38 0.40 0.39 0.31 0.25 0.23 0.20 0.19 0.18 0.16 0.15 0.17 0.23 0.25 0.24
0.72 0.59 0.32 0.19 0.08 0.07 0.05 0.07 0.10 0.11 0.21 0.17 0.16 0.31 0.41 0.26 0.16 0.24 0.37 0.64 0.57 0.63 0.73 0.74 0.62 0.57 0.54 0.60 0.59 0.59 0.64 0.54 0.38 0.28 0.52 0.48 0.40 0.36 0.32 0.28 0.26 0.25 0.19 0.17 0.22 0.25 0.21 0.20 0.23 0.23 0.20 0.18 0.16 0.13
0.57 0.28 0.13 0.10 0.09 0.06 0.04 0.06 0.08 0.10 0.09 0.11 0.17 0.21 0.16 0.09 0.09 0.20 0.32 0.49 0.47 0.52 0.60 0.62 0.64 0.51 0.50 0.53 0.49 0.48 0.53 0.46 0.35 0.30 0.41 0.40 0.40 0.36 0.34 0.27 0.20 0.19 0.16 0.15 0.21 0.21 0.16 0.12 0.11 0.11 0.10 0.08 0.11 0.15
0.29 0.14 0.05 0.04 0.10 0.11 0.07 0.06 0.05 0.07 0.10 0.15 0.16 0.15 0.16 0.14 0.15 0.32 0.34 0.34 0.35 0.47 0.44 0.43 0.38 0.37 0.43 0.48 0.47 0.48 0.36 0.29 0.29 0.28 0.22 0.16 0.14 0.15 0.22 0.31 0.35 0.33 0.19 0.16 0.18 0.21 0.20 0.15 0.13 0.10 0.12 0.11 0.15 0.21
0.09 0.03 0.06 0.08 0.10 0.11 0.11 0.11 0.11 0.15 0.16 0.16 0.15 0.13 0.20 0.16 0.30 0.40 0.43 0.48 0.41 0.34 0.31 0.31 0.28 0.25 0.26 0.28 0.30 0.30 0.31 0.27 0.20 0.13 0.07 0.12 0.13 0.14 0.15 0.19 0.22 0.18 0.15 0.16 0.18 0.17 0.19 0.20 0.20 0.19 0.20 0.22 0.20 0.18
0.08 0.06 0.05 0.06 0.14 0.19 0.23 0.22 0.24 0.26 0.23 0.24 0.18 0.20 0.25 0.39 0.65 0.54 0.56 0.45 0.34 0.24 0.24 0.26 0.34 0.25 0.19 0.16 0.17 0.20 0.18 0.19 0.22 0.20 0.17 0.20 0.25 0.24 0.17 0.15 0.13 0.14 0.14 0.13 0.15 0.22 0.23 0.25 0.22 0.24 0.27 0.25 0.24 0.27
0.11 0.16 0.18 0.11 0.18 0.30 0.43 0.32 0.33 0.29 0.20 0.16 0.15 0.18 0.20 0.44 0.68 0.49 0.34 0.29 0.24 0.26 0.28 0.24 0.25 0.17 0.19 0.16 0.16 0.15 0.18 0.16 0.20 0.28 0.24 0.20 0.24 0.23 0.18 0.19 0.19 0.18 0.18 0.22 0.21 0.18 0.19 0.19 0.22 0.31 0.29 0.29 0.32 0.33
0.15 0.17 0.16 0.15 0.25 0.28 0.23 0.20 0.18 0.13 0.10 0.09 0.07 0.12 0.21 0.32 0.35 0.26 0.27 0.34 0.23 0.21 0.16 0.15 0.16 0.19 0.16 0.14 0.17 0.16 0.18 0.20 0.15 0.16 0.20 0.21 0.23 0.23 0.24 0.22 0.23 0.21 0.20 0.20 0.18 0.19 0.20 0.22 0.28 0.28 0.23 0.20 0.21 0.20
0.08 0.09 0.11 0.15 0.22 0.21 0.24 0.32 0.21 0.16 0.14 0.10 0.13 0.11 0.16 0.14 0.18 0.26 0.24 0.26 0.14 0.13 0.17 0.16 0.15 0.16 0.19 0.19 0.21 0.20 0.20 0.19 0.15 0.16 0.19 0.21 0.22 0.21 0.18 0.16 0.17 0.16 0.14 0.13 0.14 0.14 0.13 0.15 0.16 0.13 0.13 0.11 0.12 0.11
0.09 0.10 0.11 0.12 0.14 0.14 0.16 0.18 0.13 0.11 0.10 0.10 0.14 0.15 0.15 0.15 0.28 0.34 0.23 0.19 0.21 0.20 0.21 0.22 0.23 0.25 0.27 0.23 0.22 0.20 0.17 0.16 0.15 0.14 0.15 0.15 0.13 0.11 0.11 0.11 0.12 0.11 0.10 0.11 0.11 0.12 0.10 0.09 0.10 0.12 0.11 0.11 0.10 0.08

GFSWCAN_prec_precacc_123.txt.gz
Total_Precipitation_Accumulation
1.71 1.18 0.83 0.71 0.72 0.90 0.84 0.91 0.88 0.91 0.88 0.67 0.56 0.58 0.76 0.86 1.06 1.58 1.70 1.33 1.69 1.81 0.50 0.28 0.21 0.23 0.22 0.28 0.39 0.40 0.62 0.60 0.69 0.74 0.45 0.23 0.26 0.24 0.29 0.27 0.97 1.37 1.41 1.03 0.86 0.88 0.41 0.12 0.36 0.68 0.65 0.38 0.50 0.95
1.58 1.28 0.92 0.72 0.81 0.85 0.84 0.94 0.86 0.84 0.79 0.63 0.55 0.59 0.63 0.71 0.96 1.60 1.73 1.27 1.34 2.20 1.13 0.48 0.21 0.11 0.13 0.07 0.20 0.30 0.42 0.51 0.89 1.04 0.83 0.57 0.34 0.32 0.22 0.34 0.86 1.24 1.07 1.02 0.66 0.47 0.22 0.13 0.34 0.46 0.34 0.42 0.50 0.37
1.78 1.30 1.04 0.88 0.90 0.87 0.86 0.91 0.77 0.76 0.76 0.63 0.59 0.62 0.71 0.70 0.97 1.58 1.55 1.23 1.93 2.92 1.70 0.64 0.28 0.07 0.14 0.08 0.15 0.44 0.14 0.08 0.24 0.62 1.04 0.73 0.52 0.32 0.32 0.35 0.60 0.88 0.86 1.32 0.78 0.42 0.31 0.28 0.25 0.31 0.49 0.42 0.24 0.31
1.69 1.53 1.19 0.93 1.09 1.35 1.15 1.10 0.76 0.72 0.77 0.68 0.61 0.65 0.70 0.96 1.15 1.48 1.61 1.59 2.02 2.94 1.80 0.75 0.39 0.24 0.12 0.15 0.06 0.23 0.19 0.25 0.45 0.68 1.19 0.92 0.57 0.28 0.16 0.17 0.30 0.89 0.83 0.90 1.22 1.37 0.85 0.46 0.47 0.46 0.42 0.47 0.52 0.31
1.60 1.41 1.22 1.14 1.43 1.24 0.98 0.84 0.84 0.88 0.89 0.70 0.67 0.72 0.97 1.24 1.54 1.89 1.69 1.51 1.62 2.05 1.48 0.65 0.45 0.30 0.27 0.24 0.16 0.25 0.49 0.63 0.90 0.95 0.97 0.52 0.21 0.27 0.18 0.16 0.41 0.30 0.33 0.68 1.10 1.16 1.44 1.05 1.24 0.96 0.69 0.39 0.29 0.16
1.30 1.27 1.20 1.22 1.20 1.07 0.82 0.75 0.82 0.96 0.96 0.85 0.84 0.97 1.43 1.74 2.19 3.92 4.72 2.41 1.39 1.61 2.75 1.25 0.52 0.40 0.49 0.44 0.37 0.19 0.30 0.83 1.29 1.30 0.65 0.28 0.15 0.56 0.65 0.26 0.07 0.02 0.14 0.44 0.44 0.57 0.81 1.04 0.74 0.36 0.34 0.39 0.20 0.08
1.25 1.11 1.00 0.99 1.00 0.92 0.83 0.80 0.97 1.07 0.99 0.97 1.06 1.43 1.72 2.11 3.11 4.09 2.71 1.53 1.06 1.75 3.64 2.14 0.81 0.47 0.69 0.58 0.44 0.36 0.34 0.62 1.02 1.63 1.11 0.40 0.22 0.82 0.80 0.25 0.03 0.01 0.04 0.10 0.09 0.13 0.25 0.24 0.25 0.18 0.15 0.21 0.13 0.05
1.28 1.09 0.98 0.84 0.80 0.75 0.77 0.82 0.93 1.01 1.08 1.29 1.49 1.74 2.18 3.51 4.01 2.65 1.56 1.43 0.99 1.81 2.51 2.31 1.17 0.93 1.15 0.77 0.56 0.34 0.42 0.71 0.90 1.00 0.82 0.63 0.49 0.76 0.69 0.10 0.00 0.00 0.01 0.01 0.02 0.05 0.14 0.08 0.05 0.08 0.06 0.06 0.04 0.06
1.38 1.11 0.86 0.66 0.61 0.73 0.66 0.74 0.92 1.11 1.33 1.95 2.67 3.83 5.53 5.52 3.95 2.08 2.10 2.42 2.02 2.22 2.25 1.44 1.34 1.44 1.67 1.27 0.81 0.97 0.96 1.16 0.83 0.70 0.43 0.72 0.69 0.65 0.27 0.04 0.02 0.02 0.02 0.02 0.01 0.01 0.02 0.04 0.04 0.05 0.04 0.05 0.08 0.08
1.00 0.91 0.80 0.69 0.69 0.74 0.66 0.72 1.03 1.63 2.47 3.89 5.72 6.87 6.65 3.71 1.86 2.13 3.91 4.25 4.00 2.92 1.96 0.96 0.87 1.55 1.70 1.79 1.41 1.81 1.66 0.99 0.76 0.30 0.40 0.57 0.42 0.23 0.13 0.16 0.04 0.02 0.01 0.01 0.01 0.03 0.04 0.05 0.08 0.08 0.07 0.05 0.03 0.03
0.97 0.96 1.01 0.93 0.91 0.94 0.86 0.99 1.40 2.60 4.64 5.73 5.02 3.71 2.91 2.38 2.18 2.95 3.41 2.68 1.93 1.25 0.66 0.30 0.32 1.03 1.48 1.74 1.45 1.50 1.95 1.16 0.57 0.25 0.48 0.46 0.29 0.25 0.23 0.20 0.09 0.03 0.02 0.01 0.01 0.02 0.07 0.12 0.07 0.01 0.01 0.01 0.03 0.05
1.17 1.03 0.97 0.96 1.03 1.14 1.09 1.16 1.57 2.46 3.34 2.92 2.19 2.27 2.87 2.78 2.59 2.24 2.03 1.40 0.55 0.18 0.10 0.16 0.21 0.59 1.50 1.77 1.67 1.48 1.16 1.38 0.67 0.40 0.54 0.33 0.21 0.07 0.06 0.07 0.10 0.11 0.07 0.07 0.10 0.09 0.05 0.02 0.03 0.03 0.03 0.05 0.09 0.15
1.33 1.19 1.16 1.23 1.17 1.30 1.32 1.24 1.11 1.59 2.03 2.37 2.37 2.80 2.87 2.68 2.07 1.36 0.83 0.46 0.21 0.11 0.11 0.16 0.34 0.42 0.96 1.45 1.74 1.58 1.20 0.93 0.70 0.69 0.38 0.17 0.12 0.09 0.05 0.03 0.04 0.08 0.15 0.07 0.04 0.04 0.04 0.05 0.06 0.08 0.12 0.20 0.26 0.35
1.30 1.16 1.07 1.27 1.37 1.37 1.44 1.38 1.56 2.25 2.33 2.86 3.05 2.79 2.15 1.67 1.10 0.65 0.26 0.14 0.12 0.12 0.11 0.14 0.34 0.68 0.90 1.00 1.25 1.50 1.53 0.94 1.03 0.59 0.31 0.30 0.20 0.16 0.13 0.09 0.04 0.04 0.15 0.42 0.26 0.10 0.11 0.14 0.18 0.28 0.38 0.44 0.39 0.49
0.94 0.90 1.12 1.37 1.41 1.38 1.35 1.34 1.68 1.51 1.50 2.01 1.30 1.27 1.14 0.81 0.60 0.49 0.27 0.18 0.19 0.18 0.19 0.38 0.66 0.97 1.16 1.35 1.10 0.94 1.24 1.16 0.76 0.56 0.58 0.56 0.28 0.17 0.16 0.18 0.21 0.23 0.25 0.37 0.59 0.61 0.50 0.46 0.47 0.58 0.63 0.61 0.46 0.50
0.65 1.05 1.37 1.38 1.31 1.22 1.30 1.68 1.49 1.16 1.11 0.94 0.83 0.87 0.68 0.57 0.71 0.57 0.45 0.43 0.42 0.45 0.54 0.90 1.24 1.24 1.39 1.08 1.02 0.78 0.70 0.59 0.66 0.47 0.45 0.33 0.35 0.33 0.33 0.35 0.44 0.51 0.59 0.69 0.79 0.84 0.88 0.78 0.68 0.79 0.85 0.74 0.74 0.61
0.70 1.06 0.99 0.95 1.02 1.09 1.29 1.49 1.14 1.28 1.17 0.73 0.72 0.63 0.50 0.55 0.74 0.66 0.57 0.58 0.57 0.64 0.76 0.82 1.01 1.03 0.93 0.73 0.69 0.51 0.57 0.49 0.38 0.38 0.44 0.43 0.43 0.48 0.53 0.54 0.63 0.60 0.60 0.68 0.77 0.70 0.75 0.77 0.65 0.49 0.58 0.75 0.65 0.60
0.78 0.60 0.67 0.75 0.85 1.06 1.07 0.93 0.80 0.75 0.63 0.72 0.73 0.84 0.50 0.60 0.63 0.55 0.49 0.53 0.61 0.60 0.42 0.43 0.45 0.50 0.67 0.64 0.66 0.64 0.59 0.63 0.61 0.55 0.60 0.66 0.61 0.69 0.65 0.61 0.70 0.63 0.58 0.65 0.62 0.57 0.52 0.52 0.50 0.56 0.49 0.48 0.45 0.51
0.86 0.53 0.41 0.42 0.45 0.53 0.90 0.73 0.34 0.29 0.56 0.75 0.95 0.84 0.63 0.70 0.81 0.78 0.61 0.54 0.57 0.57 0.50 0.52 0.58 0.58 0.69 0.79 0.76 0.73 0.69 0.62 0.71 0.92 1.08 1.15 1.01 0.86 0.83 0.68 0.62 0.63 0.60 0.62 0.62 0.61 0.56 0.48 0.49 0.47 0.43 0.43 0.45 0.53
1.30 1.21 0.88 0.67 0.50 0.63 0.47 0.41 0.18 0.22 0.52 0.64 0.79 0.74 0.61 0.89 0.80 0.65 0.49 0.41 0.36 0.51 0.76 0.83 1.06 1.16 1.13 1.15 0.95 0.84 0.86 0.86 0.68 0.78 1.19 1.21 1.14 0.88 0.93 0.71 0.67 0.58 0.49 0.48 0.51 0.49 0.39 0.40 0.44 0.43 0.43 0.44 0.39 0.43
1.52 1.54 1.14 0.73 0.53 0.46 0.51 0.51 0.39 0.32 0.39 0.53 0.72 0.48 0.68 0.51 0.48 0.44 0.36 0.22 0.31 0.69 0.97 1.19 1.27 1.58 1.53 1.26 1.06 0.80 0.87 0.67 0.77 0.57 0.68 0.91 1.04 0.64 0.72 0.70 0.57 0.51 0.44 0.44 0.41 0.53 0.43 0.36 0.39 0.34 0.33 0.38 0.34 0.30
1.02 0.83 0.73 0.48 0.34 0.14 0.25 0.36 0.29 0.34 0.31 0.57 0.58 0.39 0.50 0.52 0.47 0.44 0.22 0.30 0.78 1.14 1.32 1.26 1.18 1.18 1.00 1.02 1.02 0.84 0.87 0.62 0.60 0.60 0.62 0.49 0.64 0.57 0.59 0.63 0.45 0.49 0.49 0.50 0.38 0.40 0.39 0.30 0.26 0.26 0.24 0.23 0.21 0.22
0.50 0.42 0.39 0.40 0.31 0.25 0.45 0.51 0.36 0.50 0.44 0.55 0.38 0.32 0.41 0.42 0.44 0.18 0.33 0.64 0.94 1.21 1.26 1.07 1.06 0.99 0.83 0.98 0.61 0.68 0.79 0.43 0.47 0.55 0.57 0.51 0.50 0.50 0.41 0.50 0.50 0.42 0.40 0.45 0.35 0.31 0.29 0.25 0.22 0.21 0.18 0.16 0.16 0.19
0.37 0.46 0.49 0.38 0.29 0.33 0.20 0.17 0.22 0.27 0.28 0.28 0.24 0.36 0.45 0.43 0.23 0.16 0.39 0.65 1.00 0.85 0.75 0.86 0.76 0.75 0.57 0.43 0.47 0.58 0.83 0.59 0.39 0.45 0.54 0.37 0.28 0.44 0.37 0.38 0.41 0.39 0.31 0.26 0.23 0.21 0.20 0.19 0.17 0.16 0.17 0.24 0.26 0.24
0.79 0.65 0.36 0.23 0.10 0.09 0.05 0.07 0.11 0.11 0.22 0.17 0.16 0.31 0.41 0.26 0.16 0.24 0.37 0.64 0.58 0.64 0.73 0.75 0.62 0.58 0.55 0.60 0.60 0.59 0.64 0.54 0.39 0.28 0.52 0.49 0.41 0.37 0.32 0.28 0.26 0.25 0.20 0.18 0.23 0.26 0.21 0.20 0.23 0.24 0.21 0.18 0.16 0.14
0.60 0.30 0.14 0.10 0.09 0.06 0.04 0.06 0.08 0.10 0.09 0.12 0.17 0.22 0.16 0.09 0.09 0.20 0.32 0.50 0.47 0.53 0.61 0.63 0.64 0.51 0.51 0.53 0.50 0.49 0.53 0.46 0.35 0.30 0.42 0.40 0.40 0.37 0.34 0.27 0.21 0.20 0.16 0.16 0.22 0.22 0.17 0.13 0.12 0.11 0.10 0.09 0.11 0.16
0.29 0.14 0.05 0.04 0.10 0.11 0.07 0.06 0.05 0.07 0.10 0.15 0.16 0.15 0.16 0.14 0.15 0.33 0.34 0.34 0.36 0.47 0.45 0.43 0.39 0.37 0.44 0.48 0.47 0.48 0.36 0.29 0.29 0.28 0.22 0.16 0.14 0.15 0.22 0.31 0.36 0.33 0.19 0.17 0.19 0.22 0.22 0.16 0.13 0.11 0.13 0.12 0.15 0.21
0.09 0.03 0.06 0.08 0.10 0.11 0.11 0.11 0.11 0.15 0.16 0.16 0.15 0.13 0.20 0.16 0.31 0.41 0.43 0.48 0.41 0.35 0.31 0.31 0.29 0.25 0.26 0.28 0.30 0.30 0.31 0.28 0.20 0.13 0.08 0.12 0.13 0.14 0.15 0.20 0.23 0.18 0.15 0.17 0.19 0.18 0.20 0.21 0.21 0.20 0.21 0.22 0.20 0.18
0.08 0.06 0.05 0.06 0.14 0.19 0.23 0.22 0.24 0.26 0.24 0.24 0.19 0.21 0.25 0.40 0.65 0.55 0.56 0.45 0.35 0.25 0.24 0.27 0.35 0.25 0.19 0.17 0.17 0.20 0.18 0.20 0.23 0.21 0.17 0.21 0.26 0.25 0.17 0.16 0.14 0.14 0.14 0.15 0.16 0.22 0.23 0.25 0.23 0.25 0.28 0.26 0.25 0.28
0.11 0.16 0.18 0.11 0.18 0.30 0.43 0.32 0.34 0.30 0.21 0.16 0.15 0.18 0.21 0.45 0.69 0.50 0.35 0.30 0.25 0.27 0.28 0.25 0.25 0.18 0.19 0.17 0.17 0.15 0.18 0.16 0.20 0.28 0.25 0.21 0.25 0.23 0.18 0.19 0.19 0.18 0.19 0.22 0.22 0.18 0.19 0.19 0.22 0.31 0.30 0.29 0.33 0.33
0.15 0.17 0.16 0.15 0.25 0.28 0.24 0.21 0.18 0.13 0.10 0.09 0.08 0.12 0.22 0.33 0.36 0.26 0.28 0.34 0.24 0.21 0.16 0.15 0.16 0.19 0.16 0.14 0.17 0.16 0.19 0.20 0.15 0.16 0.20 0.21 0.23 0.24 0.24 0.23 0.23 0.22 0.20 0.20 0.18 0.19 0.21 0.22 0.28 0.28 0.23 0.20 0.22 0.20
0.08 0.09 0.11 0.15 0.22 0.21 0.25 0.33 0.21 0.16 0.14 0.10 0.13 0.11 0.16 0.14 0.19 0.26 0.24 0.27 0.15 0.13 0.17 0.16 0.15 0.16 0.19 0.19 0.22 0.20 0.20 0.19 0.15 0.16 0.19 0.21 0.22 0.21 0.18 0.17 0.17 0.16 0.15 0.13 0.14 0.14 0.13 0.15 0.16 0.13 0.14 0.12 0.12 0.11
0.09 0.10 0.11 0.12 0.14 0.14 0.16 0.18 0.13 0.11 0.10 0.10 0.14 0.15 0.15 0.15 0.28 0.34 0.23 0.19 0.21 0.20 0.21 0.22 0.23 0.25 0.27 0.23 0.22 0.20 0.17 0.16 0.15 0.14 0.15 0.15 0.13 0.11 0.11 0.12 0.12 0.12 0.10 0.11 0.12 0.13 0.10 0.09 0.10 0.12 0.11 0.11 0.10 0.08

GFSWCAN_prec_precacc_126.txt.gz
Total_Precipitation_Accumulation
1.73 1.18 0.83 0.71 0.72 0.90 0.84 0.91 0.88 0.91 0.88 0.67 0.56 0.58 0.76 0.86 1.06 1.58 1.70 1.33 1.69 1.81 0.50 0.28 0.21 0.23 0.22 0.28 0.40 0.40 0.63 0.61 0.69 0.75 0.47 0.25 0.28 0.26 0.31 0.29 1.01 1.42 1.43 1.05 0.95 1.05 0.63 0.19 0.38 0.78 0.83 0.41 0.51 0.98
1.60 1.30 0.92 0.72 0.81 0.86 0.85 0.94 0.87 0.84 0.79 0.63 0.55 0.59 0.63 0.71 0.96 1.60 1.74 1.27 1.34 2.20 1.13 0.48 0.21 0.11 0.13 0.07 0.20 0.30 0.42 0.51 0.89 1.05 0.85 0.58 0.36 0.33 0.24 0.36 0.88 1.28 1.13 1.16 0.82 0.62 0.38 0.27 0.46 0.58 0.41 0.46 0.56 0.48
1.82 1.33 1.05 0.88 0.91 0.88 0.86 0.92 0.78 0.77 0.78 0.63 0.59 0.62 0.71 0.70 0.97 1.59 1.56 1.23 1.93 2.92 1.70 0.64 0.28 0.07 0.14 0.08 0.15 0.44 0.14 0.08 0.25 0.63 1.06 0.75 0.53 0.33 0.33 0.36 0.62 0.90 0.92 1.37 0.87 0.48 0.33 0.38 0.31 0.39 0.60 0.55 0.35 0.37
1.73 1.62 1.24 0.96 1.10 1.36 1.16 1.11 0.76 0.73 0.78 0.68 0.61 0.65 0.70 0.96 1.15 1.49 1.63 1.60 2.03 2.95 1.81 0.75 0.39 0.24 0.12 0.15 0.06 0.23 0.19 0.25 0.45 0.68 1.20 0.93 0.58 0.28 0.16 0.18 0.31 0.93 0.87 0.91 1.27 1.40 0.86 0.48 0.50 0.51 0.50 0.55 0.57 0.34
1.64 1.51 1.36 1.19 1.45 1.25 0.99 0.84 0.84 0.89 0.90 0.70 0.67 0.73 0.97 1.24 1.55 1.91 1.73 1.54 1.63 2.06 1.50 0.65 0.45 0.30 0.27 0.24 0.16 0.25 0.49 0.63 0.91 0.96 0.98 0.53 0.21 0.27 0.18 0.16 0.48 0.31 0.34 0.70 1.12 1.18 1.47 1.06 1.25 0.97 0.70 0.40 0.29 0.17
1.32 1.37 1.35 1.30 1.22 1.08 0.84 0.76 0.83 0.96 0.96 0.85 0.84 0.98 1.43 1.75 2.21 3.95 4.73 2.42 1.39 1.61 2.76 1.26 0.52 0.40 0.49 0.44 0.37 0.19 0.30 0.83 1.30 1.31 0.66 0.28 0.15 0.57 0.67 0.27 0.10 0.02 0.14 0.44 0.45 0.57 0.82 1.05 0.74 0.36 0.34 0.39 0.20 0.08
1.26 1.15 1.11 1.07 1.02 0.94 0.84 0.81 0.98 1.07 0.99 0.97 1.06 1.43 1.73 2.11 3.13 4.12 2.72 1.55 1.06 1.75 3.66 2.15 0.81 0.47 0.69 0.58 0.44 0.36 0.35 0.62 1.02 1.64 1.11 0.40 0.22 0.84 0.82 0.26 0.06 0.01 0.04 0.10 0.09 0.13 0.25 0.24 0.25 0.18 0.15 0.21 0.13 0.05
1.28 1.10 1.02 0.89 0.82 0.77 0.78 0.83 0.94 1.02 1.08 1.30 1.49 1.74 2.19 3.52 4.03 2.66 1.57 1.43 0.99 1.82 2.53 2.32 1.18 0.94 1.15 0.78 0.58 0.35 0.42 0.71 0.90 1.01 0.82 0.64 0.51 0.79 0.71 0.10 0.00 0.00 0.01 0.01 0.02 0.05 0.14 0.08 0.05 0.08 0.06 0.06 0.04 0.06
1.38 1.12 0.87 0.69 0.63 0.75 0.68 0.75 0.94 1.12 1.33 1.95 2.68 3.85 5.55 5.56 3.98 2.12 2.11 2.42 2.03 2.24 2.27 1.45 1.35 1.47 1.69 1.32 0.91 1.02 0.98 1.18 0.84 0.71 0.44 0.73 0.71 0.69 0.28 0.04 0.02 0.02 0.02 0.02 0.01 0.01 0.02 0.04 0.04 0.05 0.04 0.05 0.08 0.08
1.00 0.91 0.81 0.72 0.72 0.77 0.69 0.72 1.04 1.64 2.48 3.91 5.74 6.90 6.68 3.73 1.88 2.14 3.92 4.26 4.01 2.94 1.97 0.97 0.88 1.56 1.71 1.85 1.47 1.82 1.67 1.00 0.81 0.31 0.41 0.59 0.44 0.24 0.13 0.16 0.04 0.02 0.01 0.01 0.01 0.03 0.04 0.05 0.08 0.08 0.07 0.05 0.03 0.03
0.97 0.96 1.02 0.96 0.97 0.99 0.93 1.00 1.41 2.62 4.67 5.76 5.04 3.74 2.94 2.38 2.19 2.98 3.43 2.70 1.95 1.26 0.67 0.30 0.32 1.03 1.48 1.74 1.47 1.52 1.98 1.20 0.60 0.31 0.51 0.50 0.33 0.25 0.23 0.20 0.09 0.03 0.02 0.01 0.01 0.02 0.07 0.12 0.07 0.01 0.01 0.01 0.03 0.05
1.17 1.03 0.98 0.98 1.11 1.23 1.18 1.18 1.58 2.47 3.37 2.94 2.21 2.30 2.89 2.81 2.61 2.26 2.06 1.41 0.56 0.18 0.10 0.16 0.21 0.59 1.51 1.77 1.68 1.50 1.18 1.40 0.69 0.45 0.57 0.36 0.22 0.07 0.06 0.07 0.10 0.11 0.07 0.07 0.10 0.09 0.05 0.02 0.03 0.03 0.03 0.05 0.09 0.15
1.34 1.20 1.18 1.26 1.27 1.42 1.39 1.25 1.12 1.59 2.05 2.43 2.41 2.81 2.89 2.70 2.10 1.37 0.84 0.47 0.21 0.11 0.12 0.16 0.34 0.42 0.97 1.46 1.76 1.59 1.21 0.94 0.73 0.72 0.40 0.18 0.12 0.09 0.05 0.03 0.04 0.08 0.15 0.07 0.04 0.04 0.04 0.05 0.06 0.08 0.12 0.20 0.26 0.36
1.32 1.18 1.09 1.32 1.46 1.48 1.47 1.39 1.57 2.27 2.41 2.90 3.07 2.83 2.19 1.71 1.10 0.65 0.26 0.14 0.12 0.12 0.12 0.15 0.34 0.69 0.91 1.00 1.26 1.51 1.54 0.95 1.04 0.60 0.33 0.30 0.20 0.16 0.13 0.09 0.04 0.04 0.15 0.42 0.26 0.10 0.11 0.14 0.18 0.28 0.38 0.44 0.39 0.50
0.97 0.93 1.17 1.42 1.50 1.46 1.37 1.36 1.69 1.55 1.57 2.03 1.33 1.33 1.15 0.83 0.63 0.52 0.30 0.20 0.20 0.20 0.21 0.39 0.67 0.99 1.20 1.36 1.11 0.95 1.26 1.18 0.78 0.59 0.59 0.56 0.28 0.17 0.16 0.18 0.21 0.23 0.25 0.37 0.59 0.61 0.50 0.46 0.47 0.58 0.63 0.61 0.46 0.50
0.69 1.11 1.43 1.43 1.41 1.29 1.32 1.72 1.59 1.27 1.15 0.95 0.86 0.96 0.73 0.60 0.73 0.57 0.45 0.45 0.43 0.48 0.59 0.96 1.28 1.25 1.41 1.09 1.06 0.79 0.72 0.62 0.68 0.47 0.45 0.33 0.35 0.33 0.33 0.35 0.44 0.51 0.59 0.69 0.79 0.85 0.88 0.78 0.68 0.79 0.86 0.74 0.74 0.62
0.77 1.18 1.03 0.99 1.07 1.16 1.35 1.71 1.33 1.36 1.18 0.74 0.75 0.68 0.55 0.57 0.76 0.67 0.58 0.58 0.57 0.66 0.79 0.86 1.03 1.05 0.98 0.79 0.72 0.53 0.60 0.50 0.38 0.39 0.44 0.43 0.43 0.48 0.54 0.54 0.63 0.61 0.61 0.68 0.78 0.70 0.75 0.77 0.65 0.49 0.59 0.76 0.65 0.61
0.83 0.62 0.69 0.79 0.93 1.15 1.23 1.09 0.86 0.76 0.63 0.72 0.74 0.86 0.51 0.60 0.63 0.55 0.49 0.53 0.61 0.60 0.45 0.46 0.48 0.55 0.71 0.69 0.73 0.65 0.59 0.63 0.61 0.55 0.61 0.66 0.62 0.69 0.65 0.61 0.70 0.63 0.59 0.66 0.63 0.57 0.54 0.53 0.50 0.56 0.49 0.48 0.45 0.52
0.89 0.56 0.44 0.47 0.51 0.62 1.04 0.80 0.36 0.29 0.56 0.75 0.95 0.85 0.63 0.70 0.81 0.78 0.61 0.54 0.58 0.58 0.51 0.54 0.61 0.62 0.72 0.79 0.77 0.74 0.70 0.62 0.72 0.92 1.09 1.15 1.01 0.86 0.83 0.69 0.62 0.65 0.61 0.62 0.62 0.62 0.56 0.49 0.50 0.47 0.44 0.43 0.46 0.55
1.31 1.22 0.89 0.70 0.54 0.69 0.49 0.42 0.18 0.22 0.52 0.64 0.79 0.74 0.61 0.89 0.80 0.66 0.50 0.43 0.40 0.57 0.82 0.86 1.07 1.17 1.13 1.16 0.96 0.84 0.87 0.86 0.68 0.80 1.21 1.23 1.14 0.89 0.93 0.71 0.67 0.58 0.50 0.49 0.52 0.50 0.39 0.40 0.44 0.44 0.43 0.44 0.40 0.44
1.55 1.57 1.19 0.79 0.54 0.47 0.51 0.51 0.39 0.32 0.39 0.53 0.72 0.48 0.69 0.51 0.48 0.45 0.38 0.25 0.36 0.72 0.98 1.20 1.27 1.59 1.54 1.26 1.07 0.81 0.87 0.68 0.78 0.58 0.70 0.93 1.04 0.64 0.72 0.70 0.58 0.51 0.44 0.44 0.41 0.53 0.43 0.37 0.39 0.34 0.34 0.38 0.35 0.31
1.06 0.88 0.81 0.50 0.35 0.15 0.25 0.36 0.29 0.34 0.31 0.57 0.59 0.40 0.52 0.55 0.49 0.45 0.22 0.32 0.80 1.15 1.33 1.28 1.18 1.18 1.00 1.02 1.02 0.84 0.87 0.62 0.60 0.60 0.62 0.49 0.64 0.58 0.59 0.63 0.46 0.50 0.50 0.50 0.39 0.41 0.39 0.31 0.27 0.27 0.24 0.24 0.21 0.22
0.52 0.44 0.39 0.40 0.31 0.25 0.46 0.51 0.37 0.51 0.44 0.55 0.39 0.32 0.42 0.43 0.44 0.18 0.34 0.64 0.94 1.22 1.27 1.07 1.07 1.00 0.83 0.98 0.61 0.68 0.79 0.43 0.47 0.55 0.57 0.52 0.51 0.50 0.42 0.50 0.51 0.43 0.41 0.45 0.36 0.31 0.29 0.26 0.22 0.21 0.19 0.16 0.17 0.20
0.38 0.47 0.51 0.38 0.29 0.34 0.21 0.19 0.23 0.28 0.29 0.28 0.25 0.36 0.46 0.44 0.23 0.16 0.40 0.65 1.01 0.85 0.75 0.86 0.76 0.75 0.58 0.44 0.48 0.58 0.84 0.60 0.39 0.46 0.55 0.38 0.28 0.45 0.37 0.39 0.41 0.39 0.31 0.26 0.24 0.21 0.21 0.19 0.17 0.16 0.18 0.24 0.27 0.25
0.84 0.67 0.37 0.24 0.12 0.11 0.08 0.09 0.11 0.12 0.22 0.18 0.16 0.32 0.41 0.27 0.16 0.24 0.37 0.65 0.59 0.65 0.74 0.75 0.63 0.59 0.57 0.61 0.60 0.60 0.64 0.54 0.39 0.28 0.52 0.49 0.41 0.38 0.33 0.29 0.27 0.25 0.20 0.19 0.24 0.27 0.22 0.21 0.24 0.24 0.22 0.19 0.17 0.15
0.66 0.31 0.16 0.12 0.10 0.07 0.05 0.07 0.09 0.10 0.09 0.12 0.17 0.22 0.16 0.10 0.10 0.20 0.32 0.50 0.48 0.54 0.62 0.64 0.65 0.52 0.51 0.54 0.51 0.49 0.53 0.46 0.35 0.31 0.42 0.40 0.41 0.38 0.35 0.28 0.23 0.21 0.17 0.17 0.23 0.23 0.19 0.13 0.12 0.12 0.11 0.10 0.11 0.16
0.34 0.17 0.05 0.04 0.10 0.11 0.07 0.06 0.05 0.07 0.11 0.15 0.16 0.15 0.16 0.14 0.15 0.33 0.34 0.35 0.37 0.48 0.45 0.44 0.39 0.37 0.44 0.49 0.48 0.48 0.36 0.29 0.30 0.29 0.23 0.16 0.14 0.16 0.23 0.32 0.36 0.34 0.20 0.18 0.20 0.23 0.24 0.17 0.14 0.11 0.13 0.13 0.16 0.22
0.11 0.03 0.06 0.08 0.10 0.11 0.12 0.11 0.11 0.15 0.16 0.16 0.15 0.13 0.20 0.16 0.31 0.42 0.44 0.49 0.42 0.35 0.31 0.31 0.29 0.25 0.27 0.29 0.31 0.31 0.31 0.28 0.20 0.13 0.08 0.12 0.13 0.14 0.15 0.20 0.23 0.18 0.16 0.18 0.19 0.19 0.21 0.23 0.22 0.21 0.22 0.23 0.21 0.18
0.08 0.06 0.05 0.06 0.14 0.19 0.23 0.22 0.25 0.26 0.24 0.25 0.19 0.21 0.25 0.40 0.67 0.56 0.57 0.45 0.35 0.25 0.25 0.27 0.35 0.26 0.19 0.17 0.17 0.20 0.19 0.20 0.24 0.21 0.17 0.23 0.28 0.26 0.17 0.16 0.14 0.15 0.15 0.16 0.17 0.23 0.23 0.25 0.23 0.25 0.29 0.27 0.26 0.29
0.11 0.16 0.18 0.11 0.18 0.30 0.44 0.33 0.34 0.30 0.21 0.17 0.15 0.18 0.21 0.45 0.70 0.50 0.36 0.30 0.26 0.28 0.29 0.25 0.26 0.18 0.20 0.18 0.17 0.15 0.19 0.17 0.21 0.29 0.26 0.22 0.26 0.24 0.18 0.20 0.19 0.18 0.19 0.23 0.23 0.19 0.19 0.20 0.23 0.32 0.30 0.30 0.34 0.34
0.15 0.17 0.16 0.15 0.26 0.29 0.25 0.22 0.19 0.14 0.10 0.09 0.08 0.12 0.22 0.33 0.36 0.27 0.29 0.35 0.24 0.21 0.16 0.16 0.16 0.19 0.17 0.15 0.18 0.16 0.19 0.21 0.15 0.16 0.20 0.22 0.23 0.24 0.24 0.23 0.23 0.22 0.21 0.21 0.18 0.20 0.21 0.23 0.29 0.29 0.23 0.21 0.22 0.20
0.08 0.09 0.11 0.15 0.23 0.22 0.26 0.34 0.22 0.17 0.15 0.10 0.13 0.12 0.16 0.14 0.19 0.26 0.25 0.27 0.15 0.14 0.18 0.16 0.15 0.17 0.19 0.19 0.22 0.20 0.20 0.19 0.15 0.16 0.19 0.21 0.22 0.21 0.19 0.17 0.17 0.16 0.15 0.14 0.14 0.14 0.13 0.15 0.16 0.14 0.14 0.12 0.12 0.11
0.09 0.10 0.12 0.13 0.15 0.15 0.16 0.19 0.13 0.12 0.10 0.11 0.14 0.15 0.15 0.15 0.28 0.35 0.23 0.19 0.22 0.20 0.21 0.22 0.23 0.25 0.27 0.23 0.22 0.20 0.17 0.16 0.15 0.14 0.15 0.15 0.13 0.11 0.11 0.12 0.12 0.12 0.11 0.11 0.12 0.13 0.10 0.09 0.10 0.12 0.11 0.11 0.10 0.08

GFSWCAN_prec_precacc_132.txt.gz
Total_Precipitation_Accumulation
1.80 1.23 0.86 0.73 0.73 0.91 0.85 0.91 0.88 0.92 0.88 0.67 0.56 0.58 0.76 0.86 1.06 1.58 1.70 1.33 1.69 1.81 0.50 0.28 0.21 0.23 0.22 0.28 0.40 0.40 0.63 0.61 0.69 0.75 0.47 0.25 0.28 0.27 0.31 0.30 1.03 1.44 1.44 1.06 0.97 1.07 0.69 0.21 0.40 0.85 0.93 0.52 0.66 1.14
1.66 1.33 0.94 0.73 0.81 0.87 0.85 0.94 0.88 0.86 0.80 0.63 0.55 0.59 0.63 0.71 0.96 1.60 1.74 1.27 1.34 2.20 1.13 0.48 0.21 0.11 0.13 0.07 0.20 0.30 0.42 0.51 0.89 1.05 0.85 0.58 0.36 0.33 0.24 0.37 0.89 1.28 1.20 1.23 0.92 0.76 0.49 0.35 0.59 0.74 0.62 0.67 0.77 0.71
1.87 1.35 1.06 0.89 0.91 0.88 0.87 0.92 0.79 0.78 0.78 0.63 0.59 0.62 0.71 0.70 0.97 1.59 1.56 1.23 1.93 2.92 1.70 0.64 0.28 0.07 0.14 0.08 0.15 0.44 0.14 0.08 0.25 0.63 1.06 0.75 0.53 0.33 0.33 0.36 0.62 0.91 0.94 1.38 0.96 0.62 0.36 0.53 0.39 0.48 0.72 0.67 0.41 0.42
1.80 1.65 1.25 0.96 1.11 1.36 1.17 1.11 0.77 0.74 0.78 0.68 0.61 0.65 0.70 0.96 1.15 1.49 1.64 1.60 2.03 2.95 1.81 0.75 0.39 0.24 0.12 0.15 0.06 0.23 0.19 0.25 0.45 0.68 1.20 0.93 0.58 0.28 0.16 0.18 0.31 0.95 0.89 0.91 1.29 1.43 0.89 0.55 0.56 0.54 0.52 0.56 0.58 0.34
1.75 1.55 1.38 1.20 1.45 1.26 1.00 0.85 0.85 0.90 0.90 0.70 0.67 0.73 0.97 1.24 1.55 1.91 1.73 1.55 1.63 2.07 1.51 0.65 0.45 0.30 0.27 0.24 0.16 0.25 0.49 0.63 0.91 0.97 0.99 0.53 0.21 0.27 0.18 0.16 0.52 0.32 0.34 0.70 1.14 1.24 1.53 1.11 1.26 0.97 0.70 0.40 0.29 0.17
1.44 1.46 1.41 1.34 1.24 1.09 0.84 0.77 0.84 0.97 0.97 0.85 0.84 0.98 1.43 1.75 2.21 3.96 4.73 2.42 1.39 1.61 2.76 1.26 0.52 0.40 0.49 0.44 0.37 0.19 0.30 0.83 1.30 1.32 0.66 0.28 0.15 0.58 0.68 0.27 0.10 0.02 0.14 0.44 0.45 0.57 0.85 1.06 0.74 0.36 0.34 0.39 0.20 0.08
1.37 1.28 1.24 1.20 1.08 0.96 0.86 0.82 0.99 1.08 1.00 0.97 1.06 1.44 1.73 2.11 3.14 4.12 2.73 1.55 1.06 1.75 3.66 2.15 0.81 0.47 0.69 0.58 0.44 0.36 0.35 0.62 1.03 1.65 1.12 0.40 0.22 0.84 0.82 0.26 0.07 0.01 0.04 0.10 0.09 0.13 0.25 0.24 0.25 0.18 0.15 0.21 0.13 0.05
1.36 1.19 1.20 1.11 0.94 0.82 0.81 0.85 0.96 1.04 1.08 1.30 1.50 1.77 2.20 3.53 4.04 2.67 1.58 1.43 0.99 1.83 2.53 2.32 1.18 0.94 1.15 0.78 0.59 0.35 0.42 0.71 0.91 1.01 0.82 0.64 0.51 0.80 0.73 0.11 0.00 0.00 0.01 0.01 0.02 0.05 0.14 0.08 0.05 0.08 0.06 0.06 0.04 0.06
1.41 1.16 1.01 0.96 0.77 0.83 0.72 0.78 0.96 1.14 1.35 1.96 2.70 3.87 5.56 5.56 3.99 2.14 2.11 2.42 2.03 2.24 2.28 1.45 1.35 1.49 1.69 1.33 0.99 1.13 0.98 1.18 0.85 0.72 0.44 0.73 0.72 0.73 0.29 0.05 0.02 0.02 0.02 0.02 0.01 0.01 0.02 0.04 0.04 0.05 0.04 0.05 0.08 0.08
1.02 0.92 0.92 0.98 0.89 0.86 0.75 0.75 1.07 1.65 2.49 3.91 5.75 6.90 6.69 3.73 1.88 2.14 3.92 4.27 4.01 2.94 1.98 0.97 0.88 1.56 1.71 1.87 1.60 1.84 1.67 1.00 0.84 0.32 0.42 0.60 0.46 0.25 0.13 0.16 0.04 0.02 0.01 0.01 0.01 0.03 0.04 0.05 0.08 0.08 0.07 0.05 0.03 0.03
0.98 0.97 1.10 1.18 1.16 1.08 0.97 1.03 1.42 2.63 4.68 5.76 5.05 3.76 2.95 2.39 2.19 2.99 3.43 2.71 1.95 1.26 0.67 0.30 0.32 1.03 1.48 1.75 1.49 1.54 1.99 1.21 0.62 0.34 0.58 0.55 0.38 0.26 0.23 0.20 0.09 0.03 0.02 0.01 0.01 0.02 0.07 0.12 0.07 0.01 0.01 0.01 0.03 0.05
1.19 1.04 1.07 1.17 1.28 1.30 1.22 1.19 1.58 2.47 3.37 2.94 2.22 2.30 2.90 2.82 2.62 2.26 2.07 1.41 0.56 0.18 0.10 0.16 0.21 0.59 1.51 1.77 1.69 1.51 1.19 1.41 0.70 0.48 0.75 0.59 0.27 0.08 0.06 0.07 0.10 0.11 0.07 0.07 0.10 0.09 0.05 0.02 0.03 0.03 0.03 0.05 0.09 0.15
1.35 1.22 1.25 1.38 1.42 1.51 1.45 1.26 1.12 1.59 2.05 2.46 2.44 2.81 2.90 2.71 2.11 1.38 0.85 0.48 0.21 0.11 0.12 0.16 0.34 0.42 0.98 1.47 1.76 1.60 1.21 0.95 0.75 0.78 0.43 0.19 0.12 0.09 0.05 0.03 0.04 0.08 0.15 0.07 0.04 0.04 0.04 0.05 0.06 0.08 0.12 0.20 0.26 0.36
1.33 1.18 1.13 1.42 1.64 1.65 1.53 1.40 1.57 2.30 2.44 2.91 3.07 2.83 2.20 1.72 1.10 0.65 0.26 0.14 0.12 0.12 0.13 0.15 0.34 0.69 0.92 1.01 1.26 1.51 1.54 0.96 1.06 0.61 0.35 0.30 0.20 0.16 0.13 0.09 0.04 0.04 0.15 0.42 0.26 0.10 0.11 0.14 0.18 0.28 0.38 0.44 0.39 0.50
0.98 0.93 1.19 1.52 1.71 1.72 1.42 1.37 1.72 1.58 1.60 2.04 1.33 1.34 1.15 0.83 0.64 0.53 0.31 0.21 0.21 0.22 0.23 0.39 0.67 1.00 1.21 1.37 1.11 0.96 1.28 1.19 0.79 0.61 0.61 0.57 0.28 0.17 0.16 0.18 0.21 0.23 0.25 0.37 0.59 0.61 0.50 0.46 0.47 0.58 0.63 0.61 0.46 0.50
0.72 1.17 1.47 1.51 1.62 1.58 1.40 1.81 1.67 1.32 1.17 0.96 0.87 0.97 0.74 0.61 0.74 0.57 0.46 0.46 0.45 0.53 0.65 0.99 1.30 1.25 1.42 1.10 1.08 0.80 0.74 0.65 0.72 0.50 0.46 0.33 0.35 0.33 0.33 0.35 0.44 0.51 0.59 0.69 0.79 0.85 0.88 0.78 0.68 0.79 0.86 0.75 0.74 0.62
0.84 1.24 1.09 1.08 1.37 1.57 1.56 1.88 1.45 1.45 1.23 0.75 0.75 0.68 0.56 0.61 0.78 0.67 0.58 0.59 0.57 0.70 0.87 0.97 1.11 1.06 0.99 0.82 0.74 0.56 0.63 0.52 0.43 0.44 0.47 0.43 0.43 0.48 0.54 0.55 0.64 0.61 0.61 0.69 0.78 0.70 0.76 0.78 0.65 0.50 0.59 0.76 0.65 0.62
0.93 0.65 0.74 0.98 1.79 1.71 1.42 1.18 0.91 0.80 0.65 0.72 0.74 0.87 0.51 0.61 0.64 0.56 0.49 0.53 0.61 0.61 0.46 0.54 0.57 0.59 0.73 0.71 0.77 0.71 0.67 0.73 0.67 0.59 0.62 0.66 0.62 0.69 0.65 0.62 0.70 0.63 0.59 0.66 0.63 0.58 0.55 0.53 0.50 0.56 0.49 0.48 0.45 0.52
0.94 0.59 0.62 0.96 0.93 0.82 1.18 0.88 0.39 0.30 0.57 0.75 0.95 0.85 0.63 0.70 0.81 0.78 0.61 0.54 0.58 0.58 0.52 0.56 0.66 0.66 0.74 0.80 0.78 0.78 0.74 0.65 0.74 0.93 1.09 1.15 1.01 0.86 0.83 0.69 0.63 0.66 0.61 0.63 0.63 0.62 0.57 0.50 0.50 0.47 0.44 0.43 0.46 0.55
1.36 1.30 1.07 0.85 0.58 0.72 0.51 0.46 0.22 0.24 0.52 0.64 0.79 0.74 0.61 0.89 0.80 0.66 0.51 0.43 0.40 0.61 0.88 0.90 1.09 1.18 1.14 1.16 0.97 0.85 0.87 0.87 0.69 0.81 1.23 1.24 1.14 0.89 0.93 0.71 0.67 0.58 0.50 0.50 0.54 0.50 0.39 0.40 0.44 0.44 0.43 0.44 0.40 0.44
1.65 1.80 1.48 0.93 0.61 0.50 0.51 0.52 0.42 0.33 0.39 0.53 0.72 0.48 0.69 0.52 0.48 0.45 0.38 0.25 0.38 0.75 1.00 1.20 1.28 1.60 1.55 1.27 1.07 0.81 0.87 0.68 0.78 0.60 0.74 0.95 1.05 0.64 0.72 0.70 0.58 0.51 0.45 0.45 0.42 0.54 0.43 0.37 0.39 0.35 0.34 0.39 0.36 0.31
1.45 1.18 1.04 0.55 0.37 0.15 0.26 0.36 0.29 0.34 0.31 0.57 0.59 0.40 0.52 0.56 0.50 0.46 0.23 0.33 0.81 1.15 1.34 1.29 1.19 1.20 1.01 1.03 1.03 0.85 0.87 0.63 0.60 0.61 0.63 0.50 0.65 0.58 0.59 0.63 0.46 0.51 0.50 0.50 0.39 0.41 0.40 0.31 0.27 0.27 0.25 0.24 0.22 0.22
0.64 0.53 0.42 0.40 0.31 0.25 0.46 0.51 0.38 0.51 0.45 0.55 0.39 0.33 0.42 0.43 0.45 0.19 0.36 0.65 0.95 1.22 1.28 1.08 1.08 1.02 0.85 0.99 0.61 0.68 0.80 0.44 0.47 0.56 0.57 0.52 0.51 0.50 0.42 0.50 0.51 0.43 0.42 0.45 0.36 0.31 0.29 0.26 0.22 0.21 0.19 0.17 0.18 0.22
0.40 0.48 0.51 0.38 0.29 0.34 0.21 0.19 0.24 0.29 0.29 0.29 0.25 0.37 0.46 0.44 0.23 0.16 0.41 0.66 1.01 0.86 0.75 0.86 0.76 0.76 0.58 0.45 0.49 0.60 0.86 0.60 0.40 0.46 0.56 0.39 0.29 0.45 0.37 0.39 0.41 0.39 0.31 0.29 0.24 0.22 0.21 0.20 0.18 0.17 0.18 0.26 0.27 0.26
0.85 0.67 0.37 0.25 0.12 0.11 0.08 0.10 0.12 0.12 0.23 0.18 0.17 0.32 0.42 0.27 0.17 0.25 0.38 0.66 0.59 0.66 0.75 0.76 0.64 0.60 0.60 0.62 0.61 0.60 0.65 0.55 0.40 0.28 0.52 0.49 0.41 0.40 0.36 0.30 0.27 0.25 0.20 0.19 0.25 0.29 0.23 0.21 0.25 0.24 0.22 0.19 0.17 0.16
0.67 0.32 0.16 0.12 0.10 0.07 0.06 0.08 0.09 0.10 0.10 0.12 0.18 0.22 0.16 0.10 0.10 0.21 0.33 0.51 0.49 0.54 0.62 0.65 0.67 0.53 0.55 0.55 0.51 0.50 0.53 0.46 0.35 0.31 0.42 0.40 0.41 0.38 0.37 0.31 0.25 0.22 0.17 0.17 0.23 0.24 0.22 0.14 0.12 0.12 0.12 0.10 0.11 0.16
0.34 0.17 0.05 0.04 0.11 0.11 0.08 0.07 0.06 0.08 0.12 0.16 0.17 0.15 0.17 0.15 0.16 0.34 0.36 0.36 0.37 0.48 0.45 0.44 0.39 0.38 0.44 0.49 0.48 0.48 0.36 0.29 0.30 0.29 0.23 0.16 0.14 0.16 0.23 0.32 0.36 0.34 0.20 0.18 0.20 0.24 0.24 0.19 0.15 0.11 0.14 0.14 0.16 0.22
0.13 0.04 0.06 0.08 0.10 0.11 0.12 0.11 0.12 0.15 0.16 0.16 0.15 0.14 0.21 0.16 0.32 0.43 0.45 0.50 0.42 0.35 0.31 0.31 0.29 0.25 0.27 0.29 0.31 0.31 0.31 0.28 0.20 0.13 0.08 0.13 0.13 0.14 0.15 0.20 0.23 0.18 0.16 0.20 0.19 0.19 0.21 0.23 0.23 0.22 0.22 0.24 0.21 0.18
0.09 0.07 0.06 0.07 0.15 0.19 0.23 0.22 0.25 0.26 0.24 0.25 0.20 0.21 0.26 0.41 0.69 0.57 0.58 0.45 0.35 0.25 0.25 0.27 0.36 0.26 0.19 0.17 0.18 0.20 0.19 0.21 0.25 0.22 0.18 0.25 0.29 0.27 0.17 0.16 0.15 0.15 0.15 0.17 0.19 0.23 0.23 0.25 0.23 0.25 0.29 0.27 0.27 0.30
0.12 0.16 0.18 0.12 0.18 0.30 0.44 0.33 0.35 0.30 0.21 0.17 0.15 0.19 0.21 0.46 0.73 0.52 0.36 0.31 0.26 0.29 0.30 0.26 0.26 0.19 0.20 0.18 0.17 0.16 0.19 0.17 0.21 0.29 0.26 0.23 0.26 0.24 0.18 0.20 0.19 0.18 0.19 0.23 0.23 0.20 0.20 0.20 0.24 0.34 0.31 0.30 0.34 0.35
0.15 0.17 0.16 0.15 0.26 0.29 0.25 0.22 0.19 0.14 0.11 0.10 0.09 0.13 0.23 0.34 0.37 0.27 0.31 0.37 0.26 0.22 0.16 0.16 0.17 0.20 0.17 0.16 0.19 0.17 0.20 0.21 0.15 0.16 0.20 0.22 0.23 0.24 0.24 0.23 0.23 0.22 0.21 0.21 0.18 0.20 0.21 0.23 0.29 0.29 0.23 0.21 0.22 0.20
0.09 0.11 0.11 0.15 0.23 0.23 0.27 0.35 0.23 0.17 0.16 0.11 0.14 0.12 0.17 0.15 0.19 0.26 0.25 0.27 0.15 0.14 0.18 0.16 0.16 0.18 0.20 0.19 0.22 0.20 0.20 0.19 0.15 0.16 0.19 0.21 0.22 0.21 0.19 0.17 0.17 0.16 0.15 0.14 0.14 0.14 0.13 0.15 0.16 0.14 0.14 0.12 0.12 0.11
0.13 0.13 0.13 0.14 0.16 0.16 0.18 0.22 0.15 0.13 0.11 0.11 0.15 0.15 0.16 0.16 0.29 0.36 0.23 0.20 0.22 0.21 0.21 0.23 0.23 0.25 0.27 0.23 0.22 0.20 0.17 0.16 0.15 0.14 0.15 0.15 0.13 0.11 0.11 0.12 0.12 0.12 0.11 0.11 0.12 0.13 0.10 0.09 0.10 0.12 0.11 0.11 0.10 0.08

GFSWCAN_prec_precacc_135.txt.gz
Total_Precipitation_Accumulation
1.90 1.31 0.91 0.74 0.74 0.91 0.86 0.92 0.89 0.92 0.88 0.67 0.56 0.58 0.76 0.86 1.06 1.58 1.70 1.33 1.69 1.81 0.50 0.28 0.21 0.23 0.22 0.28 0.40 0.40 0.63 0.61 0.69 0.75 0.47 0.25 0.28 0.27 0.31 0.30 1.03 1.44 1.44 1.06 0.98 1.07 0.69 0.21 0.40 0.85 0.95 0.54 0.68 1.16
1.72 1.38 0.96 0.74 0.82 0.87 0.86 0.95 0.88 0.86 0.80 0.63 0.55 0.59 0.63 0.71 0.96 1.60 1.74 1.27 1.34 2.20 1.13 0.48 0.21 0.11 0.13 0.07 0.20 0.30 0.42 0.51 0.89 1.05 0.85 0.58 0.36 0.33 0.24 0.37 0.89 1.28 1.20 1.23 0.92 0.76 0.50 0.36 0.61 0.77 0.66 0.71 0.80 0.73
1.90 1.38 1.08 0.89 0.91 0.89 0.87 0.92 0.79 0.78 0.78 0.63 0.59 0.62 0.71 0.70 0.97 1.59 1.56 1.23 1.93 2.92 1.70 0.64 0.28 0.07 0.14 0.08 0.15 0.44 0.14 0.08 0.25 0.63 1.06 0.75 0.53 0.33 0.33 0.36 0.62 0.91 0.94 1.38 0.97 0.63 0.36 0.53 0.40 0.48 0.72 0.69 0.43 0.42
1.83 1.67 1.26 0.97 1.11 1.36 1.17 1.12 0.77 0.74 0.78 0.68 0.61 0.65 0.70 0.96 1.15 1.49 1.64 1.60 2.03 2.95 1.81 0.75 0.39 0.24 0.12 0.15 0.06 0.23 0.19 0.25 0.45 0.68 1.20 0.93 0.58 0.28 0.16 0.18 0.31 0.95 0.89 0.91 1.29 1.43 0.90 0.57 0.56 0.54 0.52 0.56 0.58 0.34
1.76 1.56 1.39 1.21 1.45 1.26 1.00 0.85 0.85 0.90 0.90 0.70 0.67 0.73 0.97 1.24 1.55 1.91 1.73 1.55 1.63 2.07 1.51 0.65 0.45 0.30 0.27 0.24 0.16 0.25 0.49 0.63 0.91 0.97 0.99 0.53 0.21 0.27 0.18 0.16 0.52 0.32 0.34 0.70 1.14 1.24 1.53 1.12 1.26 0.97 0.70 0.40 0.29 0.17
1.46 1.46 1.41 1.34 1.24 1.09 0.85 0.77 0.84 0.97 0.97 0.85 0.84 0.98 1.43 1.75 2.21 3.96 4.73 2.42 1.39 1.61 2.76 1.26 0.52 0.40 0.49 0.44 0.37 0.19 0.30 0.83 1.30 1.32 0.66 0.28 0.15 0.58 0.68 0.27 0.10 0.02 0.14 0.44 0.45 0.57 0.85 1.06 0.74 0.36 0.34 0.39 0.20 0.08
1.39 1.29 1.25 1.20 1.09 0.96 0.86 0.82 0.99 1.09 1.00 0.97 1.06 1.44 1.73 2.11 3.14 4.12 2.73 1.55 1.06 1.75 3.66 2.15 0.81 0.47 0.69 0.58 0.44 0.36 0.35 0.62 1.03 1.65 1.12 0.40 0.22 0.84 0.82 0.26 0.07 0.01 0.04 0.10 0.09 0.13 0.25 0.24 0.25 0.18 0.15 0.21 0.13 0.05
1.39 1.21 1.21 1.11 0.94 0.82 0.81 0.86 0.96 1.04 1.09 1.30 1.50 1.77 2.20 3.53 4.04 2.67 1.58 1.43 0.99 1.83 2.53 2.32 1.18 0.94 1.15 0.78 0.59 0.35 0.42 0.71 0.91 1.01 0.82 0.64 0.51 0.80 0.73 0.11 0.00 0.00 0.01 0.01 0.02 0.05 0.14 0.08 0.05 0.08 0.06 0.06 0.04 0.06
1.47 1.19 1.03 0.97 0.78 0.83 0.72 0.79 0.97 1.15 1.35 1.96 2.70 3.87 5.56 5.56 3.99 2.14 2.11 2.42 2.03 2.24 2.28 1.45 1.35 1.49 1.69 1.33 0.99 1.13 0.98 1.18 0.85 0.72 0.44 0.73 0.72 0.73 0.29 0.05 0.02 0.02 0.02 0.02 0.01 0.01 0.02 0.04 0.04 0.05 0.04 0.05 0.08 0.08
1.08 0.96 0.95 0.99 0.89 0.87 0.76 0.77 1.08 1.65 2.49 3.91 5.75 6.90 6.69 3.73 1.88 2.14 3.92 4.27 4.01 2.94 1.98 0.97 0.88 1.56 1.71 1.87 1.60 1.84 1.67 1.00 0.84 0.32 0.42 0.60 0.46 0.25 0.13 0.16 0.04 0.02 0.01 0.01 0.01 0.03 0.04 0.05 0.08 0.08 0.07 0.05 0.03 0.03
1.04 1.01 1.15 1.21 1.17 1.12 1.02 1.04 1.42 2.63 4.68 5.76 5.05 3.76 2.95 2.39 2.19 2.99 3.43 2.71 1.95 1.26 0.67 0.30 0.32 1.03 1.48 1.75 1.49 1.54 1.99 1.21 0.63 0.35 0.59 0.56 0.38 0.26 0.23 0.20 0.09 0.03 0.02 0.01 0.01 0.02 0.07 0.12 0.07 0.01 0.01 0.01 0.03 0.05
1.21 1.07 1.12 1.24 1.34 1.34 1.24 1.19 1.58 2.47 3.37 2.94 2.22 2.30 2.90 2.82 2.62 2.26 2.07 1.41 0.56 0.18 0.10 0.16 0.21 0.59 1.51 1.77 1.69 1.51 1.19 1.41 0.70 0.49 0.78 0.62 0.31 0.08 0.06 0.07 0.10 0.11 0.07 0.07 0.10 0.09 0.05 0.02 0.03 0.03 0.03 0.05 0.09 0.15
1.37 1.24 1.32 1.54 1.52 1.53 1.45 1.26 1.12 1.59 2.05 2.46 2.44 2.81 2.90 2.71 2.11 1.38 0.85 0.48 0.21 0.11 0.12 0.16 0.34 0.42 0.98 1.47 1.76 1.60 1.21 0.95 0.75 0.79 0.44 0.19 0.12 0.09 0.05 0.03 0.04 0.08 0.15 0.07 0.04 0.04 0.04 0.05 0.06 0.08 0.12 0.20 0.26 0.36
1.35 1.23 1.26 1.61 1.70 1.66 1.53 1.40 1.57 2.30 2.44 2.91 3.07 2.83 2.20 1.72 1.10 0.65 0.26 0.14 0.12 0.12 0.13 0.15 0.34 0.69 0.92 1.01 1.26 1.51 1.54 0.96 1.06 0.61 0.35 0.30 0.20 0.16 0.13 0.09 0.04 0.04 0.15 0.42 0.26 0.10 0.11 0.14 0.18 0.28 0.38 0.44 0.39 0.50
1.00 1.01 1.39 1.69 1.73 1.72 1.42 1.37 1.72 1.58 1.60 2.04 1.33 1.34 1.15 0.83 0.64 0.53 0.31 0.21 0.21 0.22 0.23 0.39 0.67 1.00 1.21 1.37 1.11 0.96 1.28 1.19 0.79 0.61 0.61 0.57 0.28 0.17 0.16 0.18 0.21 0.23 0.25 0.37 0.59 0.61 0.50 0.46 0.47 0.58 0.63 0.61 0.46 0.50
0.75 1.30 1.73 1.70 1.66 1.58 1.41 1.81 1.67 1.32 1.17 0.96 0.87 0.97 0.74 0.61 0.74 0.57 0.46 0.46 0.45 0.53 0.65 0.99 1.30 1.25 1.42 1.10 1.08 0.80 0.75 0.65 0.72 0.51 0.48 0.36 0.36 0.33 0.33 0.35 0.44 0.51 0.59 0.69 0.79 0.85 0.88 0.78 0.68 0.79 0.86 0.75 0.74 0.62
0.84 1.28 1.26 1.25 1.45 1.61 1.57 1.88 1.45 1.45 1.23 0.75 0.75 0.68 0.56 0.61 0.78 0.67 0.58 0.59 0.57 0.70 0.87 0.98 1.11 1.06 0.99 0.82 0.75 0.56 0.63 0.52 0.43 0.45 0.51 0.47 0.44 0.48 0.54 0.55 0.64 0.61 0.61 0.69 0.78 0.70 0.76 0.78 0.65 0.50 0.59 0.76 0.65 0.62
0.93 0.67 0.86 1.12 2.03 1.81 1.49 1.21 0.91 0.80 0.65 0.72 0.74 0.87 0.51 0.61 0.64 0.56 0.49 0.53 0.61 0.61 0.47 0.57 0.62 0.61 0.73 0.71 0.77 0.71 0.67 0.73 0.70 0.64 0.66 0.67 0.62 0.69 0.65 0.62 0.70 0.63 0.59 0.66 0.63 0.58 0.55 0.53 0.50 0.56 0.49 0.48 0.45 0.52
0.94 0.61 0.73 1.14 1.08 0.89 1.26 0.92 0.39 0.30 0.57 0.75 0.95 0.85 0.63 0.70 0.81 0.78 0.61 0.54 0.58 0.58 0.52 0.56 0.66 0.66 0.75 0.80 0.78 0.78 0.74 0.65 0.74 0.93 1.09 1.15 1.01 0.86 0.83 0.69 0.63 0.66 0.61 0.63 0.63 0.62 0.57 0.50 0.50 0.47 0.44 0.43 0.46 0.55
1.38 1.30 1.09 0.96 0.71 0.76 0.52 0.47 0.22 0.24 0.52 0.64 0.79 0.74 0.61 0.89 0.80 0.66 0.51 0.43 0.40 0.61 0.88 0.90 1.09 1.18 1.14 1.16 0.97 0.85 0.87 0.87 0.69 0.81 1.24 1.24 1.14 0.89 0.93 0.71 0.67 0.58 0.50 0.50 0.54 0.50 0.39 0.40 0.44 0.44 0.43 0.44 0.40 0.44
1.69 1.87 1.65 1.12 0.72 0.54 0.51 0.52 0.42 0.33 0.39 0.53 0.72 0.48 0.69 0.52 0.48 0.45 0.38 0.25 0.38 0.75 1.00 1.20 1.28 1.60 1.55 1.27 1.07 0.81 0.87 0.68 0.78 0.60 0.74 0.95 1.05 0.64 0.72 0.70 0.58 0.51 0.45 0.45 0.42 0.54 0.43 0.37 0.39 0.35 0.34 0.39 0.36 0.31
1.57 1.44 1.25 0.62 0.38 0.16 0.26 0.36 0.29 0.34 0.31 0.57 0.59 0.40 0.52 0.56 0.50 0.46 0.23 0.33 0.81 1.15 1.34 1.29 1.19 1.20 1.02 1.03 1.03 0.85 0.87 0.63 0.61 0.62 0.64 0.50 0.66 0.58 0.59 0.63 0.46 0.51 0.50 0.50 0.39 0.41 0.40 0.31 0.27 0.27 0.25 0.24 0.22 0.22
0.85 0.63 0.45 0.42 0.31 0.25 0.46 0.51 0.38 0.51 0.45 0.56 0.39 0.33 0.42 0.43 0.45 0.19 0.36 0.65 0.95 1.22 1.28 1.08 1.08 1.02 0.85 0.99 0.61 0.68 0.80 0.44 0.49 0.58 0.58 0.52 0.51 0.50 0.42 0.50 0.51 0.43 0.42 0.45 0.36 0.31 0.29 0.26 0.22 0.21 0.19 0.17 0.18 0.22
0.48 0.49 0.52 0.39 0.29 0.35 0.21 0.19 0.24 0.29 0.29 0.29 0.25 0.37 0.46 0.44 0.23 0.16 0.41 0.66 1.01 0.86 0.75 0.86 0.76 0.76 0.58 0.45 0.50 0.61 0.87 0.60 0.41 0.47 0.56 0.40 0.29 0.45 0.37 0.39 0.41 0.39 0.31 0.29 0.24 0.22 0.21 0.20 0.18 0.17 0.18 0.26 0.27 0.26
0.86 0.68 0.37 0.25 0.12 0.11 0.08 0.10 0.12 0.12 0.23 0.18 0.17 0.32 0.42 0.27 0.17 0.25 0.38 0.66 0.60 0.66 0.75 0.76 0.64 0.60 0.60 0.63 0.61 0.60 0.65 0.55 0.40 0.29 0.53 0.49 0.41 0.40 0.36 0.30 0.27 0.25 0.20 0.19 0.25 0.29 0.23 0.21 0.25 0.24 0.22 0.19 0.17 0.16
0.67 0.32 0.16 0.12 0.10 0.07 0.06 0.08 0.09 0.10 0.10 0.12 0.18 0.22 0.16 0.10 0.10 0.21 0.33 0.51 0.49 0.54 0.62 0.65 0.67 0.53 0.55 0.55 0.51 0.50 0.54 0.46 0.35 0.31 0.42 0.40 0.41 0.38 0.37 0.31 0.25 0.22 0.17 0.17 0.23 0.24 0.22 0.14 0.12 0.12 0.12 0.10 0.11 0.16
0.34 0.17 0.05 0.04 0.11 0.11 0.08 0.07 0.06 0.08 0.12 0.16 0.17 0.16 0.17 0.15 0.16 0.34 0.36 0.36 0.37 0.48 0.45 0.44 0.39 0.38 0.44 0.49 0.48 0.48 0.36 0.29 0.30 0.29 0.23 0.16 0.14 0.16 0.23 0.32 0.36 0.34 0.20 0.18 0.20 0.24 0.24 0.19 0.16 0.11 0.14 0.14 0.16 0.22
0.13 0.04 0.06 0.08 0.10 0.11 0.12 0.11 0.12 0.15 0.16 0.16 0.15 0.14 0.21 0.16 0.32 0.44 0.45 0.50 0.42 0.35 0.31 0.31 0.29 0.25 0.27 0.29 0.31 0.31 0.31 0.28 0.20 0.13 0.08 0.13 0.13 0.14 0.15 0.20 0.23 0.18 0.16 0.20 0.19 0.19 0.21 0.23 0.23 0.22 0.22 0.24 0.21 0.18
0.09 0.07 0.06 0.07 0.15 0.19 0.23 0.22 0.25 0.26 0.24 0.25 0.20 0.21 0.26 0.41 0.69 0.57 0.59 0.46 0.35 0.25 0.25 0.28 0.37 0.26 0.19 0.17 0.18 0.20 0.19 0.21 0.25 0.22 0.18 0.25 0.29 0.27 0.17 0.16 0.15 0.15 0.15 0.17 0.19 0.23 0.23 0.25 0.23 0.25 0.29 0.27 0.28 0.30
0.12 0.16 0.18 0.12 0.18 0.30 0.44 0.33 0.35 0.30 0.21 0.17 0.15 0.19 0.21 0.46 0.73 0.52 0.36 0.31 0.26 0.29 0.30 0.26 0.26 0.19 0.20 0.18 0.17 0.16 0.19 0.17 0.21 0.29 0.26 0.23 0.26 0.24 0.18 0.20 0.19 0.18 0.19 0.23 0.23 0.20 0.20 0.20 0.24 0.34 0.31 0.30 0.34 0.35
0.15 0.17 0.16 0.15 0.26 0.29 0.25 0.22 0.19 0.14 0.11 0.10 0.09 0.13 0.23 0.34 0.37 0.28 0.31 0.37 0.26 0.22 0.16 0.16 0.17 0.20 0.17 0.16 0.19 0.17 0.20 0.21 0.15 0.16 0.20 0.22 0.23 0.24 0.24 0.23 0.23 0.22 0.21 0.21 0.18 0.20 0.21 0.23 0.29 0.29 0.23 0.21 0.22 0.20
0.10 0.11 0.11 0.15 0.23 0.23 0.27 0.35 0.23 0.17 0.16 0.11 0.14 0.12 0.17 0.15 0.19 0.26 0.25 0.27 0.15 0.14 0.18 0.16 0.16 0.18 0.20 0.19 0.22 0.20 0.20 0.19 0.15 0.16 0.19 0.21 0.22 0.21 0.19 0.17 0.17 0.16 0.15 0.14 0.14 0.14 0.13 0.15 0.16 0.14 0.14 0.12 0.12 0.11
0.13 0.13 0.13 0.14 0.16 0.17 0.18 0.22 0.16 0.13 0.11 0.11 0.15 0.15 0.16 0.16 0.29 0.36 0.23 0.20 0.22 0.21 0.21 0.23 0.23 0.25 0.27 0.23 0.22 0.20 0.17 0.16 0.15 0.14 0.15 0.15 0.13 0.11 0.11 0.12 0.12 0.12 0.11 0.11 0.12 0.13 0.10 0.09 0.10 0.12 0.11 0.11 0.10 0.08

GFSWCAN_prec_precacc_138.txt.gz
Total_Precipitation_Accumulation
2.07 1.44 1.04 0.83 0.79 0.95 0.88 0.93 0.89 0.92 0.88 0.67 0.56 0.58 0.76 0.86 1.06 1.58 1.70 1.33 1.69 1.81 0.50 0.28 0.21 0.23 0.22 0.28 0.40 0.40 0.63 0.61 0.69 0.75 0.47 0.25 0.28 0.27 0.31 0.30 1.03 1.44 1.44 1.06 0.98 1.07 0.69 0.21 0.40 0.86 0.96 0.55 0.72 1.20
1.84 1.47 1.03 0.77 0.83 0.88 0.87 0.95 0.88 0.86 0.80 0.63 0.55 0.59 0.63 0.71 0.96 1.60 1.74 1.27 1.34 2.20 1.13 0.48 0.21 0.11 0.13 0.07 0.20 0.30 0.42 0.51 0.89 1.05 0.85 0.58 0.36 0.33 0.24 0.37 0.89 1.28 1.20 1.23 0.92 0.76 0.50 0.36 0.61 0.77 0.67 0.72 0.84 0.75
1.98 1.43 1.11 0.91 0.92 0.89 0.88 0.93 0.79 0.78 0.78 0.63 0.59 0.62 0.71 0.70 0.97 1.59 1.56 1.23 1.93 2.92 1.70 0.64 0.28 0.07 0.14 0.08 0.15 0.44 0.14 0.08 0.25 0.63 1.06 0.75 0.53 0.33 0.33 0.36 0.62 0.91 0.94 1.38 0.97 0.63 0.36 0.53 0.40 0.48 0.72 0.69 0.44 0.42
1.88 1.70 1.28 0.97 1.11 1.37 1.17 1.12 0.77 0.74 0.78 0.68 0.61 0.65 0.70 0.96 1.15 1.49 1.64 1.60 2.03 2.95 1.81 0.75 0.39 0.24 0.12 0.15 0.06 0.23 0.19 0.25 0.45 0.68 1.20 0.93 0.58 0.28 0.16 0.18 0.31 0.95 0.89 0.91 1.29 1.43 0.90 0.58 0.56 0.54 0.52 0.56 0.58 0.34
1.79 1.58 1.41 1.21 1.46 1.26 1.00 0.86 0.85 0.90 0.90 0.70 0.67 0.73 0.97 1.24 1.55 1.91 1.73 1.55 1.63 2.07 1.51 0.65 0.45 0.30 0.27 0.24 0.16 0.25 0.49 0.63 0.91 0.97 0.99 0.53 0.21 0.27 0.18 0.16 0.52 0.32 0.34 0.70 1.14 1.24 1.53 1.12 1.26 0.97 0.70 0.40 0.29 0.17
1.47 1.48 1.43 1.35 1.24 1.09 0.85 0.77 0.84 0.97 0.97 0.85 0.84 0.98 1.43 1.75 2.21 3.96 4.73 2.42 1.39 1.61 2.76 1.26 0.52 0.40 0.49 0.44 0.37 0.19 0.30 0.83 1.30 1.32 0.66 0.28 0.15 0.58 0.68 0.27 0.10 0.02 0.14 0.44 0.45 0.57 0.85 1.06 0.74 0.36 0.34 0.39 0.20 0.08
1.40 1.29 1.25 1.21 1.09 0.97 0.86 0.82 0.99 1.09 1.00 0.97 1.06 1.44 1.73 2.11 3.14 4.12 2.73 1.55 1.06 1.75 3.66 2.15 0.81 0.47 0.69 0.58 0.44 0.36 0.35 0.62 1.03 1.65 1.12 0.40 0.22 0.84 0.82 0.26 0.07 0.01 0.04 0.10 0.09 0.13 0.25 0.24 0.25 0.18 0.15 0.21 0.13 0.05
1.40 1.21 1.21 1.12 0.96 0.83 0.81 0.86 0.97 1.04 1.09 1.30 1.50 1.77 2.20 3.53 4.04 2.67 1.58 1.43 0.99 1.83 2.53 2.32 1.18 0.94 1.15 0.78 0.59 0.35 0.42 0.71 0.91 1.01 0.82 0.64 0.51 0.80 0.73 0.11 0.00 0.00 0.01 0.01 0.02 0.05 0.14 0.08 0.05 0.08 0.06 0.06 0.04 0.06
1.47 1.19 1.03 0.97 0.79 0.84 0.74 0.79 0.97 1.15 1.35 1.96 2.70 3.87 5.56 5.56 3.99 2.14 2.11 2.42 2.03 2.24 2.28 1.45 1.35 1.49 1.69 1.33 0.99 1.13 0.98 1.18 0.85 0.72 0.44 0.73 0.72 0.73 0.29 0.05 0.02 0.02 0.02 0.02 0.01 0.01 0.02 0.04 0.04 0.05 0.04 0.05 0.08 0.08
1.09 0.96 0.95 1.00 0.90 0.89 0.78 0.77 1.08 1.65 2.49 3.91 5.75 6.90 6.69 3.73 1.88 2.14 3.92 4.27 4.01 2.94 1.98 0.97 0.88 1.56 1.71 1.87 1.60 1.84 1.67 1.00 0.84 0.32 0.42 0.60 0.46 0.25 0.13 0.16 0.04 0.02 0.01 0.01 0.01 0.03 0.04 0.05 0.08 0.08 0.07 0.05 0.03 0.03
1.05 1.01 1.15 1.21 1.19 1.15 1.03 1.04 1.42 2.63 4.68 5.76 5.05 3.76 2.95 2.39 2.19 2.99 3.43 2.71 1.95 1.26 0.67 0.30 0.32 1.03 1.48 1.75 1.49 1.54 1.99 1.21 0.63 0.35 0.59 0.56 0.38 0.26 0.23 0.20 0.09 0.03 0.02 0.01 0.01 0.02 0.07 0.12 0.07 0.01 0.01 0.01 0.03 0.05
1.24 1.08 1.12 1.25 1.38 1.36 1.24 1.19 1.58 2.47 3.37 2.94 2.22 2.30 2.90 2.82 2.62 2.26 2.07 1.41 0.56 0.18 0.10 0.16 0.21 0.59 1.51 1.77 1.69 1.51 1.19 1.41 0.71 0.50 0.80 0.63 0.31 0.08 0.06 0.07 0.10 0.11 0.07 0.07 0.10 0.09 0.05 0.02 0.03 0.03 0.03 0.05 0.09 0.15
1.40 1.26 1.33 1.55 1.54 1.54 1.45 1.26 1.12 1.59 2.05 2.46 2.44 2.81 2.90 2.71 2.11 1.38 0.85 0.48 0.21 0.11 0.12 0.16 0.34 0.42 0.98 1.47 1.76 1.60 1.21 0.95 0.76 0.80 0.44 0.19 0.12 0.09 0.05 0.03 0.04 0.08 0.15 0.07 0.04 0.04 0.04 0.05 0.06 0.08 0.12 0.20 0.26 0.36
1.37 1.27 1.30 1.64 1.72 1.67 1.53 1.40 1.57 2.30 2.44 2.91 3.07 2.83 2.20 1.72 1.10 0.65 0.26 0.14 0.12 0.12 0.13 0.15 0.34 0.69 0.92 1.01 1.26 1.51 1.54 0.96 1.06 0.62 0.35 0.30 0.20 0.16 0.13 0.09 0.04 0.04 0.15 0.42 0.26 0.10 0.11 0.14 0.18 0.28 0.38 0.44 0.39 0.50
1.06 1.08 1.46 1.75 1.77 1.74 1.42 1.37 1.72 1.58 1.60 2.04 1.33 1.34 1.15 0.83 0.64 0.53 0.31 0.21 0.21 0.22 0.23 0.39 0.67 1.00 1.21 1.37 1.11 0.96 1.28 1.19 0.80 0.61 0.61 0.57 0.28 0.17 0.16 0.18 0.21 0.23 0.25 0.37 0.59 0.61 0.50 0.46 0.47 0.58 0.63 0.61 0.46 0.51
0.89 1.51 1.96 1.80 1.70 1.59 1.41 1.81 1.67 1.32 1.17 0.96 0.87 0.97 0.75 0.61 0.74 0.58 0.46 0.46 0.45 0.53 0.65 0.99 1.30 1.25 1.42 1.10 1.08 0.80 0.75 0.65 0.72 0.51 0.48 0.37 0.39 0.35 0.34 0.35 0.44 0.51 0.59 0.69 0.79 0.85 0.88 0.78 0.68 0.79 0.86 0.75 0.74 0.62
0.92 1.45 1.49 1.34 1.49 1.61 1.57 1.88 1.45 1.45 1.23 0.75 0.75 0.68 0.56 0.61 0.78 0.67 0.58 0.59 0.57 0.70 0.87 0.98 1.11 1.06 0.99 0.82 0.75 0.56 0.63 0.52 0.43 0.45 0.52 0.48 0.45 0.49 0.54 0.55 0.64 0.61 0.61 0.69 0.78 0.70 0.76 0.78 0.65 0.50 0.59 0.76 0.65 0.62
0.98 0.84 1.10 1.26 2.05 1.81 1.49 1.21 0.91 0.80 0.65 0.72 0.74 0.87 0.51 0.61 0.64 0.56 0.49 0.53 0.62 0.61 0.47 0.57 0.63 0.61 0.73 0.71 0.77 0.71 0.67 0.73 0.70 0.64 0.66 0.68 0.62 0.69 0.65 0.62 0.70 0.63 0.59 0.66 0.63 0.58 0.55 0.53 0.50 0.56 0.49 0.48 0.45 0.52
1.09 0.89 1.02 1.19 1.08 0.89 1.27 0.92 0.39 0.30 0.57 0.75 0.95 0.85 0.63 0.70 0.81 0.78 0.61 0.54 0.58 0.58 0.52 0.56 0.66 0.66 0.75 0.80 0.78 0.78 0.74 0.65 0.74 0.94 1.09 1.16 1.01 0.86 0.83 0.69 0.63 0.66 0.61 0.63 0.63 0.62 0.57 0.50 0.50 0.47 0.44 0.43 0.46 0.55
1.56 1.61 1.27 1.01 0.73 0.76 0.52 0.47 0.22 0.24 0.52 0.64 0.79 0.74 0.61 0.89 0.80 0.66 0.51 0.43 0.40 0.61 0.88 0.90 1.09 1.18 1.14 1.16 0.97 0.85 0.87 0.87 0.69 0.82 1.24 1.24 1.14 0.89 0.93 0.71 0.67 0.58 0.50 0.50 0.54 0.50 0.39 0.40 0.44 0.44 0.43 0.44 0.40 0.44
1.80 2.14 1.87 1.24 0.78 0.55 0.51 0.52 0.42 0.33 0.39 0.53 0.72 0.48 0.69 0.52 0.48 0.45 0.38 0.25 0.38 0.75 1.00 1.20 1.28 1.60 1.55 1.27 1.08 0.81 0.87 0.68 0.78 0.60 0.74 0.95 1.06 0.64 0.72 0.70 0.58 0.51 0.45 0.45 0.42 0.54 0.43 0.37 0.39 0.35 0.34 0.39 0.36 0.31
1.61 1.56 1.50 0.75 0.41 0.16 0.26 0.36 0.29 0.34 0.31 0.57 0.59 0.40 0.52 0.56 0.50 0.46 0.23 0.33 0.81 1.15 1.34 1.29 1.19 1.20 1.02 1.03 1.03 0.85 0.87 0.63 0.61 0.62 0.64 0.51 0.66 0.59 0.60 0.63 0.46 0.51 0.50 0.50 0.39 0.41 0.40 0.31 0.27 0.27 0.25 0.24 0.22 0.22
0.87 0.75 0.54 0.43 0.31 0.25 0.47 0.51 0.38 0.51 0.45 0.56 0.39 0.33 0.42 0.43 0.45 0.19 0.36 0.65 0.95 1.22 1.28 1.08 1.08 1.02 0.85 0.99 0.61 0.68 0.80 0.44 0.49 0.58 0.59 0.53 0.51 0.50 0.42 0.50 0.51 0.43 0.42 0.45 0.36 0.31 0.29 0.26 0.22 0.21 0.19 0.17 0.19 0.22
0.53 0.62 0.56 0.39 0.29 0.35 0.21 0.19 0.24 0.29 0.29 0.29 0.25 0.37 0.46 0.44 0.23 0.17 0.41 0.66 1.01 0.86 0.76 0.86 0.76 0.76 0.59 0.45 0.50 0.62 0.87 0.60 0.41 0.47 0.56 0.40 0.29 0.45 0.37 0.39 0.41 0.39 0.31 0.29 0.24 0.22 0.21 0.20 0.18 0.17 0.18 0.26 0.27 0.26
0.92 0.72 0.38 0.25 0.12 0.11 0.08 0.10 0.12 0.12 0.23 0.18 0.17 0.32 0.42 0.27 0.17 0.25 0.38 0.66 0.60 0.66 0.75 0.76 0.65 0.60 0.60 0.63 0.62 0.61 0.65 0.55 0.40 0.29 0.53 0.49 0.41 0.40 0.36 0.31 0.27 0.25 0.20 0.19 0.25 0.29 0.24 0.21 0.25 0.24 0.22 0.19 0.17 0.16
0.69 0.32 0.16 0.12 0.10 0.07 0.06 0.08 0.09 0.10 0.10 0.12 0.18 0.22 0.16 0.10 0.10 0.21 0.33 0.51 0.49 0.54 0.63 0.66 0.67 0.53 0.55 0.55 0.51 0.50 0.54 0.47 0.35 0.31 0.42 0.41 0.41 0.38 0.37 0.31 0.25 0.22 0.17 0.17 0.23 0.24 0.22 0.15 0.13 0.12 0.12 0.11 0.11 0.16
0.34 0.17 0.05 0.04 0.11 0.11 0.08 0.07 0.06 0.08 0.12 0.16 0.17 0.16 0.17 0.15 0.16 0.34 0.36 0.36 0.37 0.48 0.45 0.44 0.39 0.38 0.44 0.49 0.48 0.48 0.36 0.29 0.30 0.29 0.23 0.16 0.14 0.16 0.23 0.32 0.36 0.34 0.20 0.18 0.20 0.24 0.24 0.19 0.16 0.12 0.14 0.15 0.16 0.22
0.13 0.04 0.06 0.08 0.10 0.11 0.12 0.11 0.12 0.15 0.16 0.16 0.15 0.14 0.21 0.16 0.32 0.44 0.45 0.50 0.42 0.35 0.31 0.31 0.29 0.25 0.27 0.29 0.31 0.31 0.31 0.28 0.20 0.13 0.08 0.13 0.14 0.14 0.15 0.20 0.23 0.18 0.16 0.20 0.19 0.19 0.21 0.23 0.23 0.22 0.22 0.24 0.21 0.19
0.09 0.07 0.06 0.07 0.15 0.19 0.23 0.22 0.25 0.26 0.24 0.25 0.20 0.21 0.26 0.41 0.69 0.57 0.59 0.46 0.35 0.25 0.25 0.28 0.37 0.26 0.20 0.17 0.18 0.20 0.19 0.21 0.25 0.22 0.18 0.25 0.29 0.27 0.17 0.16 0.15 0.15 0.15 0.17 0.19 0.23 0.23 0.25 0.23 0.25 0.29 0.28 0.28 0.30
0.12 0.16 0.18 0.12 0.18 0.30 0.44 0.33 0.35 0.30 0.21 0.17 0.15 0.19 0.21 0.46 0.73 0.52 0.36 0.31 0.27 0.29 0.30 0.26 0.26 0.19 0.20 0.18 0.18 0.16 0.19 0.17 0.21 0.29 0.26 0.23 0.26 0.24 0.18 0.20 0.19 0.18 0.19 0.23 0.23 0.20 0.20 0.20 0.25 0.34 0.31 0.30 0.34 0.35
0.15 0.17 0.16 0.15 0.26 0.29 0.25 0.22 0.19 0.14 0.11 0.11 0.09 0.13 0.23 0.34 0.37 0.28 0.31 0.37 0.26 0.22 0.16 0.16 0.17 0.20 0.17 0.16 0.19 0.17 0.20 0.21 0.15 0.16 0.20 0.22 0.23 0.24 0.24 0.23 0.23 0.22 0.21 0.21 0.18 0.20 0.21 0.23 0.29 0.29 0.23 0.21 0.22 0.20
0.10 0.11 0.11 0.15 0.23 0.23 0.27 0.35 0.23 0.17 0.16 0.11 0.14 0.12 0.17 0.15 0.19 0.26 0.25 0.27 0.16 0.14 0.18 0.16 0.16 0.18 0.20 0.19 0.22 0.20 0.20 0.19 0.15 0.16 0.19 0.21 0.22 0.21 0.19 0.17 0.17 0.16 0.15 0.14 0.14 0.14 0.13 0.15 0.16 0.14 0.14 0.12 0.12 0.11
0.14 0.14 0.14 0.15 0.17 0.17 0.18 0.23 0.16 0.13 0.12 0.12 0.15 0.15 0.16 0.16 0.29 0.36 0.23 0.20 0.23 0.21 0.21 0.23 0.23 0.25 0.27 0.23 0.22 0.20 0.17 0.16 0.15 0.14 0.15 0.15 0.13 0.11 0.11 0.12 0.12 0.12 0.11 0.11 0.12 0.13 0.10 0.09 0.10 0.12 0.11 0.11 0.10 0.08

GFSWCAN_prec_precacc_141.txt.gz
Total_Precipitation_Accumulation
2.36 1.87 1.53 1.25 1.01 1.08 0.96 1.00 0.95 0.98 0.96 0.74 0.59 0.62 0.79 0.86 1.06 1.58 1.70 1.33 1.69 1.81 0.50 0.28 0.21 0.23 0.22 0.28 0.40 0.40 0.63 0.61 0.69 0.75 0.47 0.25 0.28 0.27 0.31 0.30 1.03 1.44 1.44 1.06 0.98 1.07 0.69 0.21 0.40 0.86 0.96 0.56 0.73 1.24
2.02 1.74 1.36 1.06 0.99 0.97 0.91 0.98 0.92 0.89 0.83 0.64 0.56 0.59 0.63 0.71 0.96 1.60 1.74 1.27 1.34 2.20 1.13 0.48 0.21 0.11 0.13 0.07 0.20 0.30 0.42 0.51 0.89 1.05 0.85 0.58 0.36 0.33 0.24 0.37 0.89 1.28 1.20 1.23 0.92 0.76 0.50 0.36 0.61 0.77 0.67 0.73 0.85 0.76
2.08 1.58 1.28 1.05 1.00 0.92 0.88 0.93 0.79 0.78 0.78 0.63 0.59 0.62 0.71 0.70 0.97 1.59 1.56 1.23 1.93 2.92 1.70 0.64 0.28 0.07 0.14 0.08 0.15 0.44 0.14 0.08 0.25 0.63 1.06 0.75 0.53 0.33 0.33 0.36 0.62 0.91 0.94 1.38 0.97 0.63 0.36 0.53 0.40 0.48 0.72 0.69 0.44 0.42
1.95 1.78 1.38 1.05 1.14 1.37 1.17 1.12 0.77 0.74 0.78 0.68 0.61 0.65 0.70 0.96 1.15 1.49 1.64 1.60 2.03 2.95 1.81 0.75 0.39 0.24 0.12 0.15 0.06 0.23 0.19 0.25 0.45 0.68 1.20 0.93 0.58 0.28 0.16 0.18 0.31 0.95 0.89 0.91 1.29 1.43 0.90 0.58 0.56 0.54 0.52 0.56 0.58 0.34
1.85 1.65 1.47 1.25 1.46 1.26 1.00 0.86 0.85 0.90 0.90 0.70 0.67 0.73 0.97 1.24 1.55 1.91 1.73 1.55 1.63 2.07 1.51 0.65 0.45 0.30 0.27 0.24 0.16 0.25 0.49 0.63 0.91 0.97 0.99 0.53 0.21 0.27 0.18 0.16 0.52 0.32 0.34 0.70 1.14 1.24 1.53 1.12 1.26 0.97 0.70 0.40 0.29 0.17
1.54 1.54 1.47 1.36 1.24 1.09 0.85 0.77 0.84 0.97 0.97 0.85 0.84 0.98 1.43 1.75 2.21 3.96 4.73 2.42 1.39 1.61 2.76 1.26 0.52 0.40 0.49 0.44 0.37 0.19 0.30 0.83 1.30 1.32 0.66 0.28 0.15 0.58 0.68 0.27 0.10 0.02 0.14 0.44 0.45 0.57 0.85 1.06 0.74 0.36 0.34 0.39 0.20 0.08
1.45 1.34 1.27 1.21 1.09 0.97 0.86 0.82 0.99 1.09 1.00 0.97 1.06 1.44 1.73 2.11 3.14 4.12 2.73 1.55 1.06 1.75 3.66 2.15 0.81 0.47 0.69 0.58 0.44 0.36 0.35 0.62 1.03 1.65 1.12 0.40 0.22 0.84 0.82 0.26 0.07 0.01 0.04 0.10 0.09 0.13 0.25 0.24 0.25 0.18 0.15 0.21 0.13 0.05
1.43 1.23 1.22 1.12 0.96 0.84 0.82 0.86 0.97 1.04 1.09 1.30 1.50 1.77 2.20 3.53 4.04 2.67 1.58 1.43 0.99 1.83 2.53 2.32 1.18 0.94 1.15 0.78 0.59 0.35 0.42 0.71 0.91 1.01 0.82 0.64 0.51 0.80 0.73 0.11 0.00 0.00 0.01 0.01 0.02 0.05 0.14 0.08 0.05 0.08 0.06 0.06 0.04 0.06
1.48 1.20 1.03 0.97 0.79 0.84 0.74 0.79 0.97 1.15 1.35 1.96 2.70 3.87 5.56 5.56 3.99 2.14 2.11 2.42 2.03 2.24 2.28 1.45 1.35 1.49 1.69 1.33 0.99 1.13 0.98 1.18 0.85 0.72 0.44 0.73 0.72 0.73 0.29 0.05 0.02 0.02 0.02 0.02 0.01 0.01 0.02 0.04 0.04 0.05 0.04 0.05 0.08 0.08
1.09 0.96 0.95 1.00 0.90 0.89 0.78 0.77 1.08 1.65 2.49 3.91 5.75 6.90 6.69 3.73 1.88 2.14 3.92 4.27 4.01 2.94 1.98 0.97 0.88 1.56 1.71 1.87 1.60 1.84 1.67 1.00 0.84 0.32 0.42 0.60 0.46 0.25 0.13 0.16 0.04 0.02 0.01 0.01 0.01 0.03 0.04 0.05 0.08 0.08 0.07 0.05 0.03 0.03
1.05 1.01 1.15 1.22 1.19 1.15 1.03 1.04 1.42 2.63 4.68 5.76 5.05 3.76 2.95 2.39 2.19 2.99 3.43 2.71 1.95 1.26 0.67 0.30 0.32 1.03 1.48 1.75 1.49 1.54 1.99 1.21 0.63 0.35 0.59 0.56 0.38 0.26 0.23 0.20 0.09 0.03 0.02 0.01 0.01 0.02 0.07 0.12 0.07 0.01 0.01 0.01 0.03 0.05
1.24 1.08 1.12 1.25 1.39 1.36 1.24 1.19 1.58 2.47 3.37 2.94 2.22 2.30 2.90 2.82 2.62 2.26 2.07 1.41 0.56 0.18 0.10 0.16 0.21 0.59 1.51 1.77 1.69 1.51 1.19 1.41 0.71 0.50 0.81 0.63 0.31 0.08 0.06 0.07 0.10 0.11 0.07 0.07 0.10 0.09 0.05 0.02 0.03 0.03 0.03 0.05 0.09 0.15
1.40 1.26 1.34 1.57 1.55 1.54 1.45 1.26 1.12 1.59 2.05 2.46 2.44 2.81 2.90 2.71 2.11 1.38 0.85 0.48 0.21 0.11 0.12 0.16 0.34 0.42 0.98 1.47 1.76 1.60 1.21 0.95 0.76 0.80 0.45 0.19 0.12 0.09 0.05 0.03 0.04 0.08 0.15 0.07 0.04 0.04 0.04 0.05 0.06 0.08 0.12 0.20 0.26 0.36
1.37 1.27 1.32 1.67 1.72 1.67 1.53 1.40 1.57 2.30 2.44 2.91 3.07 2.83 2.20 1.72 1.10 0.65 0.26 0.14 0.12 0.12 0.13 0.15 0.34 0.69 0.92 1.01 1.26 1.51 1.54 0.96 1.06 0.62 0.35 0.30 0.20 0.16 0.13 0.09 0.04 0.04 0.15 0.42 0.26 0.10 0.11 0.14 0.18 0.28 0.38 0.44 0.39 0.50
1.06 1.10 1.50 1.76 1.78 1.74 1.42 1.37 1.72 1.58 1.60 2.04 1.33 1.34 1.15 0.83 0.64 0.53 0.31 0.21 0.21 0.22 0.23 0.39 0.67 1.00 1.21 1.37 1.11 0.96 1.28 1.19 0.80 0.61 0.61 0.57 0.28 0.17 0.16 0.18 0.21 0.23 0.25 0.37 0.59 0.61 0.50 0.46 0.47 0.58 0.63 0.61 0.46 0.51
0.93 1.55 1.99 1.83 1.71 1.59 1.41 1.81 1.67 1.32 1.17 0.96 0.87 0.97 0.75 0.61 0.74 0.58 0.46 0.46 0.45 0.53 0.65 0.99 1.30 1.25 1.42 1.10 1.08 0.80 0.75 0.65 0.72 0.51 0.48 0.37 0.39 0.36 0.34 0.35 0.44 0.51 0.59 0.69 0.79 0.85 0.88 0.78 0.68 0.79 0.86 0.75 0.74 0.62
1.02 1.53 1.55 1.37 1.49 1.61 1.57 1.88 1.45 1.45 1.23 0.75 0.76 0.69 0.56 0.61 0.78 0.68 0.58 0.59 0.57 0.70 0.87 0.98 1.11 1.06 0.99 0.82 0.75 0.56 0.63 0.52 0.43 0.45 0.52 0.48 0.45 0.49 0.54 0.55 0.64 0.61 0.61 0.69 0.78 0.70 0.76 0.78 0.65 0.50 0.59 0.76 0.65 0.62
1.02 0.91 1.13 1.26 2.05 1.81 1.49 1.21 0.91 0.80 0.65 0.72 0.75 0.88 0.51 0.62 0.64 0.56 0.49 0.53 0.62 0.61 0.47 0.57 0.63 0.61 0.73 0.71 0.77 0.71 0.67 0.73 0.71 0.64 0.66 0.68 0.62 0.69 0.65 0.62 0.70 0.63 0.59 0.66 0.63 0.58 0.55 0.53 0.50 0.56 0.49 0.48 0.45 0.52
1.21 0.97 1.03 1.19 1.08 0.89 1.27 0.92 0.39 0.30 0.57 0.75 0.96 0.85 0.63 0.71 0.81 0.78 0.61 0.54 0.58 0.58 0.52 0.56 0.66 0.66 0.75 0.80 0.78 0.78 0.74 0.65 0.74 0.94 1.10 1.16 1.01 0.86 0.83 0.69 0.63 0.66 0.61 0.63 0.63 0.62 0.57 0.50 0.50 0.47 0.44 0.43 0.46 0.55
1.77 1.73 1.30 1.01 0.73 0.76 0.52 0.47 0.22 0.24 0.52 0.64 0.79 0.74 0.61 0.90 0.81 0.66 0.51 0.43 0.40 0.61 0.88 0.90 1.09 1.18 1.14 1.16 0.97 0.85 0.87 0.87 0.69 0.82 1.24 1.24 1.14 0.89 0.93 0.71 0.67 0.58 0.50 0.50 0.54 0.50 0.39 0.40 0.44 0.44 0.43 0.44 0.40 0.44
2.13 2.40 1.91 1.24 0.78 0.55 0.51 0.52 0.42 0.33 0.39 0.53 0.72 0.48 0.69 0.52 0.48 0.45 0.38 0.25 0.38 0.75 1.00 1.20 1.28 1.60 1.55 1.27 1.08 0.81 0.87 0.68 0.78 0.60 0.74 0.95 1.06 0.64 0.72 0.70 0.58 0.51 0.45 0.45 0.42 0.54 0.43 0.37 0.39 0.35 0.34 0.39 0.36 0.31
1.84 1.76 1.57 0.75 0.41 0.16 0.26 0.36 0.29 0.34 0.31 0.57 0.59 0.40 0.52 0.56 0.50 0.46 0.23 0.33 0.81 1.15 1.34 1.29 1.19 1.20 1.02 1.04 1.03 0.85 0.87 0.63 0.61 0.62 0.64 0.51 0.67 0.59 0.60 0.64 0.46 0.51 0.50 0.50 0.39 0.41 0.40 0.31 0.27 0.27 0.25 0.24 0.22 0.22
1.00 0.85 0.58 0.44 0.32 0.25 0.47 0.51 0.38 0.51 0.45 0.56 0.39 0.33 0.42 0.43 0.45 0.19 0.36 0.65 0.95 1.22 1.28 1.08 1.08 1.02 0.85 1.00 0.62 0.69 0.80 0.44 0.49 0.58 0.59 0.53 0.51 0.50 0.42 0.50 0.51 0.43 0.42 0.45 0.36 0.31 0.29 0.26 0.22 0.21 0.19 0.17 0.19 0.22
0.59 0.67 0.57 0.39 0.29 0.35 0.21 0.19 0.24 0.29 0.29 0.29 0.25 0.37 0.46 0.45 0.23 0.17 0.41 0.66 1.01 0.87 0.76 0.87 0.76 0.77 0.60 0.46 0.50 0.62 0.87 0.60 0.41 0.47 0.56 0.40 0.29 0.45 0.37 0.39 0.41 0.39 0.31 0.29 0.24 0.22 0.21 0.20 0.18 0.17 0.18 0.26 0.27 0.26
0.95 0.78 0.38 0.25 0.12 0.11 0.08 0.10 0.12 0.12 0.23 0.19 0.17 0.32 0.42 0.27 0.17 0.25 0.38 0.66 0.60 0.67 0.75 0.77 0.65 0.60 0.60 0.63 0.62 0.61 0.65 0.55 0.40 0.29 0.54 0.49 0.41 0.41 0.37 0.31 0.27 0.25 0.20 0.19 0.25 0.29 0.24 0.22 0.25 0.24 0.22 0.19 0.17 0.16
0.71 0.34 0.16 0.12 0.10 0.07 0.06 0.08 0.09 0.10 0.10 0.12 0.18 0.22 0.16 0.10 0.10 0.21 0.33 0.51 0.49 0.54 0.63 0.66 0.67 0.54 0.55 0.55 0.51 0.50 0.54 0.47 0.35 0.31 0.42 0.41 0.41 0.38 0.37 0.31 0.25 0.22 0.17 0.17 0.23 0.24 0.22 0.15 0.13 0.12 0.12 0.11 0.11 0.16
0.34 0.17 0.05 0.04 0.11 0.11 0.08 0.07 0.06 0.08 0.12 0.16 0.18 0.16 0.17 0.15 0.16 0.34 0.36 0.36 0.37 0.48 0.45 0.44 0.39 0.38 0.44 0.49 0.48 0.48 0.36 0.29 0.30 0.29 0.23 0.16 0.14 0.16 0.23 0.32 0.36 0.34 0.20 0.18 0.20 0.24 0.24 0.19 0.16 0.12 0.14 0.15 0.16 0.22
0.13 0.04 0.06 0.08 0.10 0.11 0.12 0.11 0.12 0.15 0.16 0.16 0.15 0.14 0.21 0.16 0.32 0.44 0.45 0.50 0.42 0.35 0.31 0.31 0.29 0.25 0.27 0.29 0.31 0.31 0.32 0.28 0.20 0.13 0.08 0.13 0.14 0.15 0.15 0.20 0.23 0.18 0.16 0.20 0.19 0.19 0.21 0.23 0.23 0.22 0.22 0.24 0.21 0.19
0.09 0.07 0.06 0.07 0.15 0.19 0.23 0.22 0.25 0.26 0.24 0.25 0.20 0.21 0.26 0.41 0.69 0.57 0.59 0.46 0.35 0.25 0.25 0.28 0.37 0.26 0.20 0.17 0.18 0.20 0.19 0.21 0.25 0.22 0.18 0.25 0.29 0.27 0.17 0.16 0.15 0.15 0.15 0.17 0.19 0.23 0.23 0.25 0.23 0.25 0.29 0.28 0.28 0.30
0.12 0.16 0.18 0.12 0.18 0.30 0.44 0.33 0.35 0.30 0.21 0.17 0.15 0.19 0.21 0.46 0.73 0.52 0.36 0.31 0.27 0.29 0.30 0.26 0.26 0.19 0.20 0.18 0.18 0.16 0.19 0.17 0.21 0.29 0.26 0.23 0.26 0.24 0.18 0.20 0.19 0.18 0.19 0.23 0.23 0.20 0.20 0.20 0.25 0.34 0.31 0.30 0.34 0.35
0.15 0.17 0.16 0.15 0.26 0.29 0.25 0.22 0.19 0.14 0.11 0.11 0.09 0.13 0.23 0.34 0.37 0.28 0.31 0.37 0.26 0.22 0.16 0.16 0.18 0.20 0.17 0.16 0.19 0.17 0.20 0.21 0.15 0.16 0.20 0.22 0.23 0.24 0.24 0.23 0.23 0.22 0.21 0.21 0.18 0.20 0.21 0.23 0.29 0.29 0.23 0.21 0.22 0.20
0.10 0.11 0.11 0.15 0.23 0.23 0.27 0.35 0.23 0.17 0.16 0.11 0.14 0.12 0.17 0.15 0.19 0.26 0.25 0.28 0.16 0.15 0.18 0.16 0.16 0.18 0.20 0.19 0.22 0.20 0.20 0.19 0.15 0.16 0.19 0.21 0.22 0.21 0.19 0.17 0.17 0.16 0.15 0.14 0.14 0.14 0.13 0.15 0.16 0.14 0.14 0.12 0.12 0.11
0.15 0.14 0.14 0.15 0.17 0.17 0.18 0.23 0.16 0.13 0.12 0.12 0.15 0.15 0.16 0.16 0.29 0.36 0.23 0.20 0.23 0.21 0.21 0.23 0.23 0.25 0.27 0.23 0.22 0.20 0.17 0.16 0.15 0.14 0.15 0.15 0.13 0.11 0.11 0.12 0.12 0.12 0.11 0.11 0.12 0.13 0.10 0.09 0.10 0.12 0.11 0.11 0.10 0.08

GFSWCAN_prec_precacc_144.txt.gz
Total_Precipitation_Accumulation
2.60 2.32 2.11 1.43 1.08 1.14 1.01 1.05 0.99 1.05 1.01 0.80 0.66 0.69 0.90 0.95 1.08 1.59 1.70 1.33 1.69 1.81 0.50 0.28 0.21 0.23 0.22 0.28 0.40 0.40 0.63 0.61 0.69 0.75 0.47 0.25 0.28 0.27 0.31 0.30 1.03 1.44 1.44 1.06 0.98 1.07 0.69 0.21 0.40 0.86 0.96 0.56 0.74 1.25
2.31 2.26 2.01 1.36 1.10 1.05 0.96 1.04 0.97 0.97 0.92 0.74 0.64 0.69 0.73 0.75 0.96 1.60 1.74 1.27 1.34 2.20 1.13 0.48 0.21 0.11 0.13 0.07 0.20 0.30 0.42 0.51 0.89 1.05 0.85 0.58 0.36 0.33 0.24 0.37 0.89 1.28 1.20 1.23 0.92 0.76 0.50 0.36 0.61 0.77 0.67 0.73 0.85 0.76
2.34 2.02 1.80 1.39 1.18 1.01 0.95 0.98 0.86 0.85 0.85 0.72 0.69 0.69 0.73 0.71 0.97 1.59 1.56 1.23 1.93 2.92 1.70 0.64 0.28 0.07 0.14 0.08 0.15 0.44 0.14 0.08 0.25 0.63 1.06 0.75 0.53 0.33 0.33 0.36 0.62 0.91 0.94 1.38 0.97 0.63 0.36 0.53 0.40 0.48 0.72 0.70 0.44 0.42
2.11 2.01 1.67 1.27 1.25 1.43 1.21 1.16 0.80 0.78 0.83 0.76 0.68 0.67 0.71 0.96 1.15 1.49 1.64 1.60 2.03 2.95 1.81 0.75 0.39 0.24 0.12 0.15 0.06 0.23 0.19 0.25 0.45 0.68 1.20 0.93 0.58 0.28 0.16 0.18 0.31 0.95 0.89 0.91 1.29 1.43 0.90 0.58 0.56 0.54 0.52 0.57 0.58 0.34
1.96 1.78 1.59 1.34 1.52 1.29 1.02 0.87 0.86 0.91 0.94 0.74 0.69 0.73 0.97 1.24 1.55 1.91 1.73 1.55 1.63 2.07 1.51 0.65 0.45 0.30 0.27 0.24 0.16 0.25 0.49 0.63 0.91 0.97 0.99 0.53 0.21 0.27 0.18 0.16 0.52 0.32 0.34 0.70 1.14 1.24 1.53 1.12 1.26 0.97 0.70 0.40 0.29 0.17
1.64 1.61 1.52 1.40 1.26 1.11 0.87 0.78 0.84 0.98 0.98 0.86 0.84 0.98 1.43 1.75 2.21 3.96 4.73 2.42 1.39 1.61 2.76 1.26 0.52 0.40 0.49 0.44 0.37 0.19 0.30 0.83 1.30 1.32 0.66 0.28 0.15 0.58 0.68 0.27 0.10 0.02 0.14 0.44 0.45 0.57 0.85 1.06 0.74 0.36 0.34 0.39 0.20 0.08
1.52 1.38 1.29 1.24 1.13 0.99 0.86 0.82 0.99 1.09 1.00 0.97 1.06 1.44 1.73 2.11 3.14 4.12 2.73 1.55 1.06 1.75 3.66 2.15 0.81 0.47 0.69 0.58 0.44 0.36 0.35 0.62 1.03 1.65 1.12 0.40 0.22 0.84 0.82 0.26 0.07 0.01 0.04 0.10 0.09 0.13 0.25 0.24 0.25 0.18 0.15 0.21 0.13 0.05
1.47 1.25 1.23 1.15 0.97 0.84 0.82 0.86 0.97 1.04 1.09 1.30 1.50 1.77 2.20 3.53 4.04 2.67 1.58 1.43 0.99 1.83 2.53 2.32 1.18 0.94 1.15 0.78 0.59 0.35 0.42 0.71 0.91 1.01 0.82 0.64 0.51 0.80 0.73 0.11 0.00 0.00 0.01 0.01 0.02 0.05 0.14 0.08 0.05 0.08 0.06 0.06 0.04 0.06
1.51 1.21 1.04 0.98 0.79 0.84 0.74 0.79 0.97 1.15 1.35 1.96 2.70 3.87 5.56 5.56 3.99 2.14 2.11 2.42 2.03 2.24 2.28 1.45 1.35 1.49 1.69 1.33 0.99 1.13 0.98 1.18 0.85 0.72 0.44 0.73 0.72 0.73 0.29 0.05 0.02 0.02 0.02 0.02 0.01 0.01 0.02 0.04 0.04 0.05 0.04 0.05 0.08 0.08
1.11 0.97 0.95 1.00 0.90 0.89 0.78 0.77 1.08 1.65 2.49 3.91 5.75 6.90 6.69 3.73 1.88 2.14 3.92 4.27 4.01 2.94 1.98 0.97 0.88 1.56 1.71 1.87 1.61 1.84 1.67 1.00 0.84 0.32 0.42 0.60 0.46 0.25 0.13 0.16 0.04 0.02 0.01 0.01 0.01 0.03 0.04 0.05 0.08 0.08 0.07 0.05 0.03 0.03
1.06 1.01 1.15 1.22 1.19 1.15 1.03 1.04 1.42 2.63 4.68 5.76 5.05 3.76 2.95 2.39 2.19 2.99 3.43 2.71 1.95 1.26 0.67 0.30 0.32 1.03 1.48 1.75 1.49 1.54 1.99 1.21 0.63 0.35 0.59 0.56 0.39 0.26 0.23 0.20 0.09 0.03 0.02 0.01 0.01 0.02 0.07 0.12 0.07 0.01 0.01 0.01 0.03 0.05
1.24 1.08 1.12 1.25 1.39 1.36 1.24 1.19 1.58 2.47 3.37 2.94 2.22 2.30 2.90 2.82 2.62 2.26 2.07 1.41 0.56 0.18 0.10 0.16 0.21 0.59 1.51 1.77 1.69 1.51 1.19 1.41 0.71 0.50 0.81 0.63 0.31 0.08 0.06 0.07 0.10 0.11 0.07 0.07 0.10 0.09 0.05 0.02 0.03 0.03 0.03 0.05 0.09 0.15
1.40 1.27 1.34 1.57 1.55 1.54 1.45 1.26 1.12 1.59 2.05 2.46 2.44 2.81 2.90 2.71 2.11 1.38 0.85 0.48 0.21 0.11 0.12 0.16 0.34 0.42 0.98 1.47 1.76 1.60 1.21 0.95 0.76 0.80 0.45 0.19 0.12 0.09 0.05 0.03 0.04 0.08 0.15 0.07 0.04 0.04 0.04 0.05 0.06 0.08 0.12 0.20 0.26 0.36
1.38 1.28 1.33 1.67 1.72 1.67 1.53 1.40 1.57 2.30 2.44 2.91 3.07 2.83 2.20 1.72 1.10 0.65 0.26 0.14 0.12 0.12 0.13 0.15 0.34 0.69 0.92 1.01 1.26 1.51 1.54 0.96 1.07 0.62 0.35 0.30 0.20 0.16 0.13 0.09 0.04 0.04 0.15 0.42 0.26 0.10 0.11 0.14 0.18 0.28 0.38 0.44 0.39 0.50
1.07 1.12 1.50 1.77 1.78 1.74 1.42 1.37 1.72 1.58 1.60 2.04 1.33 1.34 1.15 0.84 0.65 0.53 0.31 0.21 0.21 0.22 0.23 0.39 0.67 1.00 1.21 1.37 1.11 0.96 1.28 1.19 0.80 0.61 0.61 0.57 0.28 0.17 0.16 0.18 0.21 0.23 0.25 0.37 0.59 0.61 0.50 0.46 0.47 0.58 0.63 0.61 0.46 0.51
0.96 1.57 1.99 1.83 1.71 1.59 1.41 1.81 1.67 1.32 1.17 0.96 0.87 0.97 0.76 0.62 0.75 0.58 0.46 0.46 0.45 0.53 0.65 0.99 1.30 1.25 1.42 1.10 1.08 0.80 0.75 0.65 0.72 0.51 0.48 0.37 0.39 0.36 0.34 0.35 0.44 0.51 0.59 0.69 0.79 0.85 0.88 0.78 0.68 0.79 0.86 0.75 0.74 0.62
1.04 1.54 1.56 1.37 1.49 1.61 1.57 1.88 1.45 1.45 1.23 0.75 0.77 0.69 0.57 0.61 0.79 0.68 0.58 0.59 0.57 0.70 0.87 0.98 1.11 1.06 0.99 0.82 0.75 0.56 0.63 0.52 0.43 0.45 0.52 0.48 0.45 0.49 0.54 0.55 0.64 0.61 0.61 0.69 0.78 0.70 0.76 0.78 0.65 0.50 0.59 0.76 0.65 0.62
1.02 0.92 1.13 1.26 2.05 1.81 1.49 1.21 0.91 0.80 0.66 0.74 0.76 0.90 0.52 0.63 0.64 0.56 0.50 0.53 0.62 0.61 0.47 0.57 0.63 0.61 0.73 0.71 0.77 0.71 0.67 0.74 0.71 0.64 0.66 0.68 0.62 0.69 0.65 0.62 0.70 0.63 0.59 0.66 0.63 0.58 0.55 0.53 0.50 0.56 0.49 0.48 0.45 0.52
1.21 0.97 1.03 1.19 1.08 0.89 1.27 0.92 0.39 0.30 0.58 0.76 0.97 0.85 0.64 0.71 0.81 0.78 0.61 0.54 0.58 0.58 0.52 0.56 0.66 0.66 0.75 0.80 0.78 0.78 0.74 0.65 0.74 0.94 1.10 1.16 1.01 0.86 0.83 0.69 0.63 0.66 0.61 0.63 0.63 0.62 0.57 0.50 0.50 0.47 0.44 0.43 0.46 0.56
1.78 1.73 1.30 1.01 0.73 0.76 0.52 0.47 0.22 0.24 0.53 0.64 0.79 0.74 0.62 0.90 0.81 0.66 0.51 0.43 0.40 0.61 0.88 0.90 1.09 1.18 1.14 1.16 0.97 0.85 0.87 0.87 0.69 0.82 1.25 1.25 1.14 0.89 0.93 0.71 0.67 0.58 0.51 0.51 0.55 0.50 0.39 0.40 0.44 0.44 0.43 0.44 0.40 0.44
2.18 2.42 1.91 1.24 0.78 0.55 0.51 0.52 0.42 0.33 0.39 0.53 0.73 0.48 0.69 0.52 0.48 0.45 0.38 0.25 0.38 0.75 1.00 1.20 1.28 1.60 1.55 1.27 1.08 0.81 0.87 0.68 0.78 0.60 0.74 0.96 1.06 0.65 0.72 0.70 0.58 0.52 0.45 0.45 0.42 0.54 0.43 0.37 0.39 0.35 0.34 0.39 0.36 0.31
1.89 1.77 1.57 0.75 0.41 0.16 0.26 0.36 0.29 0.34 0.31 0.57 0.59 0.40 0.52 0.56 0.50 0.46 0.23 0.33 0.81 1.15 1.34 1.29 1.19 1.20 1.02 1.04 1.03 0.85 0.87 0.63 0.61 0.62 0.64 0.51 0.67 0.59 0.60 0.64 0.47 0.51 0.50 0.50 0.39 0.41 0.40 0.31 0.27 0.27 0.25 0.24 0.22 0.23
1.05 0.88 0.58 0.44 0.32 0.25 0.47 0.51 0.38 0.51 0.45 0.56 0.39 0.33 0.42 0.43 0.45 0.19 0.36 0.65 0.95 1.22 1.28 1.08 1.08 1.02 0.85 1.00 0.62 0.69 0.80 0.44 0.49 0.58 0.59 0.53 0.51 0.51 0.42 0.51 0.51 0.43 0.42 0.45 0.36 0.31 0.29 0.26 0.22 0.21 0.19 0.17 0.19 0.22
0.64 0.73 0.59 0.39 0.29 0.35 0.21 0.19 0.24 0.29 0.30 0.29 0.25 0.37 0.47 0.45 0.23 0.17 0.41 0.66 1.01 0.87 0.76 0.87 0.77 0.77 0.60 0.46 0.50 0.62 0.87 0.60 0.41 0.48 0.57 0.40 0.30 0.46 0.37 0.39 0.41 0.39 0.31 0.29 0.24 0.22 0.21 0.20 0.18 0.17 0.18 0.26 0.27 0.26
1.00 0.84 0.39 0.25 0.12 0.11 0.08 0.10 0.12 0.12 0.23 0.19 0.17 0.33 0.42 0.27 0.17 0.25 0.38 0.66 0.60 0.67 0.76 0.77 0.65 0.60 0.60 0.63 0.62 0.61 0.65 0.55 0.40 0.29 0.54 0.49 0.41 0.41 0.37 0.31 0.27 0.25 0.20 0.19 0.25 0.29 0.24 0.22 0.25 0.25 0.22 0.19 0.17 0.16
0.74 0.37 0.16 0.12 0.11 0.07 0.06 0.08 0.09 0.10 0.10 0.12 0.18 0.22 0.16 0.10 0.10 0.21 0.33 0.51 0.49 0.54 0.63 0.66 0.68 0.54 0.55 0.55 0.52 0.50 0.54 0.47 0.35 0.31 0.42 0.41 0.41 0.38 0.37 0.31 0.25 0.22 0.17 0.17 0.23 0.24 0.22 0.15 0.13 0.12 0.12 0.11 0.12 0.17
0.34 0.18 0.05 0.04 0.11 0.11 0.08 0.07 0.06 0.08 0.12 0.16 0.18 0.16 0.17 0.15 0.16 0.34 0.36 0.36 0.37 0.48 0.45 0.44 0.39 0.38 0.44 0.49 0.48 0.49 0.36 0.29 0.30 0.29 0.23 0.16 0.14 0.16 0.23 0.32 0.36 0.34 0.20 0.18 0.20 0.24 0.24 0.20 0.16 0.12 0.14 0.15 0.16 0.22
0.13 0.04 0.06 0.08 0.10 0.11 0.12 0.11 0.12 0.15 0.16 0.16 0.15 0.14 0.21 0.16 0.32 0.44 0.45 0.50 0.42 0.35 0.31 0.31 0.29 0.25 0.27 0.29 0.31 0.31 0.32 0.28 0.21 0.13 0.08 0.13 0.14 0.15 0.15 0.20 0.23 0.18 0.16 0.20 0.19 0.19 0.21 0.23 0.23 0.23 0.22 0.24 0.21 0.19
0.09 0.07 0.06 0.07 0.15 0.19 0.23 0.22 0.25 0.26 0.24 0.25 0.20 0.21 0.26 0.41 0.69 0.57 0.59 0.46 0.35 0.25 0.25 0.28 0.37 0.26 0.20 0.18 0.18 0.21 0.19 0.21 0.25 0.22 0.18 0.26 0.30 0.27 0.18 0.16 0.15 0.15 0.15 0.17 0.19 0.23 0.23 0.26 0.24 0.26 0.29 0.28 0.28 0.30
0.12 0.16 0.18 0.12 0.18 0.30 0.44 0.33 0.35 0.31 0.21 0.17 0.15 0.19 0.21 0.46 0.73 0.52 0.36 0.31 0.27 0.29 0.30 0.26 0.27 0.19 0.20 0.19 0.19 0.17 0.19 0.17 0.21 0.29 0.26 0.23 0.26 0.24 0.18 0.20 0.19 0.18 0.20 0.23 0.23 0.20 0.20 0.20 0.25 0.34 0.31 0.30 0.34 0.35
0.15 0.17 0.16 0.15 0.26 0.30 0.26 0.23 0.19 0.14 0.11 0.11 0.09 0.13 0.23 0.34 0.37 0.28 0.31 0.37 0.26 0.22 0.17 0.16 0.18 0.20 0.17 0.16 0.19 0.17 0.20 0.21 0.15 0.16 0.20 0.22 0.23 0.24 0.24 0.23 0.23 0.22 0.21 0.21 0.18 0.20 0.21 0.23 0.29 0.29 0.23 0.21 0.22 0.20
0.10 0.11 0.11 0.15 0.23 0.23 0.27 0.35 0.23 0.17 0.16 0.11 0.14 0.12 0.17 0.15 0.19 0.26 0.25 0.28 0.16 0.15 0.18 0.16 0.16 0.18 0.20 0.19 0.22 0.20 0.20 0.19 0.15 0.16 0.19 0.21 0.22 0.21 0.19 0.17 0.17 0.16 0.15 0.14 0.14 0.14 0.13 0.15 0.16 0.14 0.14 0.12 0.12 0.11
0.15 0.15 0.14 0.15 0.17 0.17 0.18 0.23 0.16 0.13 0.12 0.12 0.15 0.15 0.16 0.16 0.29 0.36 0.23 0.20 0.23 0.21 0.21 0.23 0.24 0.25 0.27 0.23 0.22 0.20 0.17 0.16 0.15 0.14 0.15 0.15 0.13 0.11 0.11 0.12 0.12 0.12 0.11 0.11 0.12 0.13 0.10 0.09 0.10 0.12 0.11 0.11 0.10 0.08

GFSWCAN_prec_precacc_147.txt.gz
Total_Precipitation_Accumulation
2.73 2.46 2.25 1.45 1.09 1.14 1.01 1.05 1.00 1.06 1.03 0.82 0.68 0.72 0.95 1.02 1.14 1.64 1.78 1.42 1.76 1.84 0.50 0.28 0.21 0.23 0.22 0.28 0.40 0.40 0.63 0.61 0.69 0.75 0.47 0.25 0.28 0.27 0.31 0.30 1.03 1.44 1.44 1.07 0.99 1.09 0.70 0.21 0.40 0.86 0.97 0.56 0.74 1.25
2.52 2.58 2.35 1.38 1.12 1.06 0.98 1.05 0.98 0.98 0.94 0.77 0.68 0.74 0.78 0.81 1.01 1.64 1.81 1.34 1.37 2.22 1.13 0.48 0.21 0.11 0.13 0.07 0.20 0.30 0.42 0.51 0.89 1.05 0.85 0.58 0.36 0.33 0.24 0.37 0.89 1.28 1.20 1.24 0.93 0.77 0.50 0.36 0.61 0.77 0.67 0.73 0.85 0.76
2.52 2.58 2.25 1.46 1.22 1.06 0.99 1.01 0.90 0.88 0.89 0.76 0.73 0.74 0.79 0.76 1.00 1.61 1.61 1.25 1.93 2.92 1.70 0.64 0.28 0.07 0.14 0.08 0.15 0.44 0.14 0.08 0.25 0.63 1.06 0.75 0.53 0.33 0.33 0.36 0.62 0.91 0.94 1.38 0.97 0.63 0.36 0.53 0.40 0.48 0.72 0.70 0.44 0.42
2.37 2.64 2.17 1.46 1.36 1.51 1.27 1.20 0.85 0.82 0.88 0.81 0.73 0.72 0.76 0.99 1.17 1.50 1.65 1.61 2.03 2.95 1.81 0.75 0.39 0.24 0.12 0.15 0.06 0.23 0.19 0.25 0.45 0.68 1.20 0.93 0.58 0.28 0.16 0.18 0.31 0.95 0.89 0.91 1.29 1.43 0.90 0.58 0.56 0.54 0.52 0.57 0.58 0.34
2.18 2.17 2.02 1.58 1.64 1.40 1.10 0.92 0.91 0.97 1.01 0.81 0.75 0.77 1.00 1.25 1.55 1.91 1.73 1.55 1.63 2.07 1.51 0.65 0.45 0.30 0.27 0.24 0.16 0.25 0.49 0.63 0.91 0.97 0.99 0.53 0.21 0.27 0.18 0.16 0.52 0.32 0.34 0.70 1.14 1.24 1.53 1.13 1.26 0.97 0.70 0.40 0.29 0.17
1.79 1.80 1.75 1.59 1.44 1.25 0.95 0.84 0.92 1.09 1.07 0.93 0.88 0.99 1.43 1.75 2.21 3.96 4.73 2.42 1.39 1.61 2.76 1.26 0.52 0.40 0.49 0.44 0.37 0.19 0.30 0.83 1.30 1.32 0.66 0.28 0.15 0.58 0.68 0.27 0.10 0.02 0.14 0.44 0.45 0.57 0.85 1.06 0.74 0.36 0.34 0.39 0.20 0.08
1.59 1.49 1.43 1.40 1.27 1.10 0.95 0.91 1.10 1.19 1.07 1.01 1.07 1.44 1.73 2.11 3.14 4.12 2.73 1.55 1.06 1.75 3.66 2.15 0.81 0.47 0.69 0.58 0.44 0.36 0.35 0.62 1.03 1.65 1.12 0.40 0.22 0.84 0.82 0.26 0.07 0.01 0.04 0.10 0.09 0.13 0.25 0.24 0.25 0.18 0.15 0.21 0.13 0.05
1.54 1.35 1.34 1.25 1.05 0.91 0.89 0.94 1.03 1.07 1.10 1.31 1.50 1.77 2.20 3.53 4.04 2.67 1.58 1.43 0.99 1.83 2.53 2.32 1.18 0.94 1.15 0.78 0.59 0.35 0.42 0.71 0.91 1.01 0.82 0.64 0.51 0.80 0.73 0.11 0.00 0.00 0.01 0.02 0.02 0.05 0.14 0.08 0.05 0.08 0.06 0.06 0.04 0.06
1.57 1.28 1.11 1.04 0.85 0.90 0.78 0.81 0.98 1.15 1.35 1.96 2.70 3.87 5.56 5.56 3.99 2.14 2.11 2.42 2.03 2.24 2.28 1.45 1.35 1.49 1.69 1.33 0.99 1.13 0.98 1.18 0.85 0.72 0.44 0.73 0.72 0.73 0.29 0.05 0.02 0.02 0.02 0.02 0.01 0.01 0.02 0.04 0.04 0.05 0.04 0.05 0.08 0.08
1.13 1.00 0.98 1.02 0.92 0.90 0.79 0.78 1.08 1.65 2.49 3.91 5.75 6.90 6.69 3.73 1.88 2.14 3.92 4.27 4.01 2.94 1.98 0.97 0.88 1.56 1.71 1.87 1.61 1.85 1.67 1.00 0.85 0.32 0.42 0.60 0.46 0.25 0.13 0.16 0.04 0.02 0.01 0.01 0.01 0.03 0.04 0.05 0.08 0.08 0.07 0.05 0.03 0.03
1.07 1.03 1.16 1.22 1.19 1.15 1.03 1.04 1.42 2.63 4.68 5.76 5.05 3.76 2.95 2.39 2.19 2.99 3.43 2.71 1.95 1.26 0.67 0.30 0.32 1.03 1.48 1.75 1.49 1.54 2.00 1.22 0.63 0.35 0.60 0.57 0.39 0.26 0.23 0.20 0.09 0.03 0.02 0.01 0.01 0.02 0.07 0.12 0.07 0.01 0.01 0.01 0.03 0.05
1.25 1.09 1.12 1.25 1.39 1.36 1.24 1.19 1.58 2.47 3.37 2.94 2.22 2.30 2.90 2.82 2.62 2.26 2.07 1.41 0.56 0.18 0.10 0.16 0.21 0.59 1.51 1.77 1.69 1.51 1.19 1.41 0.71 0.51 0.81 0.63 0.31 0.08 0.06 0.07 0.10 0.11 0.07 0.07 0.10 0.10 0.06 0.02 0.03 0.03 0.03 0.05 0.09 0.15
1.41 1.27 1.34 1.57 1.55 1.54 1.45 1.26 1.12 1.59 2.05 2.46 2.44 2.81 2.90 2.71 2.11 1.38 0.85 0.48 0.21 0.11 0.12 0.16 0.34 0.42 0.98 1.47 1.76 1.60 1.21 0.95 0.76 0.80 0.45 0.19 0.12 0.09 0.05 0.03 0.04 0.08 0.15 0.07 0.04 0.04 0.04 0.05 0.06 0.08 0.12 0.20 0.26 0.36
1.38 1.28 1.33 1.67 1.72 1.67 1.53 1.40 1.57 2.30 2.44 2.91 3.07 2.83 2.20 1.72 1.10 0.65 0.26 0.14 0.12 0.12 0.13 0.15 0.34 0.69 0.92 1.01 1.26 1.51 1.54 0.96 1.07 0.62 0.35 0.30 0.20 0.16 0.13 0.09 0.04 0.04 0.15 0.42 0.26 0.10 0.11 0.14 0.18 0.28 0.38 0.44 0.39 0.50
1.07 1.12 1.50 1.77 1.78 1.74 1.42 1.37 1.72 1.58 1.60 2.04 1.33 1.34 1.15 0.84 0.65 0.53 0.31 0.21 0.21 0.22 0.23 0.39 0.67 1.00 1.21 1.37 1.11 0.96 1.28 1.19 0.80 0.61 0.61 0.57 0.28 0.17 0.16 0.18 0.21 0.23 0.25 0.37 0.59 0.61 0.50 0.46 0.47 0.58 0.63 0.61 0.46 0.51
0.97 1.57 1.99 1.83 1.71 1.59 1.41 1.81 1.67 1.32 1.17 0.96 0.87 0.98 0.77 0.62 0.76 0.58 0.46 0.47 0.45 0.53 0.65 0.99 1.30 1.25 1.42 1.10 1.08 0.80 0.75 0.65 0.72 0.51 0.48 0.37 0.39 0.36 0.34 0.35 0.44 0.51 0.59 0.69 0.79 0.85 0.88 0.78 0.68 0.79 0.86 0.75 0.74 0.62
1.04 1.54 1.56 1.37 1.49 1.61 1.57 1.88 1.45 1.45 1.23 0.75 0.77 0.71 0.59 0.62 0.80 0.69 0.59 0.59 0.57 0.70 0.87 0.98 1.11 1.06 0.99 0.82 0.75 0.56 0.63 0.52 0.43 0.45 0.52 0.48 0.45 0.49 0.54 0.55 0.64 0.61 0.61 0.69 0.78 0.70 0.76 0.78 0.65 0.50 0.59 0.76 0.65 0.62
1.03 0.92 1.13 1.26 2.05 1.81 1.49 1.21 0.91 0.80 0.66 0.74 0.77 0.92 0.53 0.63 0.65 0.56 0.50 0.53 0.62 0.61 0.47 0.57 0.63 0.61 0.73 0.71 0.77 0.71 0.67 0.74 0.71 0.64 0.66 0.68 0.62 0.69 0.65 0.62 0.70 0.63 0.59 0.66 0.63 0.58 0.55 0.53 0.50 0.56 0.49 0.48 0.46 0.52
1.21 0.97 1.03 1.19 1.08 0.89 1.27 0.92 0.39 0.31 0.59 0.77 0.98 0.87 0.64 0.72 0.81 0.78 0.61 0.54 0.58 0.58 0.52 0.56 0.66 0.66 0.75 0.80 0.78 0.78 0.74 0.65 0.74 0.94 1.10 1.16 1.01 0.86 0.83 0.69 0.63 0.66 0.61 0.63 0.63 0.62 0.57 0.50 0.50 0.47 0.44 0.43 0.47 0.56
1.78 1.73 1.30 1.01 0.73 0.76 0.52 0.47 0.22 0.24 0.53 0.65 0.80 0.75 0.62 0.90 0.81 0.66 0.51 0.43 0.40 0.61 0.88 0.90 1.09 1.18 1.14 1.16 0.97 0.85 0.87 0.87 0.69 0.82 1.25 1.25 1.15 0.90 0.93 0.71 0.67 0.59 0.51 0.51 0.55 0.50 0.39 0.40 0.45 0.44 0.44 0.45 0.41 0.45
2.18 2.42 1.91 1.24 0.78 0.55 0.51 0.52 0.42 0.33 0.39 0.53 0.73 0.48 0.69 0.52 0.48 0.45 0.38 0.25 0.38 0.75 1.00 1.20 1.28 1.60 1.55 1.27 1.08 0.81 0.87 0.68 0.78 0.60 0.74 0.96 1.06 0.65 0.73 0.71 0.59 0.52 0.45 0.45 0.42 0.54 0.43 0.37 0.40 0.35 0.35 0.40 0.36 0.32
1.89 1.77 1.57 0.75 0.41 0.16 0.26 0.36 0.29 0.34 0.31 0.57 0.59 0.40 0.52 0.56 0.50 0.46 0.23 0.33 0.81 1.15 1.34 1.29 1.19 1.20 1.02 1.04 1.03 0.85 0.87 0.63 0.61 0.62 0.64 0.51 0.67 0.60 0.61 0.64 0.47 0.51 0.50 0.51 0.39 0.42 0.40 0.31 0.27 0.27 0.25 0.25 0.23 0.23
1.05 0.88 0.58 0.44 0.32 0.25 0.47 0.51 0.38 0.51 0.45 0.56 0.39 0.33 0.42 0.43 0.45 0.19 0.36 0.65 0.95 1.22 1.28 1.08 1.08 1.02 0.85 1.00 0.62 0.69 0.80 0.44 0.49 0.58 0.59 0.53 0.52 0.51 0.43 0.51 0.51 0.43 0.42 0.45 0.36 0.31 0.30 0.26 0.22 0.21 0.20 0.17 0.19 0.23
0.64 0.73 0.59 0.39 0.29 0.35 0.21 0.19 0.24 0.29 0.30 0.29 0.25 0.37 0.47 0.45 0.23 0.17 0.41 0.66 1.01 0.87 0.76 0.87 0.77 0.77 0.60 0.46 0.50 0.62 0.87 0.60 0.41 0.48 0.57 0.40 0.30 0.46 0.38 0.39 0.41 0.39 0.31 0.29 0.24 0.22 0.21 0.20 0.18 0.17 0.19 0.26 0.28 0.27
1.01 0.84 0.39 0.25 0.12 0.11 0.08 0.10 0.12 0.12 0.23 0.19 0.17 0.33 0.42 0.27 0.17 0.25 0.38 0.66 0.60 0.67 0.76 0.77 0.65 0.60 0.60 0.63 0.62 0.62 0.65 0.55 0.40 0.29 0.55 0.50 0.42 0.41 0.37 0.31 0.27 0.25 0.20 0.19 0.25 0.29 0.24 0.22 0.26 0.25 0.22 0.20 0.17 0.16
0.74 0.38 0.16 0.12 0.11 0.07 0.06 0.08 0.09 0.10 0.10 0.12 0.18 0.22 0.16 0.10 0.10 0.21 0.33 0.51 0.49 0.54 0.63 0.66 0.68 0.54 0.55 0.55 0.52 0.50 0.54 0.47 0.35 0.31 0.43 0.41 0.41 0.38 0.37 0.31 0.25 0.22 0.17 0.17 0.24 0.24 0.22 0.15 0.14 0.13 0.13 0.11 0.12 0.17
0.34 0.18 0.05 0.04 0.11 0.11 0.08 0.07 0.06 0.08 0.12 0.16 0.18 0.16 0.17 0.15 0.16 0.34 0.36 0.36 0.37 0.48 0.45 0.44 0.39 0.38 0.44 0.49 0.48 0.49 0.36 0.29 0.31 0.29 0.23 0.16 0.14 0.16 0.23 0.32 0.37 0.34 0.20 0.18 0.20 0.24 0.24 0.20 0.16 0.12 0.15 0.15 0.17 0.23
0.13 0.04 0.06 0.08 0.10 0.11 0.12 0.11 0.12 0.15 0.16 0.16 0.15 0.14 0.21 0.16 0.32 0.44 0.45 0.50 0.42 0.35 0.31 0.31 0.29 0.25 0.27 0.29 0.31 0.31 0.32 0.29 0.21 0.13 0.08 0.13 0.14 0.15 0.15 0.21 0.23 0.18 0.16 0.20 0.19 0.19 0.21 0.23 0.24 0.23 0.23 0.24 0.22 0.19
0.09 0.07 0.06 0.07 0.15 0.19 0.23 0.22 0.25 0.26 0.24 0.25 0.20 0.21 0.26 0.41 0.69 0.57 0.59 0.46 0.35 0.25 0.25 0.28 0.37 0.26 0.20 0.18 0.19 0.21 0.19 0.21 0.25 0.22 0.18 0.26 0.30 0.28 0.18 0.16 0.15 0.15 0.15 0.17 0.19 0.23 0.23 0.26 0.24 0.26 0.29 0.28 0.28 0.30
0.12 0.16 0.18 0.12 0.18 0.30 0.44 0.33 0.35 0.31 0.21 0.17 0.15 0.19 0.21 0.46 0.73 0.52 0.36 0.31 0.27 0.29 0.30 0.26 0.27 0.19 0.21 0.19 0.19 0.17 0.20 0.17 0.21 0.29 0.26 0.23 0.26 0.24 0.18 0.20 0.20 0.19 0.20 0.23 0.23 0.21 0.20 0.20 0.25 0.34 0.31 0.30 0.34 0.35
0.15 0.17 0.16 0.15 0.26 0.30 0.26 0.23 0.20 0.15 0.11 0.11 0.09 0.13 0.23 0.34 0.37 0.28 0.31 0.37 0.26 0.22 0.17 0.16 0.18 0.21 0.18 0.16 0.19 0.17 0.21 0.21 0.15 0.16 0.20 0.22 0.23 0.24 0.24 0.23 0.23 0.22 0.21 0.21 0.19 0.20 0.21 0.23 0.29 0.29 0.23 0.21 0.22 0.20
0.10 0.11 0.11 0.15 0.23 0.23 0.27 0.35 0.23 0.17 0.16 0.11 0.14 0.12 0.17 0.15 0.19 0.27 0.25 0.28 0.16 0.16 0.19 0.16 0.16 0.18 0.20 0.19 0.22 0.20 0.20 0.19 0.15 0.16 0.19 0.21 0.22 0.21 0.19 0.17 0.17 0.16 0.15 0.14 0.14 0.14 0.13 0.15 0.16 0.14 0.14 0.12 0.12 0.11
0.15 0.15 0.14 0.15 0.17 0.17 0.18 0.23 0.16 0.13 0.12 0.12 0.15 0.15 0.16 0.16 0.29 0.36 0.23 0.21 0.24 0.22 0.22 0.24 0.25 0.26 0.27 0.23 0.23 0.21 0.17 0.16 0.15 0.14 0.15 0.15 0.13 0.11 0.11 0.12 0.12 0.12 0.11 0.11 0.12 0.13 0.10 0.09 0.10 0.12 0.11 0.11 0.10 0.08